[[{"header":{"parameterUnit":"m.s-1","parameterCategory":1,"la1":31.0,"la2":29.5877,"lo1":-88.7671,"lo2":-86.6584,"dy":0.0162,"dx":0.0185,"nx":115,"ny":88,"refTime":"2024-03-26T06:00:00:Z","depth":0,"parameterNumber":2,"parameterNumberName":"U-component_of_WINDS"},"data":[0.0,0.0,0.0,0.0,0.0,0.0,0.0,0.0,0.0,0.0,0.0,0.0,0.0,0.0,0.0,0.0,0.0,0.0,0.0,0.0,0.0,0.0,0.0,0.0,0.0,0.0,0.0,0.0,0.0,0.0,0.0,0.0,0.0,0.0,0.0,0.0,0.0,0.0,0.0,0.0,0.0,0.0,0.0,0.0,0.0,0.0,0.0,0.0,0.0,0.0,0.0,0.0,0.0,0.0,0.0,0.0,0.0,0.0,0.0,0.0,0.0,0.0,0.0,0.0,0.0,0.0,0.0,0.0,0.0,0.0,0.0,0.0,0.0,0.0,0.0,0.0,0.0,0.0,0.0,0.0,0.0,0.0,0.0,0.0,0.0,0.0,0.0,0.0,0.0,0.0,0.0,0.0,0.0,0.0,0.0,0.0,0.0,0.0,0.0,0.0,0.0,0.0,0.0,0.0,0.0,0.0,0.0,0.0,0.0,0.0,0.0,0.0,0.0,0.0,0.0,0.0,0.0,0.0,0.0,0.0,0.0,0.0,0.0,0.0,0.0,0.0,0.0,0.0,0.0,0.0,0.0,0.0,0.0,0.0,0.0,0.0,0.0,0.0,0.0,0.0,0.0,0.0,0.0,0.0,0.0,0.0,0.0,0.0,0.0,0.0,0.0,0.0,0.0,0.0,0.0,0.0,0.0,0.0,0.0,0.0,0.0,0.0,0.0,0.0,0.0,0.0,0.0,0.0,0.0,0.0,0.0,0.0,0.0,0.0,0.0,0.0,0.0,0.0,0.0,0.0,0.0,0.0,0.0,0.0,0.0,0.0,0.0,0.0,0.0,0.0,0.0,0.0,0.0,0.0,0.0,0.0,0.0,0.0,0.0,0.0,0.0,0.0,0.0,0.0,0.0,0.0,0.0,0.0,0.0,0.0,0.0,0.0,0.0,0.0,0.0,0.0,0.0,0.0,0.0,0.0,0.0,0.0,0.0,0.0,0.0,0.0,0.0,0.0,0.0,0.0,0.0,0.0,0.0,0.0,0.0,0.0,0.0,0.0,0.0,0.0,0.0,0.0,0.0,0.0,0.0,0.0,0.0,0.0,0.0,0.0,0.0,0.0,0.0,0.0,0.0,0.0,0.0,0.0,0.0,0.0,0.0,0.0,0.0,0.0,0.0,0.0,0.0,0.0,0.0,0.0,0.0,0.0,0.0,0.0,0.0,0.0,0.0,0.0,0.0,0.0,0.0,0.0,0.0,0.0,0.0,0.0,0.0,0.0,0.0,0.0,0.0,0.0,0.0,0.0,0.0,0.0,0.0,0.0,0.0,0.0,0.0,0.0,0.0,0.0,0.0,0.0,0.0,0.0,0.0,0.0,0.0,0.0,0.0,0.0,0.0,0.0,0.0,0.0,0.0,0.0,0.0,0.0,0.0,0.0,0.0,0.0,0.0,0.0,0.0,0.0,0.0,0.0,0.0,0.0,0.0,0.0,0.0,0.0,0.0,0.0,0.0,0.0,0.0,0.0,0.0,0.0,0.0,0.0,0.0,0.0,0.0,0.0,0.0,0.0,0.0,0.0,0.0,0.0,0.0,0.0,0.0,0.0,0.0,0.0,0.0,0.0,0.0,0.0,0.0,0.0,0.0,0.0,0.0,0.0,0.0,0.0,0.0,0.0,0.0,0.0,0.0,0.0,0.0,0.0,0.0,0.0,0.0,0.0,0.0,0.0,0.0,0.0,0.0,0.0,0.0,0.0,0.0,0.0,0.0,0.0,0.0,0.0,0.0,0.0,0.0,0.0,0.0,0.0,0.0,0.0,0.0,0.0,0.0,0.0,0.0,0.0,0.0,0.0,0.0,0.0,0.0,0.0,0.0,0.0,0.0,0.0,0.0,0.0,0.0,0.0,0.0,0.0,0.0,0.0,0.0,0.0,0.0,0.0,0.0,0.0,0.0,0.0,0.0,0.0,0.0,0.0,0.0,0.0,0.0,0.0,0.0,0.0,0.0,0.0,0.0,0.0,0.0,0.0,0.0,0.0,0.0,0.0,0.0,0.0,0.0,0.0,0.0,0.0,0.0,0.0,0.0,0.0,0.0,0.0,0.0,0.0,0.0,0.0,0.0,0.0,0.0,0.0,0.0,0.0,0.0,0.0,0.0,0.0,0.0,0.0,0.0,0.0,0.0,0.0,0.0,0.0,0.0,0.0,0.0,0.0,0.0,0.0,0.0,0.0,0.0,0.0,0.0,0.0,0.0,0.0,0.0,0.0,0.0,0.0,0.0,0.0,0.0,0.0,0.0,0.0,0.0,0.0,0.0,0.0,0.0,0.0,0.0,0.0,0.0,0.0,0.0,0.0,0.0,0.0,0.0,0.0,0.0,0.0,0.0,0.0,0.0,0.0,0.0,0.0,0.0,0.0,0.0,0.0,0.0,0.0,0.0,0.0,0.0,0.0,0.0,0.0,0.0,0.0,0.0,0.0,0.0,0.0,0.0,0.0,0.0,0.0,0.0,0.0,0.0,0.0,0.0,0.0,0.0,0.0,0.0,0.0,0.0,0.0,0.0,0.0,0.0,0.0,0.0,0.0,0.0,0.0,0.0,0.0,0.0,0.0,0.0,0.0,0.0,0.0,0.0,0.0,0.0,0.0,0.0,0.0,0.0,0.0,0.0,0.0,0.0,0.0,0.0,0.0,0.0,0.0,0.0,0.0,0.0,0.0,0.0,0.0,0.0,0.0,0.0,0.0,0.0,0.0,0.0,0.0,0.0,0.0,0.0,0.0,0.0,0.0,0.0,0.0,0.0,0.0,0.0,0.0,0.0,0.0,0.0,0.0,0.0,0.0,0.0,0.0,0.0,0.0,0.0,0.0,0.0,0.0,0.0,0.0,0.0,0.0,0.0,0.0,0.0,0.0,0.0,0.0,0.0,0.0,0.0,0.0,0.0,0.0,0.0,0.0,0.0,0.0,0.0,0.0,0.0,0.0,0.0,0.0,0.0,0.0,0.0,0.0,0.0,0.0,0.0,0.0,0.0,0.0,0.0,0.0,0.0,0.0,0.0,0.0,0.0,0.0,0.0,0.0,0.0,0.0,0.0,0.0,0.0,0.0,0.0,0.0,0.0,0.0,0.0,0.0,0.0,0.0,0.0,0.0,0.0,0.0,0.0,0.0,0.0,0.0,0.0,0.0,0.0,0.0,0.0,0.0,0.0,0.0,0.0,0.0,0.0,0.0,0.0,0.0,0.0,0.0,0.0,0.0,0.0,0.0,0.0,0.0,0.0,0.0,0.0,0.0,0.0,0.0,0.0,0.0,0.0,0.0,0.0,0.0,0.0,0.0,0.0,0.0,0.0,0.0,0.0,0.0,0.0,0.0,0.0,0.0,0.0,0.0,0.0,0.0,0.0,0.0,0.0,0.0,0.0,0.0,0.0,0.0,0.0,0.0,0.0,0.0,0.0,0.0,0.0,0.0,0.0,0.0,0.0,0.0,0.0,0.0,0.0,0.0,0.0,0.0,0.0,0.0,0.0,0.0,0.0,0.0,0.0,0.0,0.0,0.0,0.0,0.0,0.0,0.0,0.0,0.0,0.0,0.0,0.0,0.0,0.0,0.0,0.0,0.0,0.0,0.0,0.0,0.0,0.0,0.0,0.0,0.0,0.0,0.0,0.0,0.0,0.0,0.0,0.0,0.0,0.0,0.0,0.0,0.0,0.0,0.0,0.0,0.0,0.0,0.0,0.0,0.0,0.0,0.0,0.0,0.0,0.0,0.0,0.0,0.0,0.0,0.0,0.0,0.0,0.0,0.0,0.0,0.0,0.0,0.0,0.0,0.0,0.0,0.0,0.0,0.0,0.0,0.0,0.0,0.0,0.0,0.0,0.0,0.0,0.0,0.0,0.0,0.0,0.0,0.0,0.0,0.0,0.0,0.0,0.0,0.0,0.0,0.0,0.0,0.0,0.0,0.0,0.0,0.0,0.0,0.0,0.0,0.0,0.0,0.0,0.0,0.0,0.0,0.0,0.0,0.0,0.0,0.0,0.0,0.0,0.0,0.0,0.0,0.0,0.0,0.0,0.0,0.0,0.0,0.0,0.0,0.0,0.0,0.0,0.0,0.0,0.0,0.0,0.0,0.0,0.0,0.0,0.0,0.0,0.0,0.0,0.0,0.0,0.0,0.0,0.0,0.0,0.0,0.0,0.0,0.0,0.0,0.0,0.0,0.0,0.0,0.0,0.0,0.0,0.0,0.0,0.0,0.0,0.0,0.0,0.0,0.0,-0.7732,0.0,0.0,0.0,0.0,0.0,0.0,0.0,0.0,0.0,0.0,0.0,0.0,0.0,0.0,0.0,0.0,0.0,0.0,0.0,0.0,0.0,0.0,0.0,0.0,0.0,0.0,0.0,0.0,0.0,0.0,0.0,0.0,0.0,0.0,0.0,0.0,0.0,0.0,0.0,0.0,0.0,0.0,0.0,0.0,0.0,0.0,0.0,0.0,0.0,0.0,0.0,0.0,0.0,0.0,0.0,0.0,0.0,0.0,0.0,0.0,0.0,0.0,0.0,0.0,0.0,0.0,0.0,0.0,0.0,0.0,0.0,0.0,0.0,0.0,0.0,0.0,0.0,0.0,0.0,0.0,0.0,0.0,0.0,0.0,0.0,0.0,0.0,0.0,0.0,0.0,0.0,0.0,0.0,0.0,0.0,0.0,0.0,0.0,0.0,0.0,0.0,0.0,0.0,0.0,0.0,0.0,0.0,0.0,0.0,0.0,-0.5877,-0.6382,-0.6797,-0.7224,-0.7733,0.0,0.0,0.0,0.0,0.0,0.0,0.0,0.0,0.0,0.0,0.0,0.0,0.0,0.0,0.0,0.0,0.0,0.0,0.0,0.0,0.0,0.0,0.0,0.0,0.0,0.0,0.0,0.0,0.0,0.0,0.0,0.0,0.0,0.0,0.0,0.0,0.0,0.0,0.0,0.0,0.0,0.0,0.0,0.0,0.0,0.0,0.0,0.0,0.0,0.0,0.0,0.0,0.0,0.0,0.0,0.0,0.0,0.0,0.0,0.0,0.0,0.0,0.0,0.0,0.0,0.0,0.0,0.0,0.0,0.0,0.0,0.0,0.0,0.0,0.0,0.0,0.0,0.0,0.0,0.0,0.0,0.0,0.0,0.0,0.0,0.0,0.0,0.0,0.0,0.0,0.0,0.0,0.0,0.0,0.0,0.0,0.0,0.0,0.0,0.0,0.0,0.0,0.0,0.0,0.0,0.0,0.0,0.0,0.0,0.0,0.0,0.0,-0.6882,-0.7673,-0.9141,0.0,0.0,0.0,0.0,0.0,0.0,0.0,0.0,0.0,0.0,0.0,0.0,0.0,0.0,0.0,0.0,0.0,0.0,0.0,0.0,0.0,0.0,0.0,0.0,0.0,0.0,0.0,0.0,0.0,0.0,0.0,0.0,0.0,0.0,0.0,0.0,0.0,0.0,0.0,0.0,0.0,0.0,0.0,0.0,0.0,0.0,0.0,0.0,0.0,0.0,0.0,0.0,0.0,0.0,0.0,0.0,0.0,0.0,0.0,0.0,0.0,0.0,0.0,0.0,0.0,0.0,0.0,0.0,0.0,0.0,0.0,0.0,0.0,0.0,0.0,0.0,0.0,0.0,0.0,0.0,0.0,0.0,0.0,0.0,0.0,0.0,0.0,0.0,0.0,0.0,0.0,0.0,0.0,0.0,0.0,0.0,0.0,0.0,0.0,0.0,0.0,0.0,0.0,0.0,0.0,0.0,0.0,0.0,0.0,0.0,-0.6645,-0.7572,-0.8338,0.0,-1.3264,0.0,0.0,0.0,0.0,0.0,0.0,0.0,0.0,0.0,0.0,0.0,0.0,0.0,0.0,0.0,0.0,0.0,0.0,0.0,0.0,0.0,0.0,0.0,0.0,0.0,0.0,0.0,0.0,0.0,0.0,0.0,0.0,0.0,0.0,0.0,0.0,0.0,0.0,0.0,0.0,0.0,0.0,0.0,0.0,0.0,0.0,0.0,0.0,0.0,0.0,0.0,0.0,0.0,0.0,0.0,0.0,0.0,0.0,0.0,0.0,0.0,0.0,0.0,0.0,0.0,0.0,0.0,0.0,0.0,0.0,0.0,0.0,0.0,0.0,0.0,0.0,0.0,0.0,0.0,0.0,0.0,0.0,0.0,0.0,0.0,0.0,0.0,0.0,0.0,0.0,0.0,0.0,0.0,0.0,0.0,0.0,0.0,0.0,0.0,0.0,0.0,0.0,0.0,0.0,0.0,0.0,0.0,0.0,0.0,0.0,-0.8008,-0.8407,-0.9749,-1.1094,0.0,0.0,0.0,0.0,0.0,0.0,0.0,0.0,0.0,0.0,0.0,0.0,0.0,0.0,0.0,0.0,0.0,0.0,0.0,0.0,0.0,0.0,0.0,0.0,0.0,0.0,0.0,0.0,0.0,0.0,0.0,0.0,0.0,0.0,0.0,0.0,0.0,0.0,0.0,0.0,0.0,0.0,0.0,0.0,0.0,0.0,0.0,0.0,0.0,0.0,0.0,0.0,0.0,0.0,0.0,0.0,0.0,0.0,0.0,0.0,0.0,0.0,0.0,0.0,0.0,0.0,0.0,0.0,0.0,0.0,0.0,0.0,0.0,0.0,0.0,0.0,0.0,0.0,0.0,0.0,0.0,0.0,0.0,0.0,0.0,0.0,0.0,0.0,0.0,0.0,0.0,0.0,0.0,0.0,0.0,0.0,0.0,0.0,0.0,0.0,0.0,0.0,0.0,0.0,0.0,0.0,0.0,0.0,0.0,0.0,-0.8375,-0.9123,-0.962,-1.0831,-1.1576,-1.1763,0.0,0.0,0.0,0.0,0.0,0.0,0.0,0.0,0.0,0.0,0.0,0.0,0.0,0.0,0.0,0.0,0.0,0.0,0.0,0.0,0.0,0.0,0.0,0.0,0.0,0.0,0.0,0.0,0.0,0.0,0.0,0.0,0.0,0.0,0.0,0.0,0.0,0.0,0.0,0.0,0.0,0.0,0.0,0.0,0.0,0.0,0.0,0.0,0.0,0.0,0.0,0.0,0.0,0.0,0.0,0.0,0.0,0.0,0.0,0.0,0.0,0.0,0.0,0.0,0.0,0.0,0.0,0.0,0.0,0.0,0.0,0.0,0.0,0.0,0.0,0.0,0.0,0.0,0.0,0.0,0.0,0.0,0.0,0.0,0.0,0.0,0.0,0.0,0.0,0.0,0.0,0.0,0.0,0.0,0.0,0.0,0.0,0.0,0.0,0.0,0.0,0.0,0.0,0.0,0.0,0.0,0.0,0.0,-0.9819,-0.9303,-0.9721,-1.1321,-1.146,-1.1883,0.0,0.0,0.0,0.0,0.0,0.0,0.0,0.0,0.0,0.0,0.0,0.0,0.0,0.0,0.0,0.0,0.0,0.0,0.0,0.0,0.0,0.0,0.0,0.0,0.0,0.0,0.0,0.0,0.0,0.0,0.0,0.0,0.0,0.0,0.0,0.0,0.0,0.0,0.0,0.0,0.0,0.0,0.0,0.0,0.0,0.0,0.0,0.0,0.0,0.0,0.0,0.0,0.0,0.0,0.0,0.0,0.0,0.0,0.0,0.0,0.0,0.0,0.0,0.0,0.0,0.0,0.0,0.0,0.0,0.0,0.0,0.0,0.0,0.0,0.0,0.0,0.0,0.0,0.0,0.0,0.0,0.0,0.0,0.0,0.0,0.0,0.0,0.0,0.0,0.0,0.0,0.0,0.0,0.0,0.0,0.0,0.0,0.0,0.0,0.0,0.0,0.0,0.0,0.0,0.0,0.0,0.0,0.0,0.0,-0.9385,-1.0656,-1.1864,-1.3006,-1.3518,-1.3714,0.0,0.0,0.0,0.0,0.0,0.0,0.0,0.0,0.0,0.0,0.0,0.0,0.0,0.0,0.0,0.0,0.0,0.0,0.0,0.0,0.0,0.0,0.0,0.0,0.0,0.0,0.0,0.0,0.0,0.0,0.0,0.0,0.0,0.0,0.0,0.0,0.0,0.0,0.0,0.0,0.0,0.0,0.0,0.0,0.0,0.0,0.0,0.0,0.0,0.0,0.0,0.0,0.0,0.0,0.0,0.0,0.0,0.0,0.0,0.0,0.0,0.0,0.0,0.0,0.0,0.0,0.0,0.0,0.0,0.0,0.0,0.0,0.0,0.0,0.0,0.0,0.0,0.0,0.0,0.0,0.0,0.0,0.0,0.0,0.0,0.0,0.0,0.0,0.0,0.0,0.0,0.0,0.0,0.0,0.0,0.0,0.0,0.0,0.0,0.0,0.0,0.0,0.0,0.0,0.0,0.0,0.0,0.0,0.0,-1.0189,0.0,-1.3243,-1.3499,-1.4041,-1.3808,0.0,0.0,0.0,0.0,0.0,0.0,0.0,0.0,0.0,0.0,0.0,0.0,0.0,0.0,0.0,0.0,0.0,0.0,0.0,0.0,0.0,0.0,0.0,0.0,0.0,0.0,0.0,0.0,0.0,0.0,0.0,0.0,0.0,0.0,0.0,0.0,0.0,0.0,0.0,0.0,0.0,0.0,0.0,0.0,0.0,0.0,0.0,0.0,0.0,0.0,0.0,0.0,0.0,0.0,0.0,0.0,0.0,0.0,0.0,0.0,0.0,0.0,0.0,0.0,0.0,0.0,0.0,0.0,0.0,0.0,0.0,0.0,0.0,0.0,0.0,0.0,0.0,0.0,0.0,0.0,0.0,0.0,0.0,0.0,0.0,0.0,0.0,0.0,0.0,0.0,0.0,0.0,0.0,0.0,0.0,0.0,0.0,0.0,0.0,0.0,0.0,0.0,0.0,0.0,0.0,0.0,0.0,0.0,-1.0442,-1.2586,-1.3502,-1.3594,-1.2776,-1.2848,-1.2025,0.0,0.0,0.0,0.0,0.0,0.0,0.0,0.0,0.0,0.0,0.0,0.0,0.0,0.0,0.0,0.0,0.0,0.0,0.0,0.0,0.0,0.0,0.0,0.0,0.0,0.0,0.0,0.0,0.0,0.0,0.0,0.0,0.0,0.0,0.0,0.0,0.0,0.0,0.0,0.0,0.0,0.0,0.0,0.0,0.0,0.0,0.0,0.0,0.0,0.0,0.0,0.0,0.0,0.0,0.0,0.0,0.0,0.0,0.0,0.0,0.0,0.0,0.0,0.0,0.0,0.0,0.0,0.0,0.0,0.0,0.0,0.0,0.0,0.0,0.0,0.0,0.0,0.0,0.0,0.0,0.0,0.0,0.0,0.0,0.0,0.0,0.0,0.0,0.0,0.0,0.0,0.0,0.0,0.0,0.0,0.0,0.0,0.0,0.0,0.0,0.0,0.0,0.0,0.0,0.0,0.0,0.0,0.0,0.0,-1.2632,-1.3494,-1.381,-1.3547,-1.4009,-1.4029,0.0,0.0,0.0,0.0,0.0,0.0,0.0,0.0,0.0,0.0,0.0,0.0,0.0,0.0,0.0,0.0,0.0,0.0,0.0,0.0,0.0,0.0,0.0,0.0,0.0,0.0,0.0,0.0,0.0,0.0,0.0,0.0,0.0,0.0,0.0,0.0,0.0,0.0,0.0,0.0,0.0,0.0,0.0,0.0,0.0,0.0,0.0,0.0,0.0,0.0,0.0,0.0,0.0,0.0,0.0,0.0,0.0,0.0,0.0,0.0,0.0,0.0,0.0,0.0,0.0,0.0,0.0,0.0,0.0,0.0,0.0,0.0,0.0,0.0,0.0,0.0,0.0,0.0,0.0,0.0,0.0,0.0,0.0,0.0,0.0,0.0,0.0,0.0,0.0,0.0,0.0,0.0,0.0,0.0,0.0,0.0,0.0,0.0,0.0,0.0,0.0,0.0,0.0,0.0,0.0,0.0,0.0,0.0,0.0,-1.3965,-1.422,-1.4181,-1.3844,-1.4275,-1.4368,-1.4073,0.0,0.0,0.0,0.0,0.0,0.0,0.0,0.0,0.0,0.0,0.0,0.0,0.0,0.0,0.0,0.0,0.0,0.0,0.0,0.0,0.0,0.0,0.0,0.0,0.0,0.0,0.0,0.0,0.0,0.0,0.0,0.0,0.0,0.0,0.0,0.0,0.0,0.0,0.0,0.0,0.0,0.0,0.0,0.0,0.0,0.0,0.0,0.0,0.0,0.0,0.0,0.0,0.0,0.0,0.0,0.0,0.0,0.0,0.0,0.0,0.0,0.0,0.0,0.0,0.0,0.0,0.0,0.0,0.0,0.0,0.0,0.0,0.0,0.0,0.0,0.0,0.0,0.0,0.0,0.0,0.0,0.0,0.0,0.0,0.0,0.0,0.0,0.0,0.0,0.0,0.0,0.0,0.0,0.0,0.0,0.0,0.0,0.0,0.0,0.0,0.0,0.0,0.0,0.0,0.0,0.0,0.0,0.0,-1.6208,-1.5567,-1.483,-1.3985,-1.3902,-1.3484,0.0,0.0,0.0,0.0,0.0,0.0,0.0,0.0,0.0,0.0,0.0,0.0,0.0,0.0,0.0,0.0,0.0,0.0,0.0,0.0,0.0,0.0,0.0,0.0,0.0,0.0,0.0,0.0,0.0,0.0,0.0,0.0,0.0,0.0,0.0,0.0,0.0,0.0,0.0,0.0,0.0,0.0,0.0,0.0,0.0,0.0,0.0,0.0,0.0,0.0,0.0,0.0,0.0,0.0,0.0,0.0,0.0,0.0,0.0,0.0,0.0,0.0,0.0,0.0,0.0,0.0,0.0,0.0,0.0,0.0,0.0,0.0,0.0,0.0,0.0,0.0,0.0,0.0,0.0,0.0,0.0,0.0,0.0,0.0,0.0,0.0,0.0,0.0,0.0,0.0,0.0,0.0,0.0,0.0,0.0,0.0,0.0,0.0,0.0,0.0,0.0,0.0,0.0,0.0,0.0,0.0,0.0,0.0,0.0,-1.6334,-1.6643,-1.6704,-1.6502,-1.5888,-1.5478,0.0,0.0,0.0,0.0,0.0,0.0,0.0,0.0,0.0,0.0,0.0,0.0,0.0,0.0,0.0,0.0,0.0,0.0,0.0,0.0,0.0,0.0,0.0,0.0,0.0,0.0,0.0,0.0,0.0,0.0,0.0,0.0,0.0,0.0,0.0,0.0,0.0,0.0,0.0,0.0,0.0,0.0,0.0,0.0,0.0,0.0,0.0,0.0,0.0,0.0,0.0,0.0,0.0,0.0,0.0,0.0,0.0,0.0,0.0,0.0,0.0,0.0,0.0,0.0,0.0,0.0,0.0,0.0,0.0,0.0,0.0,0.0,0.0,0.0,0.0,0.0,0.0,0.0,0.0,0.0,0.0,0.0,0.0,0.0,0.0,0.0,0.0,0.0,0.0,0.0,0.0,0.0,0.0,0.0,0.0,0.0,0.0,0.0,0.0,0.0,0.0,0.0,0.0,0.0,0.0,0.0,0.0,0.0,-1.6715,-1.6829,-1.784,-1.8413,-1.8507,-1.6648,-1.585,0.0,0.0,0.0,0.0,0.0,0.0,0.0,0.0,0.0,0.0,0.0,0.0,0.0,0.0,0.0,0.0,0.0,0.0,0.0,0.0,0.0,0.0,0.0,0.0,0.0,0.0,0.0,0.0,0.0,0.0,0.0,0.0,0.0,0.0,0.0,0.0,0.0,0.0,0.0,0.0,0.0,0.0,0.0,0.0,0.0,0.0,0.0,0.0,0.0,0.0,0.0,0.0,0.0,0.0,0.0,0.0,0.0,0.0,0.0,0.0,0.0,0.0,0.0,0.0,0.0,0.0,0.0,0.0,0.0,0.0,0.0,0.0,0.0,0.0,0.0,0.0,0.0,0.0,0.0,0.0,0.0,0.0,0.0,0.0,0.0,0.0,0.0,0.0,0.0,0.0,0.0,0.0,0.0,0.0,0.0,0.0,0.0,0.0,0.0,0.0,0.0,0.0,0.0,0.0,0.0,0.0,0.0,0.0,-1.7382,-1.7558,-1.8955,-1.9782,-1.9823,-1.6744,-1.547,0.0,0.0,0.0,0.0,0.0,0.0,0.0,0.0,0.0,0.0,0.0,0.0,0.0,0.0,0.0,0.0,0.0,0.0,0.0,0.0,0.0,0.0,0.0,0.0,0.0,0.0,0.0,0.0,0.0,0.0,0.0,0.0,0.0,0.0,0.0,0.0,0.0,0.0,0.0,0.0,0.0,0.0,0.0,0.0,0.0,0.0,0.0,0.0,0.0,0.0,0.0,0.0,0.0,0.0,0.0,0.0,0.0,0.0,0.0,0.0,0.0,0.0,0.0,0.0,0.0,0.0,0.0,0.0,0.0,0.0,0.0,0.0,0.0,0.0,0.0,0.0,0.0,0.0,0.0,0.0,0.0,0.0,0.0,0.0,0.0,0.0,0.0,0.0,0.0,0.0,0.0,0.0,0.0,0.0,0.0,0.0,0.0,0.0,0.0,0.0,0.0,0.0,0.0,0.0,0.0,0.0,0.0,0.0,-1.7643,-1.8498,-1.939,-1.9911,-2.0031,-1.7369,-1.6353,0.0,0.0,0.0,0.0,0.0,0.0,0.0,0.0,0.0,0.0,0.0,0.0,0.0,0.0,0.0,0.0,0.0,0.0,0.0,0.0,0.0,0.0,0.0,0.0,0.0,0.0,0.0,0.0,0.0,0.0,0.0,0.0,0.0,0.0,0.0,0.0,0.0,0.0,0.0,0.0,0.0,0.0,0.0,0.0,0.0,0.0,0.0,0.0,0.4357,0.0,0.0,0.0,0.0,0.0,0.0,0.0,0.0,0.0,0.0,0.0,0.0,0.0,0.0,0.0,0.0,0.0,0.0,0.0,0.0,0.0,0.0,0.0,0.0,0.0,0.0,0.0,0.0,0.0,0.0,0.0,0.0,0.0,0.0,0.0,0.0,0.0,0.0,0.0,0.0,0.0,0.0,0.0,0.0,0.0,0.0,0.0,0.0,0.0,0.0,0.0,0.0,0.0,0.0,0.0,0.0,0.0,0.0,0.0,-1.727,-1.8677,-1.9462,-1.9911,-1.9974,-1.7947,-1.7091,0.0,0.0,0.0,0.0,0.0,0.0,0.0,0.0,0.0,0.0,0.0,0.0,0.0,0.0,0.0,0.0,0.0,0.0,0.0,0.0,0.0,0.0,0.0,0.0,0.0,0.0,0.0,0.0,0.0,0.0,0.0,0.0,0.0,0.0,0.0,0.0,0.0,0.0,0.0,0.0,0.0,0.0,0.0,0.0,0.0,0.0,0.0,0.0,0.0,0.0,0.0,0.0,0.0,0.0,0.0,0.0,0.0,0.0,0.0,0.0,0.0,0.0,0.0,0.0,0.0,0.0,0.0,0.0,0.0,0.0,0.0,0.0,0.0,0.0,0.0,0.0,0.0,0.0,0.0,0.0,0.0,0.0,0.0,0.0,0.0,0.0,0.0,0.0,0.0,0.0,0.0,0.0,0.0,0.0,0.0,0.0,0.0,0.0,0.0,0.0,0.0,0.0,0.0,0.0,0.0,0.0,0.0,-1.5977,-1.6937,-1.8693,-1.9456,-1.9854,-1.9943,-1.8374,-1.7555,-1.7646,0.0,0.0,0.0,0.0,0.0,0.0,0.0,0.0,0.0,0.0,0.0,0.0,0.0,0.0,0.0,0.0,0.0,0.0,0.0,0.0,0.0,0.0,0.0,0.0,0.0,0.0,0.0,0.0,0.0,0.0,0.0,0.0,0.0,0.0,0.0,0.0,0.0,0.0,0.3232,0.3344,0.0,0.0,0.0,0.0,0.0,0.0,0.0,0.0,0.3709,0.0,0.0,0.0,0.0,0.0,0.0,0.0,0.0,0.0,0.0,0.0,0.0,0.0,0.0,0.0,0.0,0.0,0.0,0.0,0.0,0.0,0.0,0.0,0.0,0.0,0.0,0.0,0.0,0.0,0.0,0.0,0.0,0.0,0.0,0.0,0.0,0.0,0.0,0.0,0.0,0.0,0.0,0.0,0.0,0.0,0.0,0.0,0.0,0.0,0.0,0.0,0.0,0.0,0.0,0.0,0.0,-1.5856,-1.6454,-1.7651,-1.9463,-1.9707,-1.983,-1.988,-1.8345,-1.7529,-1.7532,0.0,0.0,0.0,0.0,0.0,0.0,0.0,0.0,0.0,0.0,0.0,0.0,0.0,0.0,0.0,0.0,0.0,0.0,0.0,0.0,0.0,0.0,0.0,0.0,0.0,0.0,0.0,0.0,0.0,0.0,0.0,0.0,0.0,0.0,0.0,0.0,0.0,0.0,0.0,0.3481,0.3414,0.0,0.0,0.0,0.0,0.0,0.0,0.0,0.0,0.3553,0.0,0.0,0.0,0.0,0.0,0.0,0.0,0.0,0.0,0.0,0.0,0.0,0.0,0.0,0.0,0.0,0.0,0.0,0.0,0.0,0.0,0.0,0.0,0.0,0.0,0.0,0.0,0.0,0.0,0.0,0.0,0.0,0.0,0.0,0.0,0.0,0.0,0.0,0.0,0.0,0.0,0.0,0.0,0.0,0.0,0.0,0.0,0.0,0.0,0.0,0.0,0.0,0.0,0.0,0.0,-1.454,-1.5463,-1.6749,-1.8565,-1.9476,-1.9988,-2.004,-1.8821,-1.7984,0.0,0.0,0.0,0.0,0.0,0.0,0.0,0.0,0.0,0.0,0.0,0.0,0.0,0.0,0.0,0.0,0.0,0.0,0.0,0.0,0.0,0.0,0.0,0.0,0.0,0.0,0.0,0.0,0.0,0.0,0.0,0.0,0.0,0.0,0.0,0.0,0.0,0.0,0.0,0.0,0.373,0.3635,0.359,0.0,0.0,0.0,0.0,0.0,0.0,0.2713,0.2963,0.0,0.0,0.0,0.0,0.0,0.0,0.0,0.0,0.0,0.0,0.0,0.0,0.0,0.0,0.0,0.0,0.0,0.0,0.0,0.0,0.0,0.0,0.0,0.0,0.0,0.0,0.0,0.0,0.0,0.0,0.0,0.0,0.0,0.0,0.0,0.0,0.0,0.0,0.0,0.0,0.0,0.0,0.0,0.0,0.0,0.0,0.0,0.0,0.0,0.0,0.0,0.0,0.0,0.0,0.0,-1.4128,-1.5492,-1.692,-1.8515,-1.9893,-2.065,-2.0679,-1.9295,-1.8306,0.0,0.0,0.0,0.0,0.0,0.0,0.0,0.0,0.0,0.0,0.0,0.0,0.0,0.0,0.0,0.0,0.0,0.0,0.0,0.0,0.0,0.0,0.0,0.0,0.0,0.0,0.0,0.0,0.0,0.0,0.0,0.0,0.0,0.0,0.0,0.0,0.0,0.0,0.0,0.0,0.0,0.3699,0.3462,0.331,0.0,0.0,0.0,0.0,0.1727,0.1963,0.0,0.0,0.0,0.0,0.0,0.0,0.0,0.0,0.0,0.0,0.0,0.0,0.0,0.0,0.0,0.0,0.0,0.0,0.0,0.0,0.0,0.0,0.0,0.0,0.0,0.0,0.0,0.0,0.0,0.0,0.0,0.0,0.0,0.0,0.0,0.0,0.0,0.0,0.0,0.0,0.0,0.0,0.0,0.0,0.0,0.0,0.0,0.0,0.0,0.0,0.0,0.0,0.0,0.0,0.0,0.0,-1.664,-1.9041,-2.0783,-2.1714,-2.2113,-2.2331,-2.2374,-1.9325,-1.7964,0.0,0.0,0.0,0.0,0.0,0.0,0.0,0.0,0.0,0.0,0.0,0.0,0.0,0.0,0.0,0.0,0.0,0.0,0.0,0.0,0.0,0.0,0.0,0.0,0.0,0.0,0.0,0.0,0.0,0.0,0.0,0.0,0.0,0.0,0.0,0.0,0.0,0.0,0.0,0.0,0.0,0.3082,0.3222,0.2853,0.2613,0.0,0.0,0.1601,0.0787,0.0917,0.0,0.0,0.0,0.0,0.0,0.0,0.0,0.0,0.0,0.0,0.0,0.0,0.0,0.0,0.0,0.0,0.0,0.0,0.0,0.0,0.0,0.0,0.0,0.0,0.0,0.0,0.0,0.0,0.0,0.0,0.0,0.0,0.0,0.0,0.0,0.0,0.0,0.0,0.0,0.0,0.0,0.0,0.0,0.0,0.0,0.0,0.0,0.0,0.0,0.0,0.0,0.0,0.0,0.0,0.0,-1.5234,-1.5828,-1.8833,-2.0631,-2.1122,-2.2165,-2.2753,-2.2852,-1.9931,-1.85,0.0,0.0,0.0,0.0,0.0,0.0,0.0,0.0,0.0,0.0,0.0,0.0,0.0,0.0,0.0,0.0,0.0,0.0,0.0,0.0,0.0,0.0,0.0,0.0,0.0,0.0,0.0,0.0,0.0,0.0,0.0,0.0,0.0,0.0,0.0,0.0,0.0,0.0,0.0,0.0,0.0,0.0,0.2862,0.2457,0.0,0.0,0.0,0.1291,0.0481,0.0,0.0,0.0,0.0,0.0,0.0,0.0,0.0,0.0,0.0,0.0,0.0,0.0,0.0,0.0,0.0,0.0,0.0,0.0,0.0,0.0,0.0,0.0,0.0,0.0,0.0,0.0,0.0,0.0,0.0,0.0,0.0,0.0,0.0,0.0,0.0,0.0,0.0,0.0,0.0,0.0,0.0,0.0,0.0,0.0,0.0,0.0,0.0,0.0,0.0,0.0,0.0,0.0,0.0,0.0,0.0,0.0,-1.5731,-1.9316,-2.1264,-2.1455,-2.2739,-2.3488,-2.3579,-2.1221,0.0,0.0,0.0,0.0,0.0,0.0,0.0,0.0,0.0,0.0,0.0,0.0,0.0,0.0,0.0,0.0,0.0,0.0,0.0,0.0,0.0,0.0,0.0,0.0,0.0,0.0,0.0,0.0,0.0,0.0,0.0,0.0,0.0,0.0,0.0,0.0,0.0,0.0,0.0,0.0,0.0,0.0,0.2212,0.2206,0.1835,0.1625,0.0,0.0,0.0794,0.0034,0.0035,0.0248,0.0,0.0,0.0,0.0,0.0,0.0,0.0,0.0,0.0,0.0,0.0,0.0,0.0,0.0,0.0,0.0,0.0,0.0,0.0,0.0,0.0,0.0,0.0,0.0,0.0,0.0,0.0,0.0,0.0,0.0,0.0,0.0,0.0,0.0,0.0,0.0,0.0,0.0,0.0,0.0,0.0,0.0,0.0,0.0,0.0,0.0,0.0,0.0,0.0,0.0,0.0,0.0,0.0,0.0,0.0,-1.8189,-2.2234,-2.4461,-2.4756,-2.5001,-2.5191,-2.5292,-2.3512,-2.1772,0.0,0.0,0.0,0.0,0.0,0.0,0.0,0.0,0.0,0.0,0.0,0.0,0.0,0.0,0.0,0.0,0.0,0.0,0.0,0.0,0.0,0.0,0.0,0.0,0.0,0.0,0.0,0.0,0.0,0.0,0.0,0.0,0.0,0.0,0.0,0.0,0.0,0.0,0.0,0.0,0.0,0.1113,0.1126,0.0859,0.0714,0.0,0.0,-0.0275,-0.0861,-0.0869,-0.0572,0.0117,0.0,0.0,0.0,0.0,0.0,0.0,0.0,0.0,0.0,0.0,0.0,0.0,0.0,0.0,0.0,0.0,0.0,0.0,0.0,0.0,0.0,0.0,0.0,0.0,0.0,0.0,0.0,0.0,0.0,0.0,0.0,0.0,0.0,0.0,0.0,0.0,0.0,0.0,0.0,0.0,0.0,0.0,0.0,0.0,0.0,0.0,0.0,0.0,0.0,0.0,0.0,0.0,0.0,-1.898,-1.9212,-2.2772,-2.4738,-2.4977,-2.5111,-2.5263,-2.5437,-2.3808,-2.2109,0.0,0.0,0.0,0.0,0.0,0.0,0.0,0.0,0.0,0.0,0.0,0.0,0.0,0.0,0.0,0.0,0.0,0.0,0.0,0.0,0.0,0.0,0.0,0.0,0.0,0.0,0.0,0.0,-0.297,-0.2911,-0.2197,0.0,0.0,0.0,0.0,0.0,0.0,0.0,0.0,0.0,0.0,-0.0,0.009,-0.0448,0.0,0.0,-0.035,-0.1771,-0.4682,-0.2747,-0.1552,-0.3216,-0.1718,0.0,0.0,0.0,0.0,0.0,0.0,0.0,0.0,0.0,0.0,0.0,0.0,0.0,0.0,0.0,0.0,0.0,0.0,0.0,0.0,0.0,0.0,0.0,0.0,0.0,0.0,0.0,0.0,0.0,0.0,0.0,0.0,0.0,0.0,0.0,0.0,0.0,0.0,0.0,0.0,0.0,0.0,0.0,0.0,0.0,0.0,0.0,0.0,0.0,0.0,0.0,0.0,-1.9532,-1.9694,-2.2902,-2.4654,-2.4877,-2.4968,-2.5137,-2.533,-2.4266,-2.2912,0.0,0.0,0.0,0.0,0.0,0.0,0.0,0.0,0.0,0.0,0.0,0.0,0.0,0.0,0.0,0.0,0.0,0.0,0.0,0.0,0.0,0.0,0.0,0.0,0.0,0.0,0.0,0.0,-0.4594,-0.3937,-0.2635,0.0,0.0,0.0,0.0,0.0,0.0,0.0,0.0,0.0,0.0,-0.1093,-0.0988,-0.2243,-0.2901,-0.2151,-0.3147,-0.4777,-0.6865,-0.5144,-0.3814,-0.4488,0.0,0.0,0.0,0.0,0.0,0.0,0.0,0.0,0.0,0.0,0.0,0.0,0.0,0.0,0.0,0.0,0.0,0.0,0.0,0.0,0.0,0.0,0.0,0.0,0.0,0.0,0.0,0.0,0.0,0.0,-1.5351,0.0,0.0,0.0,0.0,0.0,0.0,0.0,0.0,0.0,0.0,0.0,0.0,0.0,0.0,0.0,0.0,0.0,0.0,0.0,0.0,0.0,0.0,-1.9504,-1.9742,-2.2821,-2.4538,-2.4809,-2.4869,-2.503,-2.5281,-2.526,-2.4503,-2.2963,0.0,0.0,0.0,0.0,0.0,0.0,0.0,0.0,0.0,0.0,0.0,0.0,0.0,0.0,0.0,0.0,0.0,0.0,0.0,0.0,0.0,0.0,0.0,0.0,0.0,0.0,-0.7881,-0.7028,-0.5349,0.0,0.0,0.0,0.0,0.0,0.0,0.0,0.0,0.0,0.0,-0.2114,-0.2157,-0.2126,-0.4593,-0.6245,-0.605,-0.8525,-0.9484,-0.6617,-0.7873,-0.7629,0.0,0.0,0.0,0.0,0.0,0.0,0.0,0.0,0.0,0.0,0.0,0.0,0.0,0.0,0.0,0.0,0.0,0.0,0.0,0.0,0.0,0.0,0.0,0.0,0.0,0.0,0.0,-1.7128,-1.7129,0.0,0.0,0.0,0.0,0.0,0.0,0.0,0.0,0.0,0.0,0.0,-2.2158,-2.2158,0.0,0.0,0.0,0.0,0.0,0.0,0.0,0.0,0.0,0.0,0.0,0.0,-2.0185,-1.9932,-2.289,-2.4547,-2.4723,-2.479,-2.4917,-2.5102,-2.5225,-2.4605,-2.3103,0.0,0.0,0.0,0.0,0.0,0.0,0.0,0.0,0.0,0.0,0.0,0.0,0.0,0.0,0.0,0.0,0.0,0.0,0.0,0.0,0.0,0.0,0.0,0.0,0.0,-0.6607,0.0,0.0,0.0,0.0,0.0,0.0,0.0,0.0,0.0,0.0,0.0,-0.3085,-0.3614,-0.3235,-0.3032,-0.3258,-0.5173,-0.6279,0.0,0.0,0.0,0.0,0.0,0.0,0.0,0.0,0.0,0.0,0.0,0.0,0.0,0.0,-0.8015,-0.5314,-0.2764,-0.0579,0.0755,0.0,0.0,0.0,0.0,0.0,0.0,0.0,0.0,0.0,0.0,0.0,0.0,0.0,0.0,0.0,0.0,-1.8744,0.0,0.0,0.0,0.0,0.0,0.0,0.0,0.0,-2.1551,-2.2646,-2.3412,-2.3412,-2.3404,0.0,-2.2755,-2.1738,0.0,0.0,0.0,0.0,0.0,0.0,0.0,0.0,-2.0734,-2.0346,-2.3052,-2.4549,-2.4631,-2.4689,-2.4818,-2.4949,-2.5196,-2.4902,-2.4007,-2.2321,-2.0859,0.0,0.0,0.0,0.0,0.0,0.0,0.0,0.0,0.0,0.0,0.0,0.0,0.0,0.0,0.0,0.0,0.0,0.0,0.0,0.0,0.0,0.0,0.0,-0.8487,0.0,0.0,0.0,0.0,0.0,0.0,0.0,0.0,0.0,-0.4505,-0.4203,-0.4306,-0.4976,-0.4608,-0.4144,-0.3716,0.0,0.0,0.0,0.0,0.0,0.0,0.0,-1.0638,-1.15,-0.9922,-0.726,-0.3314,-0.6806,-0.9863,-0.8751,0.0,0.0,-0.6159,-0.3742,-0.1748,-0.0667,-0.0492,-0.0488,-0.0431,-0.0261,-0.0087,0.0,0.0,0.0,0.0,0.0,0.0,0.0,0.0,-2.04,-1.9943,0.0,-2.0064,0.0,0.0,0.0,0.0,0.0,-2.0371,0.0,0.0,-2.4026,-2.4861,-2.4145,-2.4111,-2.4146,-2.4061,-2.246,-2.2074,-2.2759,-2.1874,0.0,0.0,0.0,0.0,0.0,0.0,-2.1117,-2.1116,-2.3288,-2.4474,-2.4528,-2.4543,-2.4651,-2.4883,-2.5226,-2.5441,-2.5508,-2.4014,-2.3101,-2.2933,-1.9862,0.0,0.0,0.0,0.0,0.0,0.0,0.0,0.0,0.0,0.0,0.0,0.0,0.0,0.0,0.0,0.0,0.0,0.0,0.0,0.0,-1.1849,0.0,0.0,0.0,0.0,0.0,0.0,0.0,0.0,0.0,0.0,-0.6297,-0.5447,-0.5199,-0.6073,0.0,0.0,0.0,0.0,-1.1652,-1.0166,-1.2826,-1.4507,-1.3218,-1.3702,-1.2641,-0.8103,0.0,0.0,-0.4278,-0.8949,-1.1825,-0.8955,-0.8359,-0.8342,-0.7579,-0.6495,-0.5047,-0.2415,-0.1786,-0.1811,-0.1764,-0.1447,-0.1096,-1.9313,0.0,0.0,0.0,0.0,-1.8547,-1.9452,-2.1293,-2.0682,-2.0264,-2.0083,-2.0318,0.0,0.0,0.0,0.0,0.0,0.0,-2.0133,-2.0759,-2.2086,-2.2875,-2.3187,-2.3207,-2.3191,-2.3165,-2.27,-2.2577,-2.2819,-2.2534,-2.1842,-2.0789,0.0,0.0,0.0,0.0,-2.214,-2.2147,-2.3159,-2.4088,-2.4851,-2.408,-2.4057,-2.4883,-2.5088,-2.5283,-2.5467,-2.5079,-2.4304,-2.3049,-2.2062,0.0,0.0,0.0,0.0,0.0,0.0,0.0,0.0,0.0,0.0,0.0,0.0,0.0,0.0,0.0,0.0,0.0,0.0,0.0,-0.8905,-0.9902,-0.9689,0.0,0.0,0.0,0.0,0.0,0.0,0.0,0.0,0.0,-1.0001,-0.8278,-0.7305,0.0,0.0,-0.716,-0.6816,-0.9842,-1.1768,-1.0734,0.0,0.0,0.0,-1.4741,-1.5211,-1.4339,-1.2727,-1.0952,-0.9421,-0.8412,-0.745,-0.6536,-0.5663,-0.498,-0.4811,-0.4492,-0.3774,-0.268,-0.2432,-0.2459,-0.2503,-0.2558,-0.2452,-2.2049,-2.0349,-1.9638,-2.0064,-2.1125,-2.0626,-2.126,-2.2643,-2.212,-2.1518,-2.0953,-2.1248,-2.0272,-1.8371,-1.8358,0.0,0.0,0.0,-2.0521,-2.1304,-2.1837,-2.2342,-2.278,-2.2799,-2.2983,-2.3293,-2.3321,-2.3466,-2.3774,-2.3475,-2.3088,-2.2546,0.0,0.0,-2.0296,-2.1464,-2.2064,-2.2037,-2.2665,-2.3304,-2.3948,-2.363,-2.3809,-2.448,-2.4889,-2.5205,-2.543,-2.543,-2.4962,-2.395,-2.3234,-2.1895,0.0,0.0,0.0,0.0,0.0,0.0,0.0,0.0,0.0,0.0,0.0,-1.5248,0.0,0.0,0.0,0.0,-1.1887,-1.0396,-0.936,-1.017,0.0,0.0,0.0,0.0,0.0,0.0,0.0,-1.0212,-1.1564,-1.2617,-1.2877,-1.1631,-1.0642,-1.057,-1.0184,-0.975,-0.9243,0.0,-1.2427,-1.1096,-1.3557,-1.5382,-1.4837,-1.4872,-1.4892,-1.4492,-1.3134,-1.1697,-1.0715,-0.8684,-0.7333,-0.7241,-0.6835,-0.6374,-0.6312,-0.5931,-0.4946,-0.3508,-0.3183,-0.3214,-0.3255,-0.3463,-0.3439,-2.5158,-2.4362,-2.2771,-2.2881,-2.4065,-2.4103,-2.4076,-2.4088,-2.4006,-2.3168,-2.1868,-2.2581,-2.1591,-1.941,-1.94,0.0,-2.0534,-2.1311,-2.2088,-2.2789,-2.2791,-2.2793,-2.2793,-2.2793,-2.3216,-2.3995,-2.3995,-2.4379,-2.5014,-2.4408,-2.4061,-2.3965,-2.2538,-2.1355,-2.0581,-2.1119,-2.1445,-2.1519,-2.2133,-2.247,-2.2502,-2.336,-2.3845,-2.3902,-2.4675,-2.5175,-2.5343,-2.5274,-2.5215,-2.5234,-2.3707,-2.2738,-2.2508,0.0,0.0,0.0,0.0,0.0,0.0,0.0,0.0,0.0,0.0,0.0,0.0,0.0,0.0,0.0,-1.4336,0.0,-1.178,-1.2056,0.0,0.0,0.0,-1.1945,-1.2905,-1.3039,-1.3276,-1.3799,0.0,0.0,-1.51,0.0,-1.4533,-1.3772,-1.3525,-1.2828,-1.1185,-1.283,-1.3506,-1.1815,-1.3862,-1.5676,-1.5617,-1.4719,-1.3448,-1.1778,-1.0591,-1.0643,-1.0066,-1.0003,-1.015,-1.0263,-1.053,-1.0617,-1.0613,-0.9788,-0.8307,-0.5346,-0.4426,-0.4168,-0.4106,-0.411,-0.4158,-2.719,-2.6988,-2.6563,-2.5192,-2.3223,-2.3215,-2.3179,-2.3133,-2.3179,-2.2975,-2.2624,-2.2821,-2.257,-2.1994,-2.1941,-2.203,-2.2227,-2.2423,-2.2598,-2.2782,-2.2802,-2.2793,-2.2793,-2.2793,-2.2917,-2.3101,-2.3109,-2.3216,-2.3408,-2.386,-2.3771,-2.3215,-2.3396,-2.3052,-2.2238,-2.2365,-2.2761,-2.3428,-2.2853,-2.2825,-2.3379,-2.4295,-2.4434,-2.3764,-2.4633,-2.4845,-2.4322,-2.4887,-2.5203,-2.5205,-2.4713,-2.3854,-2.2579,-2.0613,0.0,0.0,0.0,0.0,0.0,0.0,0.0,0.0,0.0,-1.5049,-1.3329,0.0,-1.5,0.0,-1.5155,-1.543,-1.4378,-1.4978,0.0,0.0,-1.3158,-1.3216,-1.4055,-1.4903,-1.5345,-1.5222,-1.6241,-1.695,-1.6912,-1.6421,-1.63,-1.6808,-1.5436,-1.4113,-1.3502,-1.4328,-1.49,-1.4456,-1.5186,-1.5935,-1.6039,-1.5954,-1.5446,-1.4374,-1.4137,-1.3703,-1.2378,-1.2086,-1.2095,-1.197,-1.1933,-1.2088,-1.2441,-1.2256,-1.1818,-1.0607,-0.7992,-0.5382,-0.4956,-0.5062,-0.5058,-2.8828,-2.8452,-2.8068,-2.6805,-2.5117,-2.5117,-2.4692,-2.3978,-2.4009,-2.3593,-2.2887,-2.2898,-2.289,-2.289,-2.2816,-2.2789,-2.2789,-2.2791,-2.2793,-2.2793,-2.2793,-2.2793,-2.2793,-2.2793,-2.3013,-2.3379,-2.3379,-2.3571,-2.3928,-2.4409,-2.4408,-2.3981,-2.4405,-2.4414,-2.3948,-2.3234,-2.312,-2.3589,-2.3036,-2.2901,-2.3307,-2.4203,-2.4041,-2.2851,-2.359,-2.3506,-2.2387,-2.27,-2.292,-2.2959,-2.2857,-2.2342,-2.1412,-1.9869,-1.8542,0.0,0.0,0.0,0.0,0.0,0.0,0.0,0.0,0.0,0.0,0.0,-1.6553,0.0,-1.7028,0.0,-1.5769,-1.6617,-1.6901,-1.5953,-1.6024,-1.6385,-1.7101,-1.7715,-1.8017,-1.7811,-1.8223,-1.8431,-1.8256,-1.7712,-1.7394,-1.7747,-1.697,-1.6166,-1.5683,-1.595,-1.6216,-1.6275,-1.6465,-1.676,-1.7073,-1.7514,-1.7476,-1.661,-1.6319,-1.5907,-1.4851,-1.4675,-1.4732,-1.4712,-1.4766,-1.4911,-1.5157,-1.4893,-1.4522,-1.3615,-1.1648,-0.9442,-0.8165,-0.7541,-0.6977,-3.0392,-2.962,-2.8867,-2.8482,-2.8396,-2.8396,-2.7364,-2.5702,-2.5704,-2.4904,-2.3531,-2.3427,-2.3361,-2.3372,-2.3201,-2.3108,-2.3116,-2.3129,-2.312,-2.312,-2.312,-2.312,-2.312,-2.312,-2.3514,-2.4245,-2.4264,-2.4601,-2.5293,-2.5399,-2.5409,-2.5322,-2.5438,-2.5456,-2.5343,-2.4018,-2.3333,-2.3327,-2.3371,-2.335,-2.3311,-2.382,-2.3317,-2.1748,-2.2233,-2.1902,-2.0469,-2.0257,-2.0304,-2.0504,-2.0307,-2.0249,-2.0389,-1.8812,-1.7946,0.0,-1.6557,0.0,0.0,0.0,0.0,0.0,0.0,0.0,0.0,-1.8853,-1.8253,-1.7489,-1.9034,-1.9218,-1.6995,-1.7938,-1.8682,-1.8693,-1.929,-1.9913,-2.0489,-2.0398,-2.0283,-2.0299,-1.958,-1.9115,-1.9054,-1.864,-1.8098,-1.788,-1.828,-1.8372,-1.791,-1.765,-1.7606,-1.7818,-1.7926,-1.8439,-1.8781,-1.92,-1.9163,-1.8273,-1.7932,-1.7629,-1.7098,-1.7166,-1.7413,-1.7612,-1.7791,-1.8086,-1.8289,-1.7689,-1.6915,-1.6103,-1.5368,-1.4224,-1.1997,-1.0573,-0.9665,-3.2389,-3.2204,-3.2085,-3.1634,-3.0987,-3.0979,-2.9631,-2.7441,-2.7431,-2.7257,-2.691,-2.6198,-2.5909,-2.5842,-2.5139,-2.4832,-2.4832,-2.4832,-2.4832,-2.4841,-2.4832,-2.4822,-2.4822,-2.4832,-2.4918,-2.5053,-2.5082,-2.513,-2.5303,-2.6024,-2.6015,-2.5423,-2.608,-2.6133,-2.5498,0.0,0.0,0.0,-2.565,-2.5972,-2.5925,-2.4795,-2.3378,-2.1746,-2.1771,0.0,-2.0489,-2.0881,-2.1477,-2.2158,-2.1426,0.0,0.0,0.0,0.0,0.0,0.0,0.0,0.0,0.0,0.0,0.0,-1.9306,-1.9193,-1.9164,-1.8399,-1.8376,-1.9549,-1.9301,-1.9496,-2.0472,-2.064,-2.0711,-2.0708,-2.0667,-2.0703,-2.0797,-2.0175,-1.9668,-1.9653,-1.906,-1.8641,-1.8718,-1.8562,-1.8778,-1.9307,-1.962,-2.0029,-2.0507,-1.975,-1.9107,-1.9085,-2.0159,-2.0958,-2.0591,-2.0623,-2.0766,-2.04,-2.0033,-1.9531,-1.8973,-1.8845,-1.8864,-1.8879,-1.9258,-1.981,-2.0307,-2.0358,-1.9875,-1.9497,-1.9421,-1.8164,-1.3784,-1.2761,-1.2772,-3.3308,0.0,-3.2916,-3.2728,0.0,-3.2324,-3.1565,-3.0344,-2.9079,-2.8298,-2.7874,-2.7422,-2.7229,-2.7228,-2.6775,-2.6583,-2.6573,-2.6582,-2.6582,-2.6563,-2.614,-2.5937,-2.5918,-2.5505,-2.5313,-2.5313,-2.5313,-2.5313,-2.5322,-2.5745,-2.5755,-2.5369,-2.5812,-2.6023,-2.6058,-2.6464,-2.6492,-2.6102,-2.6898,-2.7296,-2.7258,-2.6457,-2.5219,-2.3605,0.0,0.0,0.0,0.0,0.0,0.0,0.0,0.0,0.0,0.0,0.0,-2.1499,-2.0439,-2.007,-2.0666,-2.0711,-2.1004,-2.1719,-2.1675,-2.1294,-2.0505,-2.0572,-2.1026,-2.1869,-2.1406,-2.1451,-2.2365,-2.2303,-2.2096,-2.182,-2.1299,-2.0961,-2.099,-2.0352,-1.9988,-2.0273,-1.9796,-1.9524,-1.9891,-1.9603,-1.9819,-2.06,-2.1098,-2.1631,-2.2183,-2.1327,-2.056,-2.0842,-2.2202,-2.2985,-2.2422,-2.2601,-2.265,-2.241,-2.2166,-2.1859,-2.1453,-2.1388,-2.1292,-2.0875,-2.0982,-2.1225,-2.1007,-2.1039,-2.0943,-2.0651,-2.0749,-2.0282,-1.7436,-1.6139,-1.533,-3.4007,-3.3372,-3.3372,-3.3308,-3.3198,-3.3173,-3.307,-3.2829,0.0,0.0,0.0,-2.8203,-2.8106,-2.8096,-2.797,-2.7902,-2.7902,-2.7901,-2.789,-2.7871,-2.7159,-2.6832,-2.6794,-2.6101,-2.5687,-2.5543,-2.5514,-2.5437,-2.5313,-2.5313,-2.5313,-2.5313,-2.5313,-2.5659,-2.639,-2.7236,-2.7344,-2.6774,-2.7498,-2.7894,-2.7892,-2.7757,-2.6969,-2.5416,-2.5262,-2.4519,-2.3172,-2.3103,-2.3199,-2.3346,-2.3149,-2.3163,-2.3388,-2.2602,-2.2183,-2.2243,-2.1616,-2.1695,-2.2699,-2.2547,-2.2885,-2.3963,-2.3871,-2.3288,-2.21,-2.3027,-2.3656,-2.3674,-2.3458,-2.3342,-2.336,-2.3175,-2.2867,-2.2405,-2.1725,-2.1368,-2.1467,-2.0825,-2.0597,-2.1057,-2.0668,-2.057,-2.1045,-2.0915,-2.0994,-2.1868,-2.2556,-2.3178,-2.357,-2.2965,-2.2508,-2.3059,-2.4,-2.4506,-2.4221,-2.4435,-2.4683,-2.4127,-2.4016,-2.3966,-2.3798,-2.37,-2.339,-2.2687,-2.2704,-2.2411,-2.1827,-2.1664,-2.1375,-2.1167,-2.123,-2.1337,-2.1101,-1.9587,-1.8151,-3.5238,-3.5141,-3.5128,-3.4718,-3.4039,-3.402,-3.3596,-3.2846,-3.1796,-3.0871,-3.0025,-2.9308,-2.8981,-2.8901,-2.8228,-2.7901,-2.7901,-2.7901,-2.789,0.0,-2.7775,-2.7717,-2.7698,-2.7582,-2.714,-2.6467,-2.6428,-2.6024,-2.537,-2.5303,-2.5313,-2.5313,-2.5313,-2.536,-2.5543,-2.6351,-2.6727,-2.6641,-2.747,-2.7894,-2.7875,-2.7228,-2.6378,-2.5359,-2.4703,-2.4191,-2.3959,-2.3975,-2.427,-2.4981,-2.4382,-2.4568,-2.5759,-2.5064,-2.5151,-2.6313,-2.6115,-2.6019,-2.6134,-2.5393,-2.4667,-2.413,-2.4054,-2.3803,-2.3325,-2.3419,-2.3539,-2.3539,-2.3365,-2.323,-2.3188,-2.3025,-2.2865,-2.2729,-2.2514,-2.2382,-2.2378,-2.1586,-2.108,-2.1221,-2.0788,-2.0673,-2.1039,-2.1673,-2.2459,-2.3326,-2.3852,-2.451,-2.4643,-2.5064,-2.5134,-2.5228,-2.5497,-2.5721,-2.565,-2.587,-2.5801,-2.5711,-2.5259,-2.4895,-2.455,-2.4244,-2.3984,-2.3802,-2.3802,-2.3799,-2.379,-2.3463,-2.2976,-2.2704,-2.2458,-2.2173,-2.1978,-2.1543,-2.1424,-3.5507,-3.5507,-3.5507,-3.5295,-3.4911,-3.4911,-3.441,-3.3583,-3.3205,-3.23,-3.1121,-3.071,-3.0267,-2.9794,-2.9429,-2.9256,-2.9256,-2.9256,-2.9256,-2.9217,-2.8756,-2.8544,-2.8525,-2.8102,-2.7698,-2.7313,-2.7313,-2.6851,-2.6053,-2.6005,-2.5745,-2.5322,-2.5313,-2.5313,-2.5332,-2.5697,-2.5909,-2.5928,-2.7219,-2.8096,-2.8538,-2.8183,-2.8,-2.8056,-2.768,-2.7458,-2.7467,-2.7467,-2.767,-2.8046,-2.7719,-2.7811,-2.8433,-2.7699,-2.7478,-2.7983,-2.7439,-2.7006,-2.6916,-2.6331,-2.5816,-2.5408,-2.5312,-2.5226,-2.5028,-2.4145,-2.3616,-2.3598,-2.3526,-2.3481,-2.3481,-2.3353,-2.3224,-2.3093,-2.2656,-2.2429,-2.2617,-2.2315,-2.2063,-2.232,-2.255,-2.2762,-2.3023,-2.3193,-2.3638,-2.4431,-2.468,-2.4614,-2.463,-2.5063,-2.5376,-2.5417,-2.5839,-2.6177,-2.6243,-2.6347,-2.6382,-2.6312,-2.6167,-2.5915,-2.5692,-2.5412,-2.518,-2.483,-2.4812,-2.4693,-2.4582,-2.4177,-2.3958,-2.384,-2.3393,-2.2965,-2.2835,-2.2694,-2.2515,-3.5507,-3.5507,-3.5507,-3.5507,-3.5507,-3.5507,-3.5103,-3.4507,-3.4487,-3.366,-3.2352,-3.2064,-3.1602,-3.1006,-3.0968,-3.0968,-3.0968,-3.0968,-3.0968,-3.0871,-3.0083,-2.9679,-2.9602,-2.8852,-2.8371,-2.8198,-2.8159,-2.7736,-2.6986,-2.689,-2.6467,-2.5659,-2.5399,-2.5313,-2.5313,-2.5313,-2.5313,-2.539,-2.6621,-2.7698,-2.8494,-2.886,-2.9417,-3.0021,-3.0208,-3.0292,-3.0304,-3.0305,-3.0312,-3.0305,-3.0312,-3.0312,-3.0273,-2.9679,-2.9212,-2.9008,-2.825,-2.7565,-2.7138,-2.6917,-2.6691,-2.6447,-2.6407,-2.6362,-2.6253,-2.5129,-2.4299,-2.4295,-2.4338,-2.4298,-2.4316,-2.4298,-2.4181,-2.3937,-2.344,-2.3348,-2.3527,-2.3508,-2.3589,-2.4016,-2.4384,-2.472,-2.494,-2.4609,-2.4458,-2.4825,-2.4721,-2.4368,-2.4089,-2.4418,-2.4723,-2.4862,-2.5514,-2.5983,-2.5949,-2.5933,-2.6017,-2.6101,-2.6067,-2.5983,-2.6034,-2.6235,-2.6253,-2.5715,-2.5681,-2.558,-2.5088,-2.4816,-2.4763,-2.4771,-2.4305,-2.3794,-2.3743,-2.3272,-2.2784,-3.5512,-3.5507,-3.5526,-3.5507,-3.5507,-3.5507,-3.543,-3.5372,-3.5372,-3.4872,-3.3891,-3.3141,-3.2756,-3.2679,-3.2602,-3.2583,-3.2583,-3.266,-3.2622,-3.2506,-3.1833,-3.1468,-3.1352,-3.0564,-2.9775,-2.9102,-2.9025,-2.8621,-2.7813,-2.7755,-2.7332,-2.6467,-2.5687,-2.5332,-2.5332,-2.5303,-2.5313,-2.5313,-2.5437,-2.5927,-2.6779,-2.8307,-2.9121,-2.9142,-2.989,-3.0318,-3.0247,-3.0305,-3.0305,-3.0311,-3.0305,-3.0312,-3.0292,-3.0216,-3.0164,-3.01,-2.9693,-2.897,-2.7859,-2.7717,-2.7383,-2.6664,-2.6643,-2.6643,-2.6625,-2.6399,-2.6144,-2.6014,-2.5945,-2.5855,-2.5945,-2.5891,-2.5801,-2.5682,-2.5646,-2.5827,-2.5703,-2.5817,-2.5805,-2.5835,-2.5385,-2.5312,-2.5296,-2.4959,-2.4734,-2.4543,-2.4411,-2.4079,-2.3472,-2.3573,-2.3739,-2.3664,-2.436,-2.4961,-2.4818,-2.465,-2.4867,-2.4755,-2.4671,-2.4974,-2.5329,-2.558,-2.5681,-2.5849,-2.6253,-2.6201,-2.6266,-2.6129,-2.5601,-2.5644,-2.5197,-2.4582,-2.453,-2.4018,-2.3453,-3.593,-3.5551,-3.6007,-3.593,-3.5526,-3.5507,-3.5507,-3.5507,-3.5507,-3.5295,-3.4949,-3.4603,-3.3872,-3.291,-3.2891,-3.2891,-3.2891,-3.2891,-3.2891,-3.2872,-3.2545,-3.241,-3.2372,-3.2064,-3.1448,-3.0698,-3.0641,-2.9948,-2.8736,-2.8151,-2.7717,-2.7313,-2.6505,-2.6082,-2.6024,-2.5563,-2.5313,-2.5313,-2.5313,-2.5476,-2.5878,-2.6984,-2.7849,-2.8318,-2.866,-2.907,-2.9524,-2.9557,-2.9756,-3.0248,-3.0279,-3.0234,-3.0234,-3.024,-3.0245,-3.0213,-2.9853,-2.9305,-2.8562,-2.8503,-2.8374,-2.8044,-2.7981,-2.794,-2.7981,-2.7894,-2.7825,-2.7645,-2.6881,-2.6318,-2.6354,-2.6295,-2.6272,-2.625,-2.6227,-2.6204,-2.6186,-2.6105,-2.5985,-2.5825,-2.5561,-2.5331,-2.5125,-2.4721,-2.4205,-2.3732,-2.3601,-2.3498,-2.3062,-2.3072,-2.3072,-2.3062,-2.3457,-2.3908,-2.4225,-2.4461,-2.4475,-2.4444,-2.4461,-2.4633,-2.4719,-2.4837,-2.5036,-2.5374,-2.549,-2.5742,-2.5963,-2.6027,-2.5805,-2.6036,-2.6007,-2.5373,-2.4957,-2.4643,-2.4339,-3.6738,-3.6315,-3.6834,-3.6603,-3.5834,-3.5815,-3.5699,-3.5493,-3.5507,-3.5507,-3.5507,-3.5507,-3.4814,-3.3737,-3.3622,-3.3603,-3.3622,-3.3603,-3.3622,-3.3583,-3.3372,-3.3237,-3.3237,-3.2987,-3.2583,-3.2102,-3.2006,-3.1256,-2.9813,-2.8698,-2.8236,-2.8082,-2.7371,-2.6832,-2.6563,-2.5947,-2.5514,-2.5322,-2.5303,-2.5293,-2.5389,-2.5889,-2.6638,-2.7456,-2.7704,-2.8115,-2.8699,-2.8694,-2.895,-2.9551,-2.9755,-2.9863,-2.9849,-3.0065,-3.0157,-3.0034,-2.9769,-2.9415,-2.9021,-2.8975,-2.8975,-2.8994,-2.8952,-2.8947,-2.8929,-2.8881,-2.8876,-2.8724,-2.7798,-2.7141,-2.7036,-2.6995,-2.6858,-2.6636,-2.6553,-2.6493,-2.6217,-2.611,-2.5997,-2.579,-2.5483,-2.5093,-2.4716,-2.4249,-2.3746,-2.3249,-2.3151,-2.3239,-2.3252,-2.3298,-2.3272,-2.3525,-2.3746,-2.386,-2.3956,-2.3782,-2.3913,-2.3883,-2.3782,-2.3833,-2.4133,-2.4201,-2.4421,-2.4777,-2.4588,-2.4703,-2.5261,-2.5431,-2.5751,-2.626,-2.6302,-2.5997,-2.5837,-2.5505,-2.5374,-3.7911,-3.7873,-3.7911,-3.7425,-3.6661,-3.6642,-3.6219,-3.5611,-3.5559,-3.5526,-3.5501,-3.5501,-3.5449,-3.5295,-3.5213,-3.5334,-3.5334,-3.5257,-3.5238,-3.5141,-3.4487,-3.4141,-3.4083,-3.3314,-3.291,-3.2872,-3.2852,-3.2391,-3.1448,-2.989,-2.9044,-2.9025,-2.8255,-2.7448,-2.6832,-2.6621,-2.614,-2.5476,-2.5398,-2.5311,-2.5292,-2.529,-2.5751,-2.6617,-2.7358,-2.772,-2.785,-2.7862,-2.7869,-2.786,-2.8632,-2.904,-2.902,-2.9707,-2.9935,-2.9622,-2.9551,-2.9379,-2.8997,-2.887,-2.8828,-2.8883,-2.8773,-2.892,-2.8755,-2.8755,-2.8732,-2.892,-2.8608,-2.8448,-2.8306,-2.8136,-2.7949,-2.7278,-2.7254,-2.691,-2.6294,-2.6113,-2.6162,-2.5977,-2.5371,-2.4712,-2.4017,-2.3825,-2.3858,-2.3664,-2.3489,-2.3738,-2.4396,-2.4329,-2.4593,-2.5262,-2.5693,-2.562,-2.3419,-2.371,-2.33,-2.3437,-2.412,-2.3163,-2.3236,-2.357,-2.4058,-2.4364,-2.4547,-2.4662,-2.4739,-2.5009,-2.5483,-2.5956,-2.6389,-2.6342,-2.6628,-2.642,-2.6276,-3.8834,-3.8792,-3.8273,-3.7868,-3.7617,-3.7617,-3.7162,-3.6492,-3.6454,-3.6144,-3.5688,-3.563,-3.5607,-3.5558,-3.5618,-3.5581,-3.5488,-3.5507,-3.5507,-3.5468,-3.518,-3.5026,-3.5007,-3.4699,-3.4237,-3.3795,-3.3737,-3.3276,-3.2449,-3.1295,-3.0775,-3.0506,-2.9333,-2.8467,-2.8159,-2.7678,-2.7005,-2.6206,-2.6139,-2.5868,-2.5369,-2.525,-2.5382,-2.568,-2.597,-2.6403,-2.6937,-2.6949,-2.7217,-2.775,-2.8032,-2.8154,-2.8179,-2.8421,-2.8484,-2.8234,-2.8064,-2.7979,-2.7931,-2.7653,-2.7325,-2.7006,-2.7288,-2.753,-2.7475,-2.7457,-2.7475,-2.7493,-2.7493,-2.7409,-2.7415,-2.7739,-2.7739,-2.7,-2.6772,-2.664,-2.6295,-2.5899,-2.5532,-2.5383,-2.4759,-2.4124,-2.4218,-2.4287,-2.4733,-2.5253,-2.5636,-2.6159,-2.6835,-2.7007,-2.7061,-2.7341,-2.7601,-2.7469,-2.6615,-2.6068,-2.5889,-2.582,-2.5912,-2.5799,-2.5794,-2.5081,-2.5323,-2.5295,-2.5227,-2.4974,-2.512,-2.5609,-2.5962,-2.6561,-2.6911,-2.6923,-2.7495,-2.7175,-2.7081,-3.9779,-3.9696,-3.9201,-3.8808,-3.8576,-3.8576,-3.8132,-3.7458,-3.742,-3.6934,-3.6226,-3.611,-3.5959,-3.5679,-3.5668,-3.565,-3.5558,-3.554,-3.5528,-3.5507,-3.5507,-3.5507,-3.5507,-3.5507,-3.5218,-3.4641,-3.4295,-3.3872,-3.3295,-3.2487,-3.2102,-3.1968,-3.0602,-2.9794,-2.9448,-2.8698,-2.7852,-2.714,-2.6754,-2.629,-2.5723,-2.5373,-2.5217,-2.5217,-2.5198,-2.5458,-2.6052,-2.6094,-2.6343,-2.6895,-2.719,-2.7426,-2.7663,-2.7714,-2.7616,-2.7422,-2.7296,-2.7151,-2.7121,-2.6853,-2.6284,-2.5439,-2.6109,-2.6612,-2.6612,-2.6612,-2.6612,-2.6612,-2.6612,-2.6573,-2.6603,-2.7002,-2.6962,-2.6246,-2.5998,-2.5827,-2.5612,-2.5321,-2.5277,-2.5451,-2.5393,-2.5103,-2.5107,-2.5756,-2.6385,-2.6993,-2.7489,-2.8087,-2.8793,-2.9018,-2.9214,-2.9381,-2.9636,-2.9773,-2.9593,-2.9456,-2.805,-2.7759,-2.752,-2.7669,-2.7687,-2.6916,-2.6464,-2.632,-2.601,-2.5652,-2.5721,-2.623,-2.6765,-2.7355,-2.73,-2.7169,-2.7558,-2.784,-2.7752,-4.0762,-4.0714,-4.0771,-4.0228,-3.9654,-3.9615,-3.9118,-3.8405,-3.8327,-3.7841,-3.7102,-3.7028,-3.6639,-3.5974,-3.5939,-3.5779,-3.5784,-3.5698,-3.557,-3.5515,-3.552,-3.5488,-3.5507,-3.5507,-3.5488,-3.5353,-3.4622,-3.4237,-3.416,-3.3372,-3.291,-3.2776,-3.2045,-3.1198,-3.0436,-2.9737,-2.8871,-2.8179,-2.7503,-2.6916,-2.6559,-2.6044,-2.5677,-2.5505,-2.5501,-2.5528,-2.5432,-2.5324,-2.5343,-2.5432,-2.6075,-2.6859,-2.7389,-2.7472,-2.7502,-2.7243,-2.7275,-2.7046,-2.6637,-2.6618,-2.5924,-2.5061,-2.5777,-2.6612,-2.6612,-2.6612,-2.6612,-2.6612,-2.6612,-2.6573,-2.6512,-2.6582,-2.6304,-2.54,-2.535,-2.5074,-2.4511,-2.469,-2.5353,-2.6186,-2.6765,-2.7327,-2.7526,-2.7852,-2.8359,-2.8576,-2.883,-2.9246,-3.0025,-3.0277,-3.035,-3.1002,-3.1483,-3.171,-3.232,-3.2721,-3.082,-2.9319,-2.8945,-2.8818,-2.9018,-2.8587,-2.8408,-2.8228,-2.7367,-2.697,-2.6586,-2.6976,-2.6866,-2.7245,-2.721,-2.7549,-2.787,-2.8192,-2.8219,-4.0882,-4.082,-4.0898,-4.0804,-4.057,-4.057,-4.0091,-3.9375,-3.9336,-3.8868,-3.8205,-3.8107,-3.7893,-3.75,-3.7049,-3.6715,-3.6545,-3.6075,-3.5726,-3.5623,-3.5589,-3.556,-3.552,-3.5488,-3.5507,-3.5468,-3.5238,-3.5084,-3.4911,-3.4218,-3.3795,-3.3622,-3.2949,-3.2429,-3.2102,-3.1814,-3.1314,-3.0583,-3.0213,-2.9798,-2.9267,-2.8867,-2.8413,-2.7884,-2.7826,-2.7585,-2.6991,-2.5838,-2.5241,-2.5249,-2.544,-2.5726,-2.5956,-2.5994,-2.5932,-2.5882,-2.5753,-2.5632,-2.5536,-2.5795,-2.5838,-2.5446,-2.6105,-2.6539,-2.6612,-2.6612,-2.6612,-2.6612,-2.6612,-2.6591,-2.6573,-2.653,-2.6337,-2.5627,-2.579,-2.5732,-2.5419,-2.6073,-2.6993,-2.7755,-2.813,-2.8232,-2.842,-2.9018,-2.9761,-3.0295,-3.0686,-3.1274,-3.1991,-3.2083,-3.2429,-3.2811,-3.3204,-3.3177,-3.3287,-3.3342,-3.242,-3.1291,-3.0862,-3.0507,-3.0557,-3.0481,-3.0332,-2.9816,-2.8976,-2.8362,-2.7954,-2.7654,-2.7603,-2.7689,-2.8106,-2.8337,-2.8515,-2.8525,-2.85,-4.0986,-4.0935,-4.0992,-4.1028,-4.1028,-4.1028,-4.0773,-4.0327,-4.0268,-3.9819,-3.9156,-3.9039,-3.8814,-3.8448,-3.7998,-3.7726,-3.7533,-3.7099,-3.6806,-3.65,-3.5815,-3.5607,-3.5547,-3.5501,-3.5507,-3.5507,-3.5488,-3.5507,-3.5468,-3.4968,-3.468,-3.4526,-3.3814,-3.3372,-3.3314,-3.3045,-3.2602,-3.216,-3.1763,-3.1385,-3.0912,-3.0535,-3.0068,-2.9589,-2.948,-2.9231,-2.8694,-2.7642,-2.6795,-2.6274,-2.6128,-2.6128,-2.6128,-2.6173,-2.6116,-2.6104,-2.6015,-2.5918,-2.5717,-2.6123,-2.6388,-2.6561,-2.6654,-2.672,-2.6718,-2.6677,-2.6612,-2.6612,-2.6906,-2.7141,-2.7431,-2.7738,-2.7689,-2.7554,-2.7068,-2.7,-2.7136,-2.79,-2.8718,-2.9428,-2.9893,-2.9984,-3.0202,-3.0729,-3.1383,-3.201,-3.2391,-3.2762,-3.3325,-3.3419,-3.3502,-3.353,-3.3552,-3.357,-3.3698,-3.3734,-3.3762,-3.3351,-3.2993,-3.27,-3.2552,-3.2256,-3.2007,-3.1314,-3.0492,-3.0073,-2.9643,-2.9017,-2.8756,-2.8956,-2.8919,-2.8804,-2.8767,-2.8694,-2.8694,-4.1108,-4.1108,-4.1108,-4.1088,-4.1085,-4.1104,-4.1069,-4.1069,-4.1049,-4.0581,-3.9976,-3.9878,-3.9507,-3.8902,-3.8765,-3.8645,-3.8609,-3.8411,-3.8257,-3.7798,-3.6851,-3.6045,-3.585,-3.5777,-3.5689,-3.5534,-3.5515,-3.552,-3.5507,-3.5411,-3.5507,-3.5295,-3.4661,-3.4276,-3.416,-3.3468,-3.3218,-3.3122,-3.2468,-3.216,-3.2032,-3.1347,-3.0835,-3.0777,-3.0733,-3.0644,-3.0433,-3.0241,-2.9449,-2.8032,-2.7574,-2.7466,-2.7606,-2.7682,-2.7529,-2.7472,-2.7625,-2.7273,-2.7025,-2.7161,-2.7551,-2.7888,-2.7549,-2.7121,-2.7437,-2.7524,-2.7474,-2.7524,-2.7945,-2.8433,-2.9062,-2.9551,-3.0051,-3.0279,-2.912,-2.8815,-2.9849,-3.0104,-3.0505,-3.1217,-3.1946,-3.2402,-3.2238,-3.2876,-3.3222,-3.3358,-3.3385,-3.3429,-3.3465,-3.353,-3.3512,-3.3569,-3.368,-3.3707,-3.378,-3.378,-3.3807,-3.3734,-3.3652,-3.3643,-3.3615,-3.3367,-3.3182,-3.2524,-3.1931,-3.1552,-3.1138,-3.0414,-2.9857,-2.971,-2.9533,-2.9177,-2.8952,-2.8858,-2.8863,-4.1108,-4.1108,-4.1108,-4.1108,-4.1108,-4.1108,-4.1108,-4.1108,-4.1108,-4.0952,-4.0756,-4.0756,-4.0581,-4.0385,-3.9741,-3.9488,-3.937,-3.8902,-3.8609,-3.8498,-3.814,-3.7338,-3.677,-3.66,-3.622,-3.5709,-3.5647,-3.554,-3.5488,-3.5488,-3.5507,-3.5507,-3.5257,-3.5122,-3.5103,-3.4853,-3.4834,-3.4814,-3.4622,-3.441,-3.4353,-3.4166,-3.382,-3.3244,-3.3128,-3.2808,-3.2308,-3.2205,-3.1066,-2.8835,-2.8013,-2.7733,-2.7975,-2.7956,-2.802,-2.8026,-2.7867,-2.7746,-2.7712,-2.8084,-2.8392,-2.8531,-2.8835,-2.9177,-2.9795,-2.9794,-2.9973,-3.0296,-3.0658,-3.0683,-3.0772,-3.0937,-3.1352,-3.1847,-3.1174,-3.1009,-3.1535,-3.1808,-3.2074,-3.2821,-3.3113,-3.3232,-3.3305,-3.3405,-3.3605,-3.3605,-3.3605,-3.3577,-3.3577,-3.3587,-3.3597,-3.3652,-3.3707,-3.3762,-3.3807,-3.3807,-3.3807,-3.3788,-3.3762,-3.3753,-3.3753,-3.3671,-3.3588,-3.336,-3.2684,-3.2265,-3.1991,-3.1521,-3.1084,-3.0595,-3.0087,-2.9719,-2.9223,-2.9012,-2.9044,-4.1108,-4.1108,-4.1108,-4.1108,-4.1108,-4.1108,-4.1108,-4.1108,-4.1108,-4.1108,-4.1108,-4.1108,-4.1108,-4.1049,-4.0561,-4.0346,-4.0268,-3.9858,-3.9686,-3.9663,-3.9644,-3.8868,-3.7897,-3.7549,-3.7063,-3.627,-3.6142,-3.5902,-3.5598,-3.5515,-3.5488,-3.5507,-3.5507,-3.5507,-3.5468,-3.5507,-3.5507,-3.5468,-3.5507,-3.5507,-3.5507,-3.5507,-3.5276,-3.4814,-3.4737,-3.4468,-3.4026,-3.3667,-3.2493,-3.0919,-3.0139,-2.9858,-2.989,-2.9883,-2.9832,-2.9858,-2.9851,-2.9876,-2.9901,-3.02,-3.0331,-3.0415,-3.0686,-3.0977,-3.1355,-3.1469,-3.1595,-3.1738,-3.2203,-3.2273,-3.2175,-3.2268,-3.2596,-3.2936,-3.2918,-3.2873,-3.2985,-3.2966,-3.3186,-3.3524,-3.3671,-3.3671,-3.3671,-3.3671,-3.3671,-3.3671,-3.3689,-3.3661,-3.3643,-3.3671,-3.3698,-3.3726,-3.3734,-3.378,-3.3807,-3.3807,-3.3807,-3.3788,-3.3788,-3.3807,-3.3807,-3.3807,-3.3788,-3.366,-3.3311,-3.3018,-3.2742,-3.2474,-3.2059,-3.1489,-3.0851,-3.0226,-2.977,-2.9292,-2.9322,-4.1108,-4.1108,-4.1108,-4.1108,-4.1108,-4.1108,-4.1108,-4.1108,-4.1108,-4.1108,-4.1108,-4.1108,-4.1108,-4.1108,-4.0991,-4.1069,-4.103,-4.0873,-4.0952,-4.0893,-4.0776,-4.0095,-3.8926,-3.8559,-3.7992,-3.7214,-3.7017,-3.6482,-3.5952,-3.5682,-3.5501,-3.5488,-3.5507,-3.5507,-3.5507,-3.5507,-3.5507,-3.5507,-3.5507,-3.5507,-3.5507,-3.5507,-3.543,-3.5391,-3.5334,-3.5334,-3.5122,-3.4705,-3.3846,-3.3119,-3.2927,-3.2486,-3.2601,-3.2697,-3.2626,-3.2453,-3.2267,-3.2363,-3.2612,-3.2359,-3.2594,-3.245,-3.2311,-3.2515,-3.2517,-3.2447,-3.2468,-3.2692,-3.3086,-3.3299,-3.3227,-3.3561,-3.3674,-3.3721,-3.375,-3.377,-3.3807,-3.3807,-3.3807,-3.3807,-3.3788,-3.3807,-3.3807,-3.3807,-3.3807,-3.3753,-3.3726,-3.3726,-3.3726,-3.3726,-3.3726,-3.3726,-3.378,-3.3807,-3.3807,-3.3807,-3.3807,-3.3807,-3.3807,-3.3807,-3.3834,-3.3834,-3.3834,-3.3678,-3.3495,-3.3503,-3.3566,-3.3243,-3.2845,-3.2354,-3.1673,-3.0983,-3.0341,-2.9839,-2.968,-4.1108,-4.1108,-4.1108,-4.1108,-4.1108,-4.1108,-4.1108,-4.1108,-4.1108,-4.1108,-4.1108,-4.1108,-4.1108,-4.1108,-4.1108,-4.1108,-4.1108,-4.1108,-4.1108,-4.1108,-4.1108,-4.0971,-4.0317,-3.9794,-3.8975,-3.8163,-3.7378,-3.6914,-3.6531,-3.5963,-3.5553,-3.552,-3.5501,-3.5507,-3.5507,-3.5507,-3.5507,-3.5507,-3.5507,-3.5507,-3.5507,-3.5507,-3.5507,-3.5507,-3.5507,-3.5507,-3.5507,-3.5334,-3.5128,-3.4653,-3.3736,-3.3089,-3.3064,-3.2979,-3.3004,-3.3042,-3.2957,-3.2891,-3.2852,-3.2967,-3.2838,-3.2958,-3.2985,-3.297,-3.3624,-3.3617,-3.3804,-3.4169,-3.4453,-3.4336,-3.4145,-3.4102,-3.413,-3.4055,-3.3947,-3.3834,-3.3807,-3.3807,-3.3807,-3.3807,-3.3807,-3.3807,-3.3807,-3.3807,-3.3807,-3.3788,-3.3788,-3.378,-3.378,-3.3762,-3.378,-3.3753,-3.378,-3.3807,-3.3807,-3.3807,-3.3807,-3.3807,-3.3834,-3.3834,-3.386,-3.3887,-3.386,-3.386,-3.3797,-3.386,-3.3895,-3.3865,-3.3405,-3.2932,-3.2465,-3.1769,-3.109,-3.0535,-3.015,-4.1114,-4.1114,-4.1111,-4.1108,-4.1108,-4.1108,-4.1108,-4.1108,-4.1108,-4.1108,-4.1108,-4.1108,-4.1108,-4.1108,-4.1108,-4.1108,-4.1108,-4.1108,-4.1108,-4.1108,-4.1108,-4.1108,-4.1049,-4.06,-3.9927,-3.9087,-3.8614,-3.7936,-3.7078,-3.6522,-3.6046,-3.5572,-3.5521,-3.5522,-3.5488,-3.5488,-3.5507,-3.5507,-3.5507,-3.5507,-3.5507,-3.5507,-3.5507,-3.5507,-3.5507,-3.5507,-3.5507,-3.5488,-3.5488,-3.5262,-3.4628,-3.4095,-3.4109,-3.4076,-3.4082,-3.4101,-3.4059,-3.4031,-3.4031,-3.4002,-3.401,-3.3934,-3.3938,-3.4133,-3.4458,-3.4576,-3.468,-3.4939,-3.4999,-3.4926,-3.4694,-3.4483,-3.4348,-3.4302,-3.413,-3.3998,-3.3972,-3.3868,-3.3807,-3.3807,-3.3807,-3.3807,-3.3807,-3.3807,-3.3807,-3.3807,-3.3807,-3.3807,-3.3807,-3.3807,-3.3807,-3.3807,-3.3807,-3.3807,-3.3807,-3.3807,-3.3807,-3.3834,-3.3842,-3.386,-3.3868,-3.3913,-3.3939,-3.3913,-3.3913,-3.3939,-3.3972,-3.3935,-3.3924,-3.3561,-3.3074,-3.2469,-3.1932,-3.1473,-3.1166,-4.1099,-4.1099,-4.1114,-4.1111,-4.1108,-4.1108,-4.1108,-4.1108,-4.1108,-4.1108,-4.1108,-4.1108,-4.1108,-4.1108,-4.1108,-4.1108,-4.1108,-4.1108,-4.1108,-4.1108,-4.1108,-4.1108,-4.1069,-4.0932,-4.0659,-4.0011,-3.9618,-3.8789,-3.7877,-3.7143,-3.6539,-3.5931,-3.5629,-3.5596,-3.554,-3.5528,-3.5522,-3.5541,-3.5501,-3.5507,-3.5507,-3.5507,-3.5507,-3.5507,-3.5507,-3.5507,-3.5507,-3.5507,-3.5507,-3.5507,-3.5507,-3.5507,-3.5507,-3.5507,-3.5488,-3.5416,-3.5201,-3.511,-3.5023,-3.5128,-3.5155,-3.5312,-3.5203,-3.5149,-3.5149,-3.5095,-3.5098,-3.5117,-3.5141,-3.5107,-3.4964,-3.4733,-3.4591,-3.4508,-3.4371,-3.425,-3.4203,-3.403,-3.3972,-3.3807,-3.3807,-3.3807,-3.3807,-3.3807,-3.3807,-3.3807,-3.3807,-3.3807,-3.3807,-3.3807,-3.3834,-3.3834,-3.386,-3.3887,-3.3887,-3.3887,-3.3887,-3.3887,-3.3868,-3.3921,-3.3947,-3.3972,-3.3998,-3.3998,-3.3998,-3.4023,-3.4023,-3.4049,-3.4018,-3.3975,-3.3697,-3.3128,-3.2725,-3.2418,-3.2128,-4.1103,-4.1099,-4.1116,-4.1114,-4.1111,-4.1108,-4.1108,-4.1108,-4.1108,-4.1108,-4.1108,-4.1108,-4.1108,-4.1108,-4.1108,-4.1108,-4.1108,-4.1108,-4.1108,-4.1108,-4.1108,-4.1108,-4.1108,-4.1108,-4.0991,-4.0737,-4.0258,-3.9579,-3.8867,-3.7884,-3.7163,-3.6673,-3.6084,-3.5756,-3.565,-3.5609,-3.5574,-3.5581,-3.5547,-3.5515,-3.5501,-3.5488,-3.5507,-3.5507,-3.5507,-3.5507,-3.5507,-3.5507,-3.5507,-3.5507,-3.5507,-3.5507,-3.5507,-3.5507,-3.5507,-3.5474,-3.5427,-3.5379,-3.535,-3.5315,-3.5324,-3.5312,-3.5277,-3.5277,-3.5261,-3.5245,-3.5226,-3.5209,-3.5209,-3.5193,-3.516,-3.4945,-3.4851,-3.4773,-3.4612,-3.4483,-3.4442,-3.4353,-3.4184,-3.3921,-3.386,-3.3807,-3.3807,-3.3807,-3.3807,-3.3807,-3.3807,-3.3834,-3.3834,-3.3834,-3.3842,-3.3868,-3.3913,-3.3939,-3.3991,-3.3972,-3.3972,-3.3947,-3.3972,-3.3998,-3.4023,-3.4074,-3.4074,-3.4074,-3.4074,-3.4074,-3.4099,-3.4142,-3.4105,-3.4074,-3.3913,-3.3751,-3.3385,-3.2999,-3.275,-4.1107,-4.1103,-4.1099,-4.1116,-4.1111,-4.1108,-4.1108,-4.1108,-4.1108,-4.1108,-4.1108,-4.1108,-4.1108,-4.1108,-4.1108,-4.1108,-4.1108,-4.1108,-4.1108,-4.1108,-4.1108,-4.1108,-4.1108,-4.1108,-4.1108,-4.0991,-4.0639,-4.0164,-3.9739,-3.8994,-3.7985,-3.7086,-3.6579,-3.6207,-3.5799,-3.565,-3.565,-3.565,-3.5585,-3.5553,-3.554,-3.5509,-3.5488,-3.5507,-3.5507,-3.5507,-3.5507,-3.5507,-3.5507,-3.5507,-3.5507,-3.5507,-3.5507,-3.5507,-3.5507,-3.5493,-3.5446,-3.5398,-3.535,-3.5315,-3.532,-3.5304,-3.5324,-3.5308,-3.5293,-3.5273,-3.5258,-3.5261,-3.5261,-3.5245,-3.5193,-3.5089,-3.5072,-3.5019,-3.487,-3.4733,-3.4674,-3.4572,-3.4353,-3.4105,-3.4074,-3.3998,-3.3807,-3.3807,-3.3807,-3.3807,-3.3807,-3.3834,-3.386,-3.3868,-3.3868,-3.3921,-3.3947,-3.3998,-3.4023,-3.4023,-3.4049,-3.4023,-3.4049,-3.4074,-3.4099,-3.4124,-3.4148,-3.4148,-3.4148,-3.4124,-3.4148,-3.4191,-3.4173,-3.4197,-3.4091,-3.4008,-3.3841,-3.3604,-3.3318,-4.1111,-4.1108,-4.1103,-4.1116,-4.1111,-4.1111,-4.1108,-4.1108,-4.1108,-4.1108,-4.1108,-4.1108,-4.1108,-4.1108,-4.1108,-4.1108,-4.1108,-4.1108,-4.1108,-4.1108,-4.1108,-4.1108,-4.1108,-4.1108,-4.1108,-4.1088,-4.103,-4.0737,-4.0226,-3.9738,-3.8885,-3.8025,-3.7483,-3.6824,-3.6236,-3.5896,-3.5811,-3.5702,-3.566,-3.562,-3.5604,-3.5553,-3.5501,-3.5488,-3.5507,-3.5507,-3.5507,-3.5507,-3.5507,-3.5507,-3.5507,-3.5507,-3.5507,-3.5507,-3.5507,-3.5474,-3.5427,-3.5412,-3.5379,-3.5364,-3.5335,-3.53,-3.53,-3.5304,-3.5308,-3.5289,-3.5308,-3.5312,-3.5277,-3.5261,-3.5245,-3.5209,-3.5193,-3.5157,-3.5054,-3.4964,-3.4908,-3.4812,-3.4655,-3.4464,-3.439,-3.4179,-3.3947,-3.3807,-3.3807,-3.3842,-3.3842,-3.3868,-3.3895,-3.3939,-3.3965,-3.4016,-3.4042,-3.4067,-3.4074,-3.4055,-3.408,-3.408,-3.4099,-3.4124,-3.4148,-3.4148,-3.4173,-3.4197,-3.4221,-3.4221,-3.4221,-3.4221,-3.4221,-3.4245,-3.4293,-3.4242,-3.4093,-3.3933,-3.3661,-4.1152,-4.1111,-4.1108,-4.1103,-4.1116,-4.1111,-4.1108,-4.1108,-4.1108,-4.1108,-4.1108,-4.1108,-4.1108,-4.1108,-4.1108,-4.1108,-4.1108,-4.1108,-4.1108,-4.1108,-4.1108,-4.1108,-4.1108,-4.1108,-4.1108,-4.1108,-4.1108,-4.1069,-4.0717,-4.0171,-3.9758,-3.9107,-3.805,-3.7214,-3.7058,-3.6401,-3.5897,-3.5866,-3.5764,-3.566,-3.5609,-3.5596,-3.5546,-3.5509,-3.5501,-3.5488,-3.5488,-3.5507,-3.5507,-3.5507,-3.5507,-3.5507,-3.5507,-3.5507,-3.5507,-3.5493,-3.5493,-3.546,-3.5412,-3.5398,-3.5383,-3.535,-3.5335,-3.53,-3.532,-3.5324,-3.5308,-3.5312,-3.5261,-3.5242,-3.5258,-3.5245,-3.5209,-3.519,-3.5174,-3.5141,-3.5124,-3.5053,-3.487,-3.4774,-3.4655,-3.433,-3.403,-3.3921,-3.3834,-3.3842,-3.3876,-3.3954,-3.3972,-3.4023,-3.4042,-3.4074,-3.4117,-3.4142,-3.4142,-3.4124,-3.413,-3.413,-3.4173,-3.4173,-3.4191,-3.4216,-3.4221,-3.4245,-3.4269,-3.4344,-3.439,-3.4367,-3.4298,-3.4321,-3.4413,-3.4431,-3.4367,-3.4147,-3.3799,-4.1171,-4.1111,-4.1108,-4.1103,-4.1099,-4.1111,-4.1108,-4.1108,-4.1108,-4.1108,-4.1108,-4.1108,-4.1108,-4.1108,-4.1108,-4.1108,-4.1108,-4.1108,-4.1108,-4.1108,-4.1108,-4.1108,-4.1108,-4.1108,-4.1108,-4.1108,-4.1108,-4.1108,-4.0932,-4.0737,-4.0366,-3.9741,-3.9097,-3.8492,-3.8004,-3.7152,-3.6813,-3.6543,-3.6175,-3.5791,-3.5687,-3.565,-3.563,-3.5546,-3.5565,-3.5534,-3.5501,-3.5507,-3.5507,-3.5507,-3.5507,-3.5507,-3.5507,-3.5507,-3.5507,-3.5507,-3.5507,-3.5474,-3.546,-3.546,-3.5446,-3.5427,-3.5412,-3.5412,-3.5412,-3.5383,-3.5354,-3.5354,-3.532,-3.5304,-3.5304,-3.5289,-3.5289,-3.5254,-3.5239,-3.5254,-3.5254,-3.5254,-3.5152,-3.5049,-3.4925,-3.4636,-3.4401,-3.4375,-3.4307,-3.4279,-3.4302,-3.4325,-3.425,-3.4173,-3.4173,-3.4148,-3.4173,-3.4191,-3.4191,-3.4173,-3.4221,-3.4203,-3.4203,-3.4221,-3.4197,-3.4197,-3.4316,-3.439,-3.448,-3.4505,-3.4529,-3.4529,-3.4526,-3.4548,-3.4588,-3.4467,-3.433,-3.3821,-3.3583,-4.1172,-4.1131,-4.1108,-4.1105,-4.1101,-4.1114,-4.1111,-4.1111,-4.1111,-4.1108,-4.1108,-4.1108,-4.1108,-4.1108,-4.1108,-4.1108,-4.1108,-4.1108,-4.1108,-4.1108,-4.1108,-4.1108,-4.1108,-4.1108,-4.1108,-4.1108,-4.1108,-4.1108,-4.1108,-4.101,-4.0698,-4.0112,-3.9761,-3.9409,-3.8824,-3.8121,-3.763,-3.7549,-3.6766,-3.6312,-3.6117,-3.5869,-3.5735,-3.5631,-3.5618,-3.5581,-3.5534,-3.5507,-3.5507,-3.5507,-3.5507,-3.5507,-3.5507,-3.5507,-3.5507,-3.5507,-3.5507,-3.5507,-3.5474,-3.5493,-3.5507,-3.5507,-3.5493,-3.5479,-3.546,-3.5427,-3.5412,-3.5379,-3.5364,-3.535,-3.533,-3.5315,-3.53,-3.53,-3.53,-3.53,-3.5354,-3.5454,-3.5415,-3.5235,-3.5136,-3.5102,-3.4925,-3.4926,-3.4851,-3.4753,-3.4713,-3.4693,-3.4567,-3.4413,-3.4413,-3.4413,-3.4454,-3.4476,-3.4454,-3.4409,-3.4386,-3.434,-3.4321,-3.4367,-3.4413,-3.4458,-3.4545,-3.4609,-3.4674,-3.4775,-3.4868,-3.4813,-3.4755,-3.4714,-3.4655,-3.4461,-3.4175,-3.359,-3.3175,-4.1191,-4.1191,-4.1129,-4.1108,-4.111,-4.1116,-4.1114,-4.1116,-4.1111,-4.1111,-4.1108,-4.1108,-4.1108,-4.1108,-4.1108,-4.1108,-4.1108,-4.1108,-4.1108,-4.1108,-4.1108,-4.1108,-4.1108,-4.1108,-4.1108,-4.1108,-4.1108,-4.1108,-4.1108,-4.1108,-4.103,-4.0932,-4.0307,-3.9917,-3.9488,-3.8941,-3.8434,-3.8219,-3.7546,-3.716,-3.6835,-3.6423,-3.5944,-3.5771,-3.5669,-3.5607,-3.5585,-3.5528,-3.5509,-3.5509,-3.5501,-3.5515,-3.5515,-3.5488,-3.5488,-3.5507,-3.5507,-3.5507,-3.5507,-3.5507,-3.5507,-3.5507,-3.557,-3.5666,-3.5657,-3.5547,-3.547,-3.5701,-3.5878,-3.5724,-3.5595,-3.5388,-3.5752,-3.5848,-3.6017,-3.5978,-3.5978,-3.5829,-3.5752,-3.5479,-3.5507,-3.5745,-3.5557,-3.5567,-3.5217,-3.5075,-3.4889,-3.4851,-3.487,-3.4772,-3.4772,-3.4772,-3.4792,-3.4831,-3.4831,-3.4772,-3.467,-3.4649,-3.463,-3.4693,-3.4792,-3.4812,-3.4714,-3.4851,-3.4925,-3.5062,-3.5117,-3.4898,-3.478,-3.4794,-3.466,-3.4188,-3.3506,-3.275,-3.2505,-4.1191,-4.1191,-4.1131,-4.1111,-4.1111,-4.1105,-4.1101,-4.1099,-4.1116,-4.1114,-4.1108,-4.1108,-4.1108,-4.1108,-4.1108,-4.1108,-4.1108,-4.1108,-4.1108,-4.1108,-4.1108,-4.1108,-4.1108,-4.1108,-4.1108,-4.1108,-4.1108,-4.1108,-4.1108,-4.1108,-4.1108,-4.0932,-4.0659,-4.0659,-4.0327,-3.9722,-3.9195,-3.8668,-3.8336,-3.8073,-3.7874,-3.7242,-3.6713,-3.6554,-3.593,-3.5779,-3.566,-3.5596,-3.5596,-3.5604,-3.5528,-3.5528,-3.5528,-3.5509,-3.5488,-3.5526,-3.5526,-3.5584,-3.5565,-3.5545,-3.5507,-3.5622,-3.5897,-3.6224,-3.6229,-3.6613,-3.6921,-3.7017,-3.6868,-3.6733,-3.6944,-3.6983,-3.7079,-3.6983,-3.6868,-3.6776,-3.6699,-3.6584,-3.6584,-3.6522,-3.669,-3.6925,-3.6579,-3.6248,-3.5791,-3.5388,-3.5215,-3.5035,-3.5054,-3.5037,-3.5019,-3.5019,-3.5019,-3.5001,-3.5001,-3.4964,-3.4927,-3.4945,-3.4964,-3.4982,-3.4999,-3.4908,-3.487,-3.5013,-3.5105,-3.5134,-3.5051,-3.486,-3.4779,-3.4805,-3.4289,-3.3574,-3.28,-3.1954,-3.2011,-4.1191,-4.1191,-4.1152,-4.1132,-4.1131,-4.111,-4.1107,-4.1103,-4.1101,-4.1099,-4.1111,-4.1111,-4.1108,-4.1108,-4.1108,-4.1108,-4.1108,-4.1108,-4.1108,-4.1108,-4.1108,-4.1108,-4.1108,-4.1108,-4.1108,-4.1108,-4.1108,-4.1108,-4.1108,-4.1108,-4.1108,-4.1108,-4.1108,-4.1049,-4.0912,-4.0522,-3.9878,-3.9468,-3.9058,-3.898,-3.8843,-3.8157,-3.7686,-3.741,-3.6752,-3.6327,-3.6095,-3.5911,-3.565,-3.5641,-3.562,-3.5593,-3.5581,-3.5565,-3.5541,-3.5578,-3.5718,-3.5853,-3.5872,-3.5872,-3.5988,-3.6469,-3.6796,-3.7046,-3.7257,-3.7661,-3.7685,-3.7834,-3.7892,-3.8027,-3.8046,-3.7781,-3.7704,-3.7531,-3.757,-3.7497,-3.755,-3.7497,-3.7608,-3.7666,-3.7738,-3.7623,-3.745,-3.7007,-3.6325,-3.584,-3.5411,-3.5273,-3.5273,-3.5242,-3.5174,-3.5157,-3.5157,-3.5124,-3.5089,-3.5217,-3.5327,-3.5209,-3.5207,-3.5152,-3.5133,-3.5083,-3.5078,-3.5249,-3.527,-3.5168,-3.4827,-3.4388,-3.4513,-3.4795,-3.3878,-3.2699,-3.2137,-3.1445,-3.1813,-4.1191,-4.1191,-4.1191,-4.1191,-4.1172,-4.111,-4.1108,-4.111,-4.1107,-4.1103,-4.1119,-4.1114,-4.1111,-4.1111,-4.1111,-4.1108,-4.1108,-4.1108,-4.1108,-4.1108,-4.1108,-4.1108,-4.1108,-4.1108,-4.1108,-4.1108,-4.1108,-4.1108,-4.1108,-4.1108,-4.1108,-4.1108,-4.1108,-4.1108,-4.1108,-4.1088,-4.103,-4.0893,-4.0112,-3.9858,-3.9624,-3.9,-3.8606,-3.8323,-3.762,-3.7127,-3.6988,-3.6538,-3.6309,-3.6277,-3.6179,-3.6144,-3.6066,-3.6026,-3.5948,-3.5855,-3.64,-3.6675,-3.6719,-3.6719,-3.7084,-3.7526,-3.7719,-3.7969,-3.7969,-3.8123,-3.8334,-3.8623,-3.8411,-3.8257,-3.8142,-3.8142,-3.8296,-3.8373,-3.845,-3.8488,-3.8546,-3.8584,-3.87,-3.8777,-3.8373,-3.8046,-3.8007,-3.7738,-3.6949,-3.632,-3.5724,-3.5589,-3.5753,-3.5748,-3.5799,-3.5917,-3.5956,-3.5956,-3.5978,-3.5748,-3.5696,-3.5589,-3.5537,-3.5566,-3.5479,-3.5383,-3.5432,-3.5519,-3.5377,-3.5222,-3.453,-3.3798,-3.3743,-3.353,-3.2653,-3.1699,-3.1217,-3.1078,-3.1435,-4.1191,-4.1191,-4.1191,-4.1191,-4.1191,-4.1171,-4.1151,-4.1111,-4.1108,-4.1107,-4.1103,-4.1099,-4.1116,-4.1114,-4.1111,-4.1108,-4.1108,-4.1108,-4.1108,-4.1108,-4.1108,-4.1108,-4.1108,-4.1108,-4.1108,-4.1108,-4.1108,-4.1108,-4.1108,-4.1108,-4.1108,-4.1108,-4.1108,-4.1108,-4.1108,-4.1108,-4.1088,-4.1049,-4.0776,-4.0639,-4.0561,-3.9858,-3.939,-3.9351,-3.8537,-3.8101,-3.8061,-3.7506,-3.7319,-3.735,-3.7306,-3.725,-3.7253,-3.7245,-3.723,-3.7189,-3.7597,-3.7893,-3.8204,-3.8411,-3.8219,-3.8354,-3.8565,-3.8834,-3.8854,-3.9411,-3.9565,-3.9546,-3.9431,-3.945,-3.97,-3.9681,-3.9758,-3.9758,-3.9815,-3.9796,-3.9835,-3.9815,-3.9873,-3.9892,-3.9662,-3.9181,-3.8969,-3.8681,-3.7969,-3.768,-3.7257,-3.6988,-3.707,-3.6863,-3.6814,-3.7006,-3.7098,-3.7055,-3.6969,-3.6719,-3.6516,-3.6419,-3.626,-3.6125,-3.5991,-3.5809,-3.5639,-3.5651,-3.543,-3.5171,-3.4447,-3.3673,-3.2627,-3.1976,-3.1569,-3.1181,-3.081,-3.0821,-3.1086,-4.1191,-4.1191,-4.1191,-4.1191,-4.1191,-4.1191,-4.1152,-4.1132,-4.1111,-4.1108,-4.1108,-4.1103,-4.1101,-4.1099,-4.1114,-4.1111,-4.1108,-4.1108,-4.1108,-4.1108,-4.1108,-4.1108,-4.1108,-4.1108,-4.1108,-4.1108,-4.1108,-4.1108,-4.1108,-4.1108,-4.1108,-4.1108,-4.1108,-4.1108,-4.1108,-4.1108,-4.1108,-4.1088,-4.0991,-4.101,-4.0873,-4.0542,-4.0249,-4.0015,-3.9546,-3.9019,-3.8915,-3.8752,-3.8526,-3.8588,-3.8551,-3.8429,-3.8435,-3.8371,-3.8302,-3.821,-3.8537,-3.8946,-3.9515,-3.9725,-3.9441,-3.9138,-3.9484,-3.9662,-3.9738,-4.0085,-4.0277,-4.0373,-4.0489,-4.0469,-4.0431,-4.0489,-4.0489,-4.045,-4.0431,-4.0392,-4.0373,-4.0335,-4.0315,-4.0412,-4.0392,-4.0046,-3.9796,-3.9508,-3.9027,-3.895,-3.8854,-3.8565,-3.8219,-3.7935,-3.7723,-3.7873,-3.7911,-3.7772,-3.7714,-3.769,-3.7473,-3.7288,-3.7109,-3.6961,-3.6504,-3.6296,-3.6029,-3.5684,-3.5278,-3.4853,-3.4369,-3.3566,-3.2541,-3.1787,-3.1322,-3.0914,-3.0488,-3.0597,-3.0868,-4.1191,-4.1191,-4.1191,-4.1191,-4.1191,-4.1191,-4.1191,-4.1191,-4.1132,-4.1112,-4.1112,-4.1108,-4.1105,-4.1099,-4.1099,-4.1114,-4.1111,-4.1111,-4.1111,-4.1108,-4.1108,-4.1108,-4.1108,-4.1108,-4.1108,-4.1108,-4.1108,-4.1108,-4.1108,-4.1108,-4.1108,-4.1108,-4.1108,-4.1108,-4.1108,-4.1108,-4.1108,-4.1108,-4.1108,-4.1108,-4.101,-4.101,-4.0873,-4.0639,-4.0249,-3.9917,-3.968,-3.9387,-3.9055,-3.8921,-3.886,-3.8721,-3.8605,-3.8511,-3.8468,-3.8677,-3.9293,-3.9887,-4.0362,-4.0462,-4.0455,-4.0102,-4.0254,-4.0446,-4.0431,-4.0412,-4.0469,-4.0489,-4.0489,-4.0489,-4.0489,-4.0489,-4.0489,-4.0489,-4.0489,-4.0469,-4.0469,-4.0469,-4.045,-4.0489,-4.0489,-4.0335,-4.0296,-4.0065,-3.9773,-3.9831,-3.9677,-3.9407,-3.9061,-3.8757,-3.8584,-3.858,-3.8541,-3.8383,-3.8416,-3.8662,-3.8439,-3.8254,-3.8132,-3.7945,-3.739,-3.6841,-3.6621,-3.6129,-3.5143,-3.4543,-3.4253,-3.3479,-3.2396,-3.1777,-3.141,-3.0965,-3.0627,-3.055,-3.0781,-4.1191,-4.1191,-4.1191,-4.1191,-4.1191,-4.1191,-4.1191,-4.1191,-4.1191,-4.1172,-4.1171,-4.1112,-4.1108,-4.1105,-4.1105,-4.1099,-4.1114,-4.1114,-4.1111,-4.1111,-4.1108,-4.1108,-4.1108,-4.1108,-4.1108,-4.1108,-4.1108,-4.1147,-4.1166,-4.1147,-4.1225,-4.1108,-4.1361,-4.1283,-4.1264,-4.1147,-4.1225,-4.1205,-4.1244,-4.1108,-4.1108,-4.1108,-4.1108,-4.0952,-4.0834,-4.06,-4.0464,-4.0385,-4.019,-4.0268,-4.0327,-4.032,-4.0336,-4.0333,-4.0316,-4.0253,-4.0454,-4.0578,-4.0742,-4.0754,-4.07,-4.0629,-4.0559,-4.0504,-4.0489,-4.0504,-4.0504,-4.0489,-4.0489,-4.0489,-4.0489,-4.0489,-4.0489,-4.0489,-4.0489,-4.0489,-4.0489,-4.0489,-4.0489,-4.0489,-4.0489,-4.0504,-4.0504,-4.0446,-4.0196,-4.0427,-4.0389,-4.0096,-3.988,-3.9538,-3.9384,-3.9379,-3.9418,-3.9297,-3.9634,-3.9899,-3.9521,-3.9206,-3.9097,-3.882,-3.8175,-3.7684,-3.7317,-3.6671,-3.5781,-3.4988,-3.4311,-3.3557,-3.2957,-3.2174,-3.171,-3.1235,-3.0838,-3.0741,-3.0653,-4.1191,-4.1191,-4.1191,-4.1191,-4.1191,-4.1191,-4.1191,-4.1191,-4.1191,-4.1191,-4.1191,-4.1171,-4.1131,-4.111,-4.1108,-4.1105,-4.1099,-4.1116,-4.1116,-4.1114,-4.1111,-4.1108,-4.1108,-4.1108,-4.1108,-4.1108,-4.1186,-4.1303,-4.1537,-4.2025,-4.2181,-4.224,-4.2123,-4.2103,-4.222,-4.2318,-4.2259,-4.1967,-4.1615,-4.1225,-4.1127,-4.1127,-4.1108,-4.1108,-4.1108,-4.1108,-4.1108,-4.1108,-4.1108,-4.1108,-4.1108,-4.1108,-4.1069,-4.1069,-4.1046,-4.0911,-4.0914,-4.085,-4.089,-4.0848,-4.081,-4.0754,-4.0675,-4.0602,-4.0564,-4.0549,-4.0519,-4.0489,-4.0489,-4.0489,-4.0489,-4.0489,-4.0489,-4.0489,-4.0489,-4.0489,-4.0489,-4.0489,-4.0489,-4.0489,-4.0504,-4.0523,-4.0523,-4.0539,-4.0534,-4.0549,-4.0564,-4.0448,-4.0347,-4.0217,-4.0121,-4.0116,-4.0251,-4.0342,-4.0626,-4.0654,-4.0281,-3.9979,-4.0031,-3.9656,-3.8992,-3.847,-3.8083,-3.7367,-3.6516,-3.5723,-3.493,-3.4447,-3.3847,-3.3064,-3.2358,-3.1951,-3.1418,-3.0845,-3.0776,-4.1191,-4.1191,-4.1191,-4.1191,-4.1191,-4.1191,-4.1191,-4.1191,-4.1191,-4.1191,-4.1191,-4.1191,-4.1171,-4.1112,-4.1111,-4.111,-4.1105,-4.1103,-4.1101,-4.1099,-4.1114,-4.1111,-4.1114,-4.1111,-4.1267,-4.1228,-4.1381,-4.181,-4.2533,-4.2942,-4.3255,-4.3704,-4.3509,-4.3333,-4.3255,-4.3274,-4.3196,-4.3021,-4.2279,-4.1674,-4.1342,-4.1205,-4.1108,-4.1108,-4.1108,-4.1108,-4.1108,-4.1108,-4.1108,-4.1108,-4.1108,-4.1108,-4.1108,-4.1108,-4.1088,-4.1085,-4.1074,-4.1037,-4.0986,-4.0954,-4.1054,-4.0994,-4.0846,-4.111,-4.1235,-4.0983,-4.0927,-4.0912,-4.095,-4.095,-4.095,-4.0642,-4.0489,-4.0489,-4.0489,-4.0489,-4.0489,-4.0504,-4.0523,-4.0523,-4.0539,-4.0539,-4.0549,-4.0564,-4.0564,-4.0574,-4.0607,-4.0607,-4.0621,-4.0621,-4.0621,-4.0621,-4.064,-4.066,-4.0687,-4.0713,-4.0746,-4.0662,-4.0655,-4.0442,-3.9765,-3.9262,-3.8837,-3.7928,-3.698,-3.6361,-3.5684,-3.5143,-3.4612,-3.4061,-3.3403,-3.2821,-3.2152,-3.1366,-3.0878,-4.1191,-4.1191,-4.1191,-4.1191,-4.1191,-4.1191,-4.1191,-4.1191,-4.1191,-4.1191,-4.1191,-4.1191,-4.1171,-4.1112,-4.1152,-4.1151,-4.1108,-4.1108,-4.1108,-4.1105,-4.1099,-4.1216,-4.116,-4.1292,-4.1523,-4.1933,-4.2223,-4.2591,-4.3313,-4.3665,-4.3762,-4.3782,-4.3879,-4.3977,-4.3957,-4.3957,-4.3957,-4.3977,-4.3391,-4.263,-4.224,-4.1498,-4.1108,-4.1127,-4.1147,-4.1166,-4.1147,-4.1108,-4.1108,-4.1108,-4.1108,-4.1108,-4.1108,-4.1108,-4.1108,-4.1108,-4.1108,-4.1121,-4.1207,-4.1237,-4.1403,-4.1785,-4.1935,-4.2267,-4.2261,-4.1779,-4.1524,-4.1524,-4.1489,-4.1489,-4.1296,-4.0873,-4.0508,-4.0508,-4.0504,-4.0504,-4.0504,-4.0504,-4.0539,-4.0539,-4.0554,-4.0569,-4.0579,-4.0593,-4.0588,-4.0621,-4.0654,-4.0668,-4.0681,-4.07,-4.07,-4.0681,-4.0687,-4.07,-4.0746,-4.0759,-4.0778,-4.079,-4.0732,-4.0597,-4.0423,-3.9939,-3.934,-3.8315,-3.7406,-3.6806,-3.6226,-3.5704,-3.5192,-3.4729,-3.4362,-3.377,-3.2818,-3.1961,-3.1367,-4.1191,-4.1191,-4.1191,-4.1191,-4.1191,-4.1191,-4.1191,-4.1191,-4.1191,-4.1191,-4.1191,-4.1191,-4.1172,-4.1133,-4.1191,-4.1191,-4.1133,-4.1111,-4.1111,-4.1108,-4.1222,-4.1437,-4.1474,-4.1668,-4.229,-4.2798,-4.3414,-4.3899,-4.425,-4.4777,-4.4933,-4.4781,-4.4777,-4.4758,-4.4777,-4.4816,-4.4777,-4.4875,-4.4484,-4.3997,-4.3411,-4.2728,-4.2006,-4.1888,-4.1654,-4.1557,-4.1147,-4.1108,-4.1108,-4.1108,-4.1108,-4.1108,-4.1108,-4.1108,-4.1108,-4.1108,-4.1147,-4.1264,-4.153,-4.1753,-4.2022,-4.2551,-4.2831,-4.3105,-4.3216,-4.2834,-4.2795,-4.2748,-4.2425,-4.2374,-4.1777,-4.1316,-4.0854,-4.0662,-4.0596,-4.0554,-4.0549,-4.0564,-4.0564,-4.0579,-4.0579,-4.0612,-4.064,-4.0673,-4.0654,-4.07,-4.0746,-4.0726,-4.0746,-4.0771,-4.0771,-4.0759,-4.0739,-4.0746,-4.0778,-4.079,-4.079,-4.079,-4.079,-4.0713,-4.0578,-4.0326,-3.9804,-3.888,-3.8009,-3.727,-3.6709,-3.6202,-3.5736,-3.5252,-3.4982,-3.4699,-3.3649,-3.2606,-3.2023,-4.1191,-4.1191,-4.1191,-4.1191,-4.1191,-4.1191,-4.1191,-4.1191,-4.1191,-4.1191,-4.1191,-4.1191,-4.1191,-4.1191,-4.1191,-4.1191,-4.1191,-4.1152,-4.1131,-4.119,-4.1324,-4.1696,-4.2145,-4.2514,-4.3136,-4.3874,-4.4611,-4.4901,-4.5174,-4.5623,-4.5952,-4.6245,-4.6303,-4.6264,-4.6303,-4.6245,-4.6033,-4.5818,-4.5506,-4.521,-4.4761,-4.4211,-4.3294,-4.2747,-4.2494,-4.2142,-4.1674,-4.1459,-4.1479,-4.1557,-4.1732,-4.1771,-4.1791,-4.1849,-4.1771,-4.181,-4.1849,-4.2123,-4.2373,-4.2568,-4.3072,-4.3576,-4.3699,-4.3877,-4.4014,-4.4125,-4.4102,-4.3916,-4.3578,-4.3104,-4.2526,-4.1956,-4.1493,-4.0896,-4.081,-4.0617,-4.0607,-4.0602,-4.0602,-4.0602,-4.0635,-4.0668,-4.07,-4.0713,-4.0746,-4.079,-4.0803,-4.079,-4.0803,-4.0808,-4.0812,-4.08,-4.0788,-4.0808,-4.0803,-4.079,-4.079,-4.079,-4.079,-4.079,-4.0752,-4.0539,-4.0176,-3.9564,-3.872,-3.8024,-3.7279,-3.6692,-3.6239,-3.5911,-3.5482,-3.5127,-3.433,-3.3374,-3.273,-4.1152,-4.1191,-4.1191,-4.1191,-4.1191,-4.1191,-4.1191,-4.1191,-4.1191,-4.1191,-4.1191,-4.1191,-4.1191,-4.1191,-4.1191,-4.1191,-4.1191,-4.1172,-4.1191,-4.1211,-4.1717,-4.2128,-4.2694,-4.3395,-4.3978,-4.4737,-4.5497,-4.5929,-4.5807,-4.6097,-4.6293,-4.6297,-4.6293,-4.6293,-4.6297,-4.6297,-4.6278,-4.618,-4.6178,-4.5885,-4.5509,-4.4823,-4.3821,-4.3469,-4.343,-4.3333,-4.3235,-4.3196,-4.3216,-4.3216,-4.3079,-4.3001,-4.2923,-4.2864,-4.2864,-4.277,-4.2809,-4.3063,-4.3317,-4.3434,-4.3925,-4.4605,-4.4766,-4.4985,-4.5187,-4.5445,-4.5397,-4.527,-4.4909,-4.4392,-4.3796,-4.3221,-4.2673,-4.1732,-4.1267,-4.09,-4.0662,-4.0662,-4.0642,-4.0668,-4.0713,-4.0745,-4.0788,-4.0788,-4.0788,-4.0831,-4.0812,-4.0831,-4.0834,-4.0846,-4.0867,-4.0867,-4.0867,-4.0812,-4.0796,-4.0803,-4.0803,-4.079,-4.0815,-4.0831,-4.0831,-4.0803,-4.0401,-3.9947,-3.9527,-3.893,-3.8182,-3.7397,-3.7072,-3.6715,-3.6048,-3.5483,-3.4795,-3.3939,-3.3121]},{"header":{"parameterUnit":"m.s-1","parameterCategory":1,"la1":31.0,"la2":29.5877,"lo1":-88.7671,"lo2":-86.6584,"dy":0.0162,"dx":0.0185,"nx":115,"ny":88,"refTime":"2024-03-26T06:00:00:Z","depth":0,"parameterNumber":3,"parameterNumberName":"V-component_of_WINDS"},"data":[0.0,0.0,0.0,0.0,0.0,0.0,0.0,0.0,0.0,0.0,0.0,0.0,0.0,0.0,0.0,0.0,0.0,0.0,0.0,0.0,0.0,0.0,0.0,0.0,0.0,0.0,0.0,0.0,0.0,0.0,0.0,0.0,0.0,0.0,0.0,0.0,0.0,0.0,0.0,0.0,0.0,0.0,0.0,0.0,0.0,0.0,0.0,0.0,0.0,0.0,0.0,0.0,0.0,0.0,0.0,0.0,0.0,0.0,0.0,0.0,0.0,0.0,0.0,0.0,0.0,0.0,0.0,0.0,0.0,0.0,0.0,0.0,0.0,0.0,0.0,0.0,0.0,0.0,0.0,0.0,0.0,0.0,0.0,0.0,0.0,0.0,0.0,0.0,0.0,0.0,0.0,0.0,0.0,0.0,0.0,0.0,0.0,0.0,0.0,0.0,0.0,0.0,0.0,0.0,0.0,0.0,0.0,0.0,0.0,0.0,0.0,0.0,0.0,0.0,0.0,0.0,0.0,0.0,0.0,0.0,0.0,0.0,0.0,0.0,0.0,0.0,0.0,0.0,0.0,0.0,0.0,0.0,0.0,0.0,0.0,0.0,0.0,0.0,0.0,0.0,0.0,0.0,0.0,0.0,0.0,0.0,0.0,0.0,0.0,0.0,0.0,0.0,0.0,0.0,0.0,0.0,0.0,0.0,0.0,0.0,0.0,0.0,0.0,0.0,0.0,0.0,0.0,0.0,0.0,0.0,0.0,0.0,0.0,0.0,0.0,0.0,0.0,0.0,0.0,0.0,0.0,0.0,0.0,0.0,0.0,0.0,0.0,0.0,0.0,0.0,0.0,0.0,0.0,0.0,0.0,0.0,0.0,0.0,0.0,0.0,0.0,0.0,0.0,0.0,0.0,0.0,0.0,0.0,0.0,0.0,0.0,0.0,0.0,0.0,0.0,0.0,0.0,0.0,0.0,0.0,0.0,0.0,0.0,0.0,0.0,0.0,0.0,0.0,0.0,0.0,0.0,0.0,0.0,0.0,0.0,0.0,0.0,0.0,0.0,0.0,0.0,0.0,0.0,0.0,0.0,0.0,0.0,0.0,0.0,0.0,0.0,0.0,0.0,0.0,0.0,0.0,0.0,0.0,0.0,0.0,0.0,0.0,0.0,0.0,0.0,0.0,0.0,0.0,0.0,0.0,0.0,0.0,0.0,0.0,0.0,0.0,0.0,0.0,0.0,0.0,0.0,0.0,0.0,0.0,0.0,0.0,0.0,0.0,0.0,0.0,0.0,0.0,0.0,0.0,0.0,0.0,0.0,0.0,0.0,0.0,0.0,0.0,0.0,0.0,0.0,0.0,0.0,0.0,0.0,0.0,0.0,0.0,0.0,0.0,0.0,0.0,0.0,0.0,0.0,0.0,0.0,0.0,0.0,0.0,0.0,0.0,0.0,0.0,0.0,0.0,0.0,0.0,0.0,0.0,0.0,0.0,0.0,0.0,0.0,0.0,0.0,0.0,0.0,0.0,0.0,0.0,0.0,0.0,0.0,0.0,0.0,0.0,0.0,0.0,0.0,0.0,0.0,0.0,0.0,0.0,0.0,0.0,0.0,0.0,0.0,0.0,0.0,0.0,0.0,0.0,0.0,0.0,0.0,0.0,0.0,0.0,0.0,0.0,0.0,0.0,0.0,0.0,0.0,0.0,0.0,0.0,0.0,0.0,0.0,0.0,0.0,0.0,0.0,0.0,0.0,0.0,0.0,0.0,0.0,0.0,0.0,0.0,0.0,0.0,0.0,0.0,0.0,0.0,0.0,0.0,0.0,0.0,0.0,0.0,0.0,0.0,0.0,0.0,0.0,0.0,0.0,0.0,0.0,0.0,0.0,0.0,0.0,0.0,0.0,0.0,0.0,0.0,0.0,0.0,0.0,0.0,0.0,0.0,0.0,0.0,0.0,0.0,0.0,0.0,0.0,0.0,0.0,0.0,0.0,0.0,0.0,0.0,0.0,0.0,0.0,0.0,0.0,0.0,0.0,0.0,0.0,0.0,0.0,0.0,0.0,0.0,0.0,0.0,0.0,0.0,0.0,0.0,0.0,0.0,0.0,0.0,0.0,0.0,0.0,0.0,0.0,0.0,0.0,0.0,0.0,0.0,0.0,0.0,0.0,0.0,0.0,0.0,0.0,0.0,0.0,0.0,0.0,0.0,0.0,0.0,0.0,0.0,0.0,0.0,0.0,0.0,0.0,0.0,0.0,0.0,0.0,0.0,0.0,0.0,0.0,0.0,0.0,0.0,0.0,0.0,0.0,0.0,0.0,0.0,0.0,0.0,0.0,0.0,0.0,0.0,0.0,0.0,0.0,0.0,0.0,0.0,0.0,0.0,0.0,0.0,0.0,0.0,0.0,0.0,0.0,0.0,0.0,0.0,0.0,0.0,0.0,0.0,0.0,0.0,0.0,0.0,0.0,0.0,0.0,0.0,0.0,0.0,0.0,0.0,0.0,0.0,0.0,0.0,0.0,0.0,0.0,0.0,0.0,0.0,0.0,0.0,0.0,0.0,0.0,0.0,0.0,0.0,0.0,0.0,0.0,0.0,0.0,0.0,0.0,0.0,0.0,0.0,0.0,0.0,0.0,0.0,0.0,0.0,0.0,0.0,0.0,0.0,0.0,0.0,0.0,0.0,0.0,0.0,0.0,0.0,0.0,0.0,0.0,0.0,0.0,0.0,0.0,0.0,0.0,0.0,0.0,0.0,0.0,0.0,0.0,0.0,0.0,0.0,0.0,0.0,0.0,0.0,0.0,0.0,0.0,0.0,0.0,0.0,0.0,0.0,0.0,0.0,0.0,0.0,0.0,0.0,0.0,0.0,0.0,0.0,0.0,0.0,0.0,0.0,0.0,0.0,0.0,0.0,0.0,0.0,0.0,0.0,0.0,0.0,0.0,0.0,0.0,0.0,0.0,0.0,0.0,0.0,0.0,0.0,0.0,0.0,0.0,0.0,0.0,0.0,0.0,0.0,0.0,0.0,0.0,0.0,0.0,0.0,0.0,0.0,0.0,0.0,0.0,0.0,0.0,0.0,0.0,0.0,0.0,0.0,0.0,0.0,0.0,0.0,0.0,0.0,0.0,0.0,0.0,0.0,0.0,0.0,0.0,0.0,0.0,0.0,0.0,0.0,0.0,0.0,0.0,0.0,0.0,0.0,0.0,0.0,0.0,0.0,0.0,0.0,0.0,0.0,0.0,0.0,0.0,0.0,0.0,0.0,0.0,0.0,0.0,0.0,0.0,0.0,0.0,0.0,0.0,0.0,0.0,0.0,0.0,0.0,0.0,0.0,0.0,0.0,0.0,0.0,0.0,0.0,0.0,0.0,0.0,0.0,0.0,0.0,0.0,0.0,0.0,0.0,0.0,0.0,0.0,0.0,0.0,0.0,0.0,0.0,0.0,0.0,0.0,0.0,0.0,0.0,0.0,0.0,0.0,0.0,0.0,0.0,0.0,0.0,0.0,0.0,0.0,0.0,0.0,0.0,0.0,0.0,0.0,0.0,0.0,0.0,0.0,0.0,0.0,0.0,0.0,0.0,0.0,0.0,0.0,0.0,0.0,0.0,0.0,0.0,0.0,0.0,0.0,0.0,0.0,0.0,0.0,0.0,0.0,0.0,0.0,0.0,0.0,0.0,0.0,0.0,0.0,0.0,0.0,0.0,0.0,0.0,0.0,0.0,0.0,0.0,0.0,0.0,0.0,0.0,0.0,0.0,0.0,0.0,0.0,0.0,0.0,0.0,0.0,0.0,0.0,0.0,0.0,0.0,0.0,0.0,0.0,0.0,0.0,0.0,0.0,0.0,0.0,0.0,0.0,0.0,0.0,0.0,0.0,0.0,0.0,0.0,0.0,0.0,0.0,0.0,0.0,0.0,0.0,0.0,0.0,0.0,0.0,0.0,0.0,0.0,0.0,0.0,0.0,0.0,0.0,0.0,0.0,0.0,0.0,0.0,0.0,0.0,0.0,0.0,0.0,0.0,0.0,0.0,0.0,0.0,0.0,0.0,0.0,0.0,0.0,0.0,0.0,0.0,0.0,0.0,0.0,0.0,0.0,0.0,0.0,0.0,0.0,0.0,0.0,0.0,0.0,0.0,0.0,0.0,0.0,0.0,0.0,0.0,0.0,0.0,0.0,0.0,0.0,0.0,0.0,0.0,0.0,0.0,0.0,0.0,0.0,0.0,0.0,0.0,0.0,0.0,0.0,0.0,0.0,0.0,0.0,0.0,-0.0202,0.0,0.0,0.0,0.0,0.0,0.0,0.0,0.0,0.0,0.0,0.0,0.0,0.0,0.0,0.0,0.0,0.0,0.0,0.0,0.0,0.0,0.0,0.0,0.0,0.0,0.0,0.0,0.0,0.0,0.0,0.0,0.0,0.0,0.0,0.0,0.0,0.0,0.0,0.0,0.0,0.0,0.0,0.0,0.0,0.0,0.0,0.0,0.0,0.0,0.0,0.0,0.0,0.0,0.0,0.0,0.0,0.0,0.0,0.0,0.0,0.0,0.0,0.0,0.0,0.0,0.0,0.0,0.0,0.0,0.0,0.0,0.0,0.0,0.0,0.0,0.0,0.0,0.0,0.0,0.0,0.0,0.0,0.0,0.0,0.0,0.0,0.0,0.0,0.0,0.0,0.0,0.0,0.0,0.0,0.0,0.0,0.0,0.0,0.0,0.0,0.0,0.0,0.0,0.0,0.0,0.0,0.0,0.0,0.0,0.0,0.0128,-0.0251,0.0059,0.0205,0.0135,0.0,0.0,0.0,0.0,0.0,0.0,0.0,0.0,0.0,0.0,0.0,0.0,0.0,0.0,0.0,0.0,0.0,0.0,0.0,0.0,0.0,0.0,0.0,0.0,0.0,0.0,0.0,0.0,0.0,0.0,0.0,0.0,0.0,0.0,0.0,0.0,0.0,0.0,0.0,0.0,0.0,0.0,0.0,0.0,0.0,0.0,0.0,0.0,0.0,0.0,0.0,0.0,0.0,0.0,0.0,0.0,0.0,0.0,0.0,0.0,0.0,0.0,0.0,0.0,0.0,0.0,0.0,0.0,0.0,0.0,0.0,0.0,0.0,0.0,0.0,0.0,0.0,0.0,0.0,0.0,0.0,0.0,0.0,0.0,0.0,0.0,0.0,0.0,0.0,0.0,0.0,0.0,0.0,0.0,0.0,0.0,0.0,0.0,0.0,0.0,0.0,0.0,0.0,0.0,0.0,0.0,0.0,0.0,0.0,0.0,0.0,0.0,0.0421,0.0587,0.0599,0.0,0.0,0.0,0.0,0.0,0.0,0.0,0.0,0.0,0.0,0.0,0.0,0.0,0.0,0.0,0.0,0.0,0.0,0.0,0.0,0.0,0.0,0.0,0.0,0.0,0.0,0.0,0.0,0.0,0.0,0.0,0.0,0.0,0.0,0.0,0.0,0.0,0.0,0.0,0.0,0.0,0.0,0.0,0.0,0.0,0.0,0.0,0.0,0.0,0.0,0.0,0.0,0.0,0.0,0.0,0.0,0.0,0.0,0.0,0.0,0.0,0.0,0.0,0.0,0.0,0.0,0.0,0.0,0.0,0.0,0.0,0.0,0.0,0.0,0.0,0.0,0.0,0.0,0.0,0.0,0.0,0.0,0.0,0.0,0.0,0.0,0.0,0.0,0.0,0.0,0.0,0.0,0.0,0.0,0.0,0.0,0.0,0.0,0.0,0.0,0.0,0.0,0.0,0.0,0.0,0.0,0.0,0.0,0.0,0.0,0.0684,0.0314,0.0601,0.0,0.1219,0.0,0.0,0.0,0.0,0.0,0.0,0.0,0.0,0.0,0.0,0.0,0.0,0.0,0.0,0.0,0.0,0.0,0.0,0.0,0.0,0.0,0.0,0.0,0.0,0.0,0.0,0.0,0.0,0.0,0.0,0.0,0.0,0.0,0.0,0.0,0.0,0.0,0.0,0.0,0.0,0.0,0.0,0.0,0.0,0.0,0.0,0.0,0.0,0.0,0.0,0.0,0.0,0.0,0.0,0.0,0.0,0.0,0.0,0.0,0.0,0.0,0.0,0.0,0.0,0.0,0.0,0.0,0.0,0.0,0.0,0.0,0.0,0.0,0.0,0.0,0.0,0.0,0.0,0.0,0.0,0.0,0.0,0.0,0.0,0.0,0.0,0.0,0.0,0.0,0.0,0.0,0.0,0.0,0.0,0.0,0.0,0.0,0.0,0.0,0.0,0.0,0.0,0.0,0.0,0.0,0.0,0.0,0.0,0.0,0.0,0.0966,0.0717,0.1046,0.1313,0.0,0.0,0.0,0.0,0.0,0.0,0.0,0.0,0.0,0.0,0.0,0.0,0.0,0.0,0.0,0.0,0.0,0.0,0.0,0.0,0.0,0.0,0.0,0.0,0.0,0.0,0.0,0.0,0.0,0.0,0.0,0.0,0.0,0.0,0.0,0.0,0.0,0.0,0.0,0.0,0.0,0.0,0.0,0.0,0.0,0.0,0.0,0.0,0.0,0.0,0.0,0.0,0.0,0.0,0.0,0.0,0.0,0.0,0.0,0.0,0.0,0.0,0.0,0.0,0.0,0.0,0.0,0.0,0.0,0.0,0.0,0.0,0.0,0.0,0.0,0.0,0.0,0.0,0.0,0.0,0.0,0.0,0.0,0.0,0.0,0.0,0.0,0.0,0.0,0.0,0.0,0.0,0.0,0.0,0.0,0.0,0.0,0.0,0.0,0.0,0.0,0.0,0.0,0.0,0.0,0.0,0.0,0.0,0.0,0.0,0.1177,0.1181,0.1139,0.1378,0.155,0.1627,0.0,0.0,0.0,0.0,0.0,0.0,0.0,0.0,0.0,0.0,0.0,0.0,0.0,0.0,0.0,0.0,0.0,0.0,0.0,0.0,0.0,0.0,0.0,0.0,0.0,0.0,0.0,0.0,0.0,0.0,0.0,0.0,0.0,0.0,0.0,0.0,0.0,0.0,0.0,0.0,0.0,0.0,0.0,0.0,0.0,0.0,0.0,0.0,0.0,0.0,0.0,0.0,0.0,0.0,0.0,0.0,0.0,0.0,0.0,0.0,0.0,0.0,0.0,0.0,0.0,0.0,0.0,0.0,0.0,0.0,0.0,0.0,0.0,0.0,0.0,0.0,0.0,0.0,0.0,0.0,0.0,0.0,0.0,0.0,0.0,0.0,0.0,0.0,0.0,0.0,0.0,0.0,0.0,0.0,0.0,0.0,0.0,0.0,0.0,0.0,0.0,0.0,0.0,0.0,0.0,0.0,0.0,0.0,0.1424,0.1307,0.128,0.139,0.1534,0.1617,0.0,0.0,0.0,0.0,0.0,0.0,0.0,0.0,0.0,0.0,0.0,0.0,0.0,0.0,0.0,0.0,0.0,0.0,0.0,0.0,0.0,0.0,0.0,0.0,0.0,0.0,0.0,0.0,0.0,0.0,0.0,0.0,0.0,0.0,0.0,0.0,0.0,0.0,0.0,0.0,0.0,0.0,0.0,0.0,0.0,0.0,0.0,0.0,0.0,0.0,0.0,0.0,0.0,0.0,0.0,0.0,0.0,0.0,0.0,0.0,0.0,0.0,0.0,0.0,0.0,0.0,0.0,0.0,0.0,0.0,0.0,0.0,0.0,0.0,0.0,0.0,0.0,0.0,0.0,0.0,0.0,0.0,0.0,0.0,0.0,0.0,0.0,0.0,0.0,0.0,0.0,0.0,0.0,0.0,0.0,0.0,0.0,0.0,0.0,0.0,0.0,0.0,0.0,0.0,0.0,0.0,0.0,0.0,0.0,0.1424,0.164,0.1879,0.2031,0.2292,0.2418,0.0,0.0,0.0,0.0,0.0,0.0,0.0,0.0,0.0,0.0,0.0,0.0,0.0,0.0,0.0,0.0,0.0,0.0,0.0,0.0,0.0,0.0,0.0,0.0,0.0,0.0,0.0,0.0,0.0,0.0,0.0,0.0,0.0,0.0,0.0,0.0,0.0,0.0,0.0,0.0,0.0,0.0,0.0,0.0,0.0,0.0,0.0,0.0,0.0,0.0,0.0,0.0,0.0,0.0,0.0,0.0,0.0,0.0,0.0,0.0,0.0,0.0,0.0,0.0,0.0,0.0,0.0,0.0,0.0,0.0,0.0,0.0,0.0,0.0,0.0,0.0,0.0,0.0,0.0,0.0,0.0,0.0,0.0,0.0,0.0,0.0,0.0,0.0,0.0,0.0,0.0,0.0,0.0,0.0,0.0,0.0,0.0,0.0,0.0,0.0,0.0,0.0,0.0,0.0,0.0,0.0,0.0,0.0,0.0,0.1591,0.0,0.2157,0.2289,0.2476,0.2559,0.0,0.0,0.0,0.0,0.0,0.0,0.0,0.0,0.0,0.0,0.0,0.0,0.0,0.0,0.0,0.0,0.0,0.0,0.0,0.0,0.0,0.0,0.0,0.0,0.0,0.0,0.0,0.0,0.0,0.0,0.0,0.0,0.0,0.0,0.0,0.0,0.0,0.0,0.0,0.0,0.0,0.0,0.0,0.0,0.0,0.0,0.0,0.0,0.0,0.0,0.0,0.0,0.0,0.0,0.0,0.0,0.0,0.0,0.0,0.0,0.0,0.0,0.0,0.0,0.0,0.0,0.0,0.0,0.0,0.0,0.0,0.0,0.0,0.0,0.0,0.0,0.0,0.0,0.0,0.0,0.0,0.0,0.0,0.0,0.0,0.0,0.0,0.0,0.0,0.0,0.0,0.0,0.0,0.0,0.0,0.0,0.0,0.0,0.0,0.0,0.0,0.0,0.0,0.0,0.0,0.0,0.0,0.0,0.0753,0.1937,0.2018,0.2062,0.2109,0.2035,0.1985,0.0,0.0,0.0,0.0,0.0,0.0,0.0,0.0,0.0,0.0,0.0,0.0,0.0,0.0,0.0,0.0,0.0,0.0,0.0,0.0,0.0,0.0,0.0,0.0,0.0,0.0,0.0,0.0,0.0,0.0,0.0,0.0,0.0,0.0,0.0,0.0,0.0,0.0,0.0,0.0,0.0,0.0,0.0,0.0,0.0,0.0,0.0,0.0,0.0,0.0,0.0,0.0,0.0,0.0,0.0,0.0,0.0,0.0,0.0,0.0,0.0,0.0,0.0,0.0,0.0,0.0,0.0,0.0,0.0,0.0,0.0,0.0,0.0,0.0,0.0,0.0,0.0,0.0,0.0,0.0,0.0,0.0,0.0,0.0,0.0,0.0,0.0,0.0,0.0,0.0,0.0,0.0,0.0,0.0,0.0,0.0,0.0,0.0,0.0,0.0,0.0,0.0,0.0,0.0,0.0,0.0,0.0,0.0,0.0,0.2256,0.2319,0.2435,0.2572,0.2755,0.295,0.0,0.0,0.0,0.0,0.0,0.0,0.0,0.0,0.0,0.0,0.0,0.0,0.0,0.0,0.0,0.0,0.0,0.0,0.0,0.0,0.0,0.0,0.0,0.0,0.0,0.0,0.0,0.0,0.0,0.0,0.0,0.0,0.0,0.0,0.0,0.0,0.0,0.0,0.0,0.0,0.0,0.0,0.0,0.0,0.0,0.0,0.0,0.0,0.0,0.0,0.0,0.0,0.0,0.0,0.0,0.0,0.0,0.0,0.0,0.0,0.0,0.0,0.0,0.0,0.0,0.0,0.0,0.0,0.0,0.0,0.0,0.0,0.0,0.0,0.0,0.0,0.0,0.0,0.0,0.0,0.0,0.0,0.0,0.0,0.0,0.0,0.0,0.0,0.0,0.0,0.0,0.0,0.0,0.0,0.0,0.0,0.0,0.0,0.0,0.0,0.0,0.0,0.0,0.0,0.0,0.0,0.0,0.0,0.0,0.2968,0.2796,0.2789,0.2974,0.3197,0.3317,0.3379,0.0,0.0,0.0,0.0,0.0,0.0,0.0,0.0,0.0,0.0,0.0,0.0,0.0,0.0,0.0,0.0,0.0,0.0,0.0,0.0,0.0,0.0,0.0,0.0,0.0,0.0,0.0,0.0,0.0,0.0,0.0,0.0,0.0,0.0,0.0,0.0,0.0,0.0,0.0,0.0,0.0,0.0,0.0,0.0,0.0,0.0,0.0,0.0,0.0,0.0,0.0,0.0,0.0,0.0,0.0,0.0,0.0,0.0,0.0,0.0,0.0,0.0,0.0,0.0,0.0,0.0,0.0,0.0,0.0,0.0,0.0,0.0,0.0,0.0,0.0,0.0,0.0,0.0,0.0,0.0,0.0,0.0,0.0,0.0,0.0,0.0,0.0,0.0,0.0,0.0,0.0,0.0,0.0,0.0,0.0,0.0,0.0,0.0,0.0,0.0,0.0,0.0,0.0,0.0,0.0,0.0,0.0,0.0,0.3854,0.3416,0.322,0.3325,0.3338,0.3237,0.0,0.0,0.0,0.0,0.0,0.0,0.0,0.0,0.0,0.0,0.0,0.0,0.0,0.0,0.0,0.0,0.0,0.0,0.0,0.0,0.0,0.0,0.0,0.0,0.0,0.0,0.0,0.0,0.0,0.0,0.0,0.0,0.0,0.0,0.0,0.0,0.0,0.0,0.0,0.0,0.0,0.0,0.0,0.0,0.0,0.0,0.0,0.0,0.0,0.0,0.0,0.0,0.0,0.0,0.0,0.0,0.0,0.0,0.0,0.0,0.0,0.0,0.0,0.0,0.0,0.0,0.0,0.0,0.0,0.0,0.0,0.0,0.0,0.0,0.0,0.0,0.0,0.0,0.0,0.0,0.0,0.0,0.0,0.0,0.0,0.0,0.0,0.0,0.0,0.0,0.0,0.0,0.0,0.0,0.0,0.0,0.0,0.0,0.0,0.0,0.0,0.0,0.0,0.0,0.0,0.0,0.0,0.0,0.0,0.3472,0.3881,0.4049,0.3886,0.3851,0.3716,0.0,0.0,0.0,0.0,0.0,0.0,0.0,0.0,0.0,0.0,0.0,0.0,0.0,0.0,0.0,0.0,0.0,0.0,0.0,0.0,0.0,0.0,0.0,0.0,0.0,0.0,0.0,0.0,0.0,0.0,0.0,0.0,0.0,0.0,0.0,0.0,0.0,0.0,0.0,0.0,0.0,0.0,0.0,0.0,0.0,0.0,0.0,0.0,0.0,0.0,0.0,0.0,0.0,0.0,0.0,0.0,0.0,0.0,0.0,0.0,0.0,0.0,0.0,0.0,0.0,0.0,0.0,0.0,0.0,0.0,0.0,0.0,0.0,0.0,0.0,0.0,0.0,0.0,0.0,0.0,0.0,0.0,0.0,0.0,0.0,0.0,0.0,0.0,0.0,0.0,0.0,0.0,0.0,0.0,0.0,0.0,0.0,0.0,0.0,0.0,0.0,0.0,0.0,0.0,0.0,0.0,0.0,0.0,0.4167,0.3769,0.4655,0.4934,0.4486,0.4112,0.3842,0.0,0.0,0.0,0.0,0.0,0.0,0.0,0.0,0.0,0.0,0.0,0.0,0.0,0.0,0.0,0.0,0.0,0.0,0.0,0.0,0.0,0.0,0.0,0.0,0.0,0.0,0.0,0.0,0.0,0.0,0.0,0.0,0.0,0.0,0.0,0.0,0.0,0.0,0.0,0.0,0.0,0.0,0.0,0.0,0.0,0.0,0.0,0.0,0.0,0.0,0.0,0.0,0.0,0.0,0.0,0.0,0.0,0.0,0.0,0.0,0.0,0.0,0.0,0.0,0.0,0.0,0.0,0.0,0.0,0.0,0.0,0.0,0.0,0.0,0.0,0.0,0.0,0.0,0.0,0.0,0.0,0.0,0.0,0.0,0.0,0.0,0.0,0.0,0.0,0.0,0.0,0.0,0.0,0.0,0.0,0.0,0.0,0.0,0.0,0.0,0.0,0.0,0.0,0.0,0.0,0.0,0.0,0.0,0.478,0.4418,0.5391,0.5626,0.4942,0.4213,0.375,0.0,0.0,0.0,0.0,0.0,0.0,0.0,0.0,0.0,0.0,0.0,0.0,0.0,0.0,0.0,0.0,0.0,0.0,0.0,0.0,0.0,0.0,0.0,0.0,0.0,0.0,0.0,0.0,0.0,0.0,0.0,0.0,0.0,0.0,0.0,0.0,0.0,0.0,0.0,0.0,0.0,0.0,0.0,0.0,0.0,0.0,0.0,0.0,0.0,0.0,0.0,0.0,0.0,0.0,0.0,0.0,0.0,0.0,0.0,0.0,0.0,0.0,0.0,0.0,0.0,0.0,0.0,0.0,0.0,0.0,0.0,0.0,0.0,0.0,0.0,0.0,0.0,0.0,0.0,0.0,0.0,0.0,0.0,0.0,0.0,0.0,0.0,0.0,0.0,0.0,0.0,0.0,0.0,0.0,0.0,0.0,0.0,0.0,0.0,0.0,0.0,0.0,0.0,0.0,0.0,0.0,0.0,0.0,0.4934,0.4356,0.506,0.5149,0.4487,0.429,0.4002,0.0,0.0,0.0,0.0,0.0,0.0,0.0,0.0,0.0,0.0,0.0,0.0,0.0,0.0,0.0,0.0,0.0,0.0,0.0,0.0,0.0,0.0,0.0,0.0,0.0,0.0,0.0,0.0,0.0,0.0,0.0,0.0,0.0,0.0,0.0,0.0,0.0,0.0,0.0,0.0,0.0,0.0,0.0,0.0,0.0,0.0,0.0,0.0,-1.052,0.0,0.0,0.0,0.0,0.0,0.0,0.0,0.0,0.0,0.0,0.0,0.0,0.0,0.0,0.0,0.0,0.0,0.0,0.0,0.0,0.0,0.0,0.0,0.0,0.0,0.0,0.0,0.0,0.0,0.0,0.0,0.0,0.0,0.0,0.0,0.0,0.0,0.0,0.0,0.0,0.0,0.0,0.0,0.0,0.0,0.0,0.0,0.0,0.0,0.0,0.0,0.0,0.0,0.0,0.0,0.0,0.0,0.0,0.0,0.5034,0.4613,0.5169,0.5149,0.4474,0.4309,0.4024,0.0,0.0,0.0,0.0,0.0,0.0,0.0,0.0,0.0,0.0,0.0,0.0,0.0,0.0,0.0,0.0,0.0,0.0,0.0,0.0,0.0,0.0,0.0,0.0,0.0,0.0,0.0,0.0,0.0,0.0,0.0,0.0,0.0,0.0,0.0,0.0,0.0,0.0,0.0,0.0,0.0,0.0,0.0,0.0,0.0,0.0,0.0,0.0,0.0,0.0,0.0,0.0,0.0,0.0,0.0,0.0,0.0,0.0,0.0,0.0,0.0,0.0,0.0,0.0,0.0,0.0,0.0,0.0,0.0,0.0,0.0,0.0,0.0,0.0,0.0,0.0,0.0,0.0,0.0,0.0,0.0,0.0,0.0,0.0,0.0,0.0,0.0,0.0,0.0,0.0,0.0,0.0,0.0,0.0,0.0,0.0,0.0,0.0,0.0,0.0,0.0,0.0,0.0,0.0,0.0,0.0,0.0,0.5307,0.5259,0.5096,0.5487,0.5366,0.4696,0.4369,0.4013,0.359,0.0,0.0,0.0,0.0,0.0,0.0,0.0,0.0,0.0,0.0,0.0,0.0,0.0,0.0,0.0,0.0,0.0,0.0,0.0,0.0,0.0,0.0,0.0,0.0,0.0,0.0,0.0,0.0,0.0,0.0,0.0,0.0,0.0,0.0,0.0,0.0,0.0,0.0,-1.049,-1.0291,0.0,0.0,0.0,0.0,0.0,0.0,0.0,0.0,-1.2325,0.0,0.0,0.0,0.0,0.0,0.0,0.0,0.0,0.0,0.0,0.0,0.0,0.0,0.0,0.0,0.0,0.0,0.0,0.0,0.0,0.0,0.0,0.0,0.0,0.0,0.0,0.0,0.0,0.0,0.0,0.0,0.0,0.0,0.0,0.0,0.0,0.0,0.0,0.0,0.0,0.0,0.0,0.0,0.0,0.0,0.0,0.0,0.0,0.0,0.0,0.0,0.0,0.0,0.0,0.0,0.0,0.5114,0.5666,0.5906,0.5812,0.5744,0.5453,0.4957,0.4574,0.4208,0.3847,0.0,0.0,0.0,0.0,0.0,0.0,0.0,0.0,0.0,0.0,0.0,0.0,0.0,0.0,0.0,0.0,0.0,0.0,0.0,0.0,0.0,0.0,0.0,0.0,0.0,0.0,0.0,0.0,0.0,0.0,0.0,0.0,0.0,0.0,0.0,0.0,0.0,0.0,0.0,-1.2878,-1.2633,0.0,0.0,0.0,0.0,0.0,0.0,0.0,0.0,-1.2493,0.0,0.0,0.0,0.0,0.0,0.0,0.0,0.0,0.0,0.0,0.0,0.0,0.0,0.0,0.0,0.0,0.0,0.0,0.0,0.0,0.0,0.0,0.0,0.0,0.0,0.0,0.0,0.0,0.0,0.0,0.0,0.0,0.0,0.0,0.0,0.0,0.0,0.0,0.0,0.0,0.0,0.0,0.0,0.0,0.0,0.0,0.0,0.0,0.0,0.0,0.0,0.0,0.0,0.0,0.0,0.2076,0.2242,0.2354,0.2485,0.4095,0.4845,0.4535,0.4345,0.4152,0.0,0.0,0.0,0.0,0.0,0.0,0.0,0.0,0.0,0.0,0.0,0.0,0.0,0.0,0.0,0.0,0.0,0.0,0.0,0.0,0.0,0.0,0.0,0.0,0.0,0.0,0.0,0.0,0.0,0.0,0.0,0.0,0.0,0.0,0.0,0.0,0.0,0.0,0.0,0.0,-1.3802,-1.3807,-1.6029,0.0,0.0,0.0,0.0,0.0,0.0,-1.2762,-1.2585,0.0,0.0,0.0,0.0,0.0,0.0,0.0,0.0,0.0,0.0,0.0,0.0,0.0,0.0,0.0,0.0,0.0,0.0,0.0,0.0,0.0,0.0,0.0,0.0,0.0,0.0,0.0,0.0,0.0,0.0,0.0,0.0,0.0,0.0,0.0,0.0,0.0,0.0,0.0,0.0,0.0,0.0,0.0,0.0,0.0,0.0,0.0,0.0,0.0,0.0,0.0,0.0,0.0,0.0,0.0,-0.0586,-0.071,-0.0665,-0.0162,0.2575,0.4108,0.416,0.4101,0.4058,0.0,0.0,0.0,0.0,0.0,0.0,0.0,0.0,0.0,0.0,0.0,0.0,0.0,0.0,0.0,0.0,0.0,0.0,0.0,0.0,0.0,0.0,0.0,0.0,0.0,0.0,0.0,0.0,0.0,0.0,0.0,0.0,0.0,0.0,0.0,0.0,0.0,0.0,0.0,0.0,0.0,-1.4698,-1.7015,-1.6089,0.0,0.0,0.0,0.0,-1.3346,-1.3135,0.0,0.0,0.0,0.0,0.0,0.0,0.0,0.0,0.0,0.0,0.0,0.0,0.0,0.0,0.0,0.0,0.0,0.0,0.0,0.0,0.0,0.0,0.0,0.0,0.0,0.0,0.0,0.0,0.0,0.0,0.0,0.0,0.0,0.0,0.0,0.0,0.0,0.0,0.0,0.0,0.0,0.0,0.0,0.0,0.0,0.0,0.0,0.0,0.0,0.0,0.0,0.0,0.0,0.0,0.0,0.0,-0.0073,0.0249,0.0862,0.19,0.2764,0.3587,0.4349,0.4152,0.4065,0.0,0.0,0.0,0.0,0.0,0.0,0.0,0.0,0.0,0.0,0.0,0.0,0.0,0.0,0.0,0.0,0.0,0.0,0.0,0.0,0.0,0.0,0.0,0.0,0.0,0.0,0.0,0.0,0.0,0.0,0.0,0.0,0.0,0.0,0.0,0.0,0.0,0.0,0.0,0.0,0.0,-1.5318,-1.6385,-1.5779,-1.5207,0.0,0.0,-1.5229,-1.5018,-1.4991,0.0,0.0,0.0,0.0,0.0,0.0,0.0,0.0,0.0,0.0,0.0,0.0,0.0,0.0,0.0,0.0,0.0,0.0,0.0,0.0,0.0,0.0,0.0,0.0,0.0,0.0,0.0,0.0,0.0,0.0,0.0,0.0,0.0,0.0,0.0,0.0,0.0,0.0,0.0,0.0,0.0,0.0,0.0,0.0,0.0,0.0,0.0,0.0,0.0,0.0,0.0,0.0,0.0,0.0,0.0,-0.3728,-0.3764,-0.3832,-0.3452,-0.25,-0.0339,0.1342,0.2503,0.258,0.293,0.0,0.0,0.0,0.0,0.0,0.0,0.0,0.0,0.0,0.0,0.0,0.0,0.0,0.0,0.0,0.0,0.0,0.0,0.0,0.0,0.0,0.0,0.0,0.0,0.0,0.0,0.0,0.0,0.0,0.0,0.0,0.0,0.0,0.0,0.0,0.0,0.0,0.0,0.0,0.0,0.0,0.0,-1.7818,-1.7208,0.0,0.0,0.0,-1.514,-1.4699,0.0,0.0,0.0,0.0,0.0,0.0,0.0,0.0,0.0,0.0,0.0,0.0,0.0,0.0,0.0,0.0,0.0,0.0,0.0,0.0,0.0,0.0,0.0,0.0,0.0,0.0,0.0,0.0,0.0,0.0,0.0,0.0,0.0,0.0,0.0,0.0,0.0,0.0,0.0,0.0,0.0,0.0,0.0,0.0,0.0,0.0,0.0,0.0,0.0,0.0,0.0,0.0,0.0,0.0,0.0,0.0,0.0,-0.6476,-0.6888,-0.6603,-0.5499,-0.2792,-0.0615,0.0823,0.1112,0.0,0.0,0.0,0.0,0.0,0.0,0.0,0.0,0.0,0.0,0.0,0.0,0.0,0.0,0.0,0.0,0.0,0.0,0.0,0.0,0.0,0.0,0.0,0.0,0.0,0.0,0.0,0.0,0.0,0.0,0.0,0.0,0.0,0.0,0.0,0.0,0.0,0.0,0.0,0.0,0.0,0.0,-1.7694,-1.8639,-1.8228,-1.7679,0.0,0.0,-1.582,-1.5449,-1.5937,-1.6268,0.0,0.0,0.0,0.0,0.0,0.0,0.0,0.0,0.0,0.0,0.0,0.0,0.0,0.0,0.0,0.0,0.0,0.0,0.0,0.0,0.0,0.0,0.0,0.0,0.0,0.0,0.0,0.0,0.0,0.0,0.0,0.0,0.0,0.0,0.0,0.0,0.0,0.0,0.0,0.0,0.0,0.0,0.0,0.0,0.0,0.0,0.0,0.0,0.0,0.0,0.0,0.0,0.0,0.0,0.0,-0.6086,-0.6428,-0.5704,-0.3755,-0.2793,-0.1486,0.0221,0.041,0.1046,0.0,0.0,0.0,0.0,0.0,0.0,0.0,0.0,0.0,0.0,0.0,0.0,0.0,0.0,0.0,0.0,0.0,0.0,0.0,0.0,0.0,0.0,0.0,0.0,0.0,0.0,0.0,0.0,0.0,0.0,0.0,0.0,0.0,0.0,0.0,0.0,0.0,0.0,0.0,0.0,0.0,-1.6975,-1.7777,-1.7889,-1.817,0.0,0.0,-1.8006,-1.8789,-1.8964,-1.8722,-1.7832,0.0,0.0,0.0,0.0,0.0,0.0,0.0,0.0,0.0,0.0,0.0,0.0,0.0,0.0,0.0,0.0,0.0,0.0,0.0,0.0,0.0,0.0,0.0,0.0,0.0,0.0,0.0,0.0,0.0,0.0,0.0,0.0,0.0,0.0,0.0,0.0,0.0,0.0,0.0,0.0,0.0,0.0,0.0,0.0,0.0,0.0,0.0,0.0,0.0,0.0,0.0,0.0,0.0,-0.6489,-0.5966,-0.6745,-0.6455,-0.5082,-0.4484,-0.3382,-0.1612,-0.0987,0.0,0.0,0.0,0.0,0.0,0.0,0.0,0.0,0.0,0.0,0.0,0.0,0.0,0.0,0.0,0.0,0.0,0.0,0.0,0.0,0.0,0.0,0.0,0.0,0.0,0.0,0.0,0.0,0.0,-1.4763,-1.4974,-1.4068,0.0,0.0,0.0,0.0,0.0,0.0,0.0,0.0,0.0,0.0,-1.8828,-2.0683,-2.0542,0.0,0.0,-2.0055,-1.8823,-1.6882,-1.8113,-1.8196,-1.4971,-1.5687,0.0,0.0,0.0,0.0,0.0,0.0,0.0,0.0,0.0,0.0,0.0,0.0,0.0,0.0,0.0,0.0,0.0,0.0,0.0,0.0,0.0,0.0,0.0,0.0,0.0,0.0,0.0,0.0,0.0,0.0,0.0,0.0,0.0,0.0,0.0,0.0,0.0,0.0,0.0,0.0,0.0,0.0,0.0,0.0,0.0,0.0,0.0,0.0,0.0,0.0,0.0,0.0,-0.6441,-0.5927,-0.7057,-0.7128,-0.6145,-0.5764,-0.4772,-0.3166,-0.2497,-0.1301,0.0,0.0,0.0,0.0,0.0,0.0,0.0,0.0,0.0,0.0,0.0,0.0,0.0,0.0,0.0,0.0,0.0,0.0,0.0,0.0,0.0,0.0,0.0,0.0,0.0,0.0,0.0,0.0,-1.3249,-1.3846,-1.3555,0.0,0.0,0.0,0.0,0.0,0.0,0.0,0.0,0.0,0.0,-2.0029,-2.1559,-2.0483,-1.9413,-1.9255,-1.785,-1.6388,-1.533,-1.5949,-1.6198,-1.5272,0.0,0.0,0.0,0.0,0.0,0.0,0.0,0.0,0.0,0.0,0.0,0.0,0.0,0.0,0.0,0.0,0.0,0.0,0.0,0.0,0.0,0.0,0.0,0.0,0.0,0.0,0.0,0.0,0.0,0.0,0.1107,0.0,0.0,0.0,0.0,0.0,0.0,0.0,0.0,0.0,0.0,0.0,0.0,0.0,0.0,0.0,0.0,0.0,0.0,0.0,0.0,0.0,0.0,-0.6526,-0.6036,-0.725,-0.7385,-0.6416,-0.6258,-0.5492,-0.4061,-0.3944,-0.2846,-0.0501,0.0,0.0,0.0,0.0,0.0,0.0,0.0,0.0,0.0,0.0,0.0,0.0,0.0,0.0,0.0,0.0,0.0,0.0,0.0,0.0,0.0,0.0,0.0,0.0,0.0,0.0,-0.419,-0.6582,-1.0008,0.0,0.0,0.0,0.0,0.0,0.0,0.0,0.0,0.0,0.0,-1.9299,-2.0099,-1.9415,-1.6562,-1.4536,-1.3832,-1.0813,-1.017,-1.4949,-1.2722,-1.2824,0.0,0.0,0.0,0.0,0.0,0.0,0.0,0.0,0.0,0.0,0.0,0.0,0.0,0.0,0.0,0.0,0.0,0.0,0.0,0.0,0.0,0.0,0.0,0.0,0.0,0.0,0.0,-0.0112,-0.0037,0.0,0.0,0.0,0.0,0.0,0.0,0.0,0.0,0.0,0.0,0.0,-0.2182,-0.2182,0.0,0.0,0.0,0.0,0.0,0.0,0.0,0.0,0.0,0.0,0.0,0.0,-0.6123,-0.581,-0.7162,-0.7622,-0.7031,-0.6642,-0.5982,-0.505,-0.4165,-0.264,-0.0302,0.0,0.0,0.0,0.0,0.0,0.0,0.0,0.0,0.0,0.0,0.0,0.0,0.0,0.0,0.0,0.0,0.0,0.0,0.0,0.0,0.0,0.0,0.0,0.0,0.0,-1.1678,0.0,0.0,0.0,0.0,0.0,0.0,0.0,0.0,0.0,0.0,0.0,-1.7722,-1.9035,-1.8826,-1.8879,-1.9733,-1.7188,-1.6146,0.0,0.0,0.0,0.0,0.0,0.0,0.0,0.0,0.0,0.0,0.0,0.0,0.0,0.0,-1.134,-1.283,-1.5478,-1.7686,-1.8207,0.0,0.0,0.0,0.0,0.0,0.0,0.0,0.0,0.0,0.0,0.0,0.0,0.0,0.0,0.0,0.0,-0.0982,0.0,0.0,0.0,0.0,0.0,0.0,0.0,0.0,-0.217,-0.258,-0.2926,-0.2926,-0.3133,0.0,-0.3401,-0.32,0.0,0.0,0.0,0.0,0.0,0.0,0.0,0.0,-0.5848,-0.5786,-0.7103,-0.7681,-0.7413,-0.7079,-0.6534,-0.576,-0.4216,-0.2617,-0.0891,-0.039,0.0137,0.0,0.0,0.0,0.0,0.0,0.0,0.0,0.0,0.0,0.0,0.0,0.0,0.0,0.0,0.0,0.0,0.0,0.0,0.0,0.0,0.0,0.0,0.0,-1.1212,0.0,0.0,0.0,0.0,0.0,0.0,0.0,0.0,0.0,-1.7112,-1.7852,-1.865,-1.9593,-1.9381,-1.9086,-1.8896,0.0,0.0,0.0,0.0,0.0,0.0,0.0,-0.7141,-0.6876,-0.874,-1.1562,-1.5589,-1.5377,-1.4973,-1.6117,0.0,0.0,-1.4869,-1.7235,-1.9492,-2.038,-2.0502,-2.0326,-1.9761,-1.9901,-1.9922,0.0,0.0,0.0,0.0,0.0,0.0,0.0,0.0,-0.2099,-0.1745,0.0,-0.1711,0.0,0.0,0.0,0.0,0.0,-0.2186,0.0,0.0,-0.3484,-0.3715,-0.334,-0.3442,-0.3609,-0.365,-0.3257,-0.3201,-0.3503,-0.4054,0.0,0.0,0.0,0.0,0.0,0.0,-0.5708,-0.6005,-0.7064,-0.7658,-0.7616,-0.7503,-0.7069,-0.6204,-0.4278,-0.2899,-0.2232,-0.1521,-0.1059,-0.0851,-0.026,0.0,0.0,0.0,0.0,0.0,0.0,0.0,0.0,0.0,0.0,0.0,0.0,0.0,0.0,0.0,0.0,0.0,0.0,0.0,0.0,-0.7014,0.0,0.0,0.0,0.0,0.0,0.0,0.0,0.0,0.0,0.0,-1.6621,-1.839,-1.9575,-1.9261,0.0,0.0,0.0,0.0,-0.8941,-0.5869,-0.0392,0.1557,-0.2629,-0.38,-0.7007,-1.5002,0.0,0.0,-2.201,-1.6654,-1.319,-1.6072,-1.7825,-1.8199,-1.7022,-1.7256,-1.82,-2.0404,-2.094,-2.0702,-2.0687,-2.1357,-2.1828,-0.2329,0.0,0.0,0.0,0.0,-0.1786,-0.1959,-0.2379,-0.2219,-0.2085,-0.1934,-0.2135,0.0,0.0,0.0,0.0,0.0,0.0,-0.2695,-0.2871,-0.3252,-0.3521,-0.3673,-0.3676,-0.3777,-0.3929,-0.3748,-0.3778,-0.387,-0.4024,-0.39,-0.3572,0.0,0.0,0.0,0.0,-0.5162,-0.5471,-0.6532,-0.6907,-0.6485,-0.7076,-0.7012,-0.6204,-0.5218,-0.4174,-0.3014,-0.2415,-0.1859,-0.1309,-0.1108,0.0,0.0,0.0,0.0,0.0,0.0,0.0,0.0,0.0,0.0,0.0,0.0,0.0,0.0,0.0,0.0,0.0,0.0,0.0,-1.26,-1.3081,-1.3094,0.0,0.0,0.0,0.0,0.0,0.0,0.0,0.0,0.0,-1.632,-1.6693,-1.6801,0.0,0.0,-1.4761,-1.345,-1.1372,-1.069,-1.2792,0.0,0.0,0.0,-0.9211,-0.7876,-1.0134,-1.3769,-1.6945,-1.8391,-1.9939,-2.1334,-2.2243,-2.2924,-2.3182,-2.2879,-2.2844,-2.3171,-2.3991,-2.4155,-2.3897,-2.3323,-2.3356,-2.3328,-0.3099,-0.2544,-0.2411,-0.2464,-0.2641,-0.2533,-0.2658,-0.2931,-0.2863,-0.2642,-0.2434,-0.275,-0.2534,-0.1971,-0.2092,0.0,0.0,0.0,-0.3021,-0.3327,-0.3459,-0.3639,-0.3863,-0.3866,-0.3949,-0.4107,-0.406,-0.4138,-0.4192,-0.4086,-0.3915,-0.3722,0.0,0.0,-0.367,-0.4318,-0.4791,-0.5088,-0.5967,-0.6299,-0.5915,-0.6442,-0.6379,-0.5708,-0.5404,-0.4728,-0.3461,-0.3461,-0.312,-0.2517,-0.2596,-0.2446,0.0,0.0,0.0,0.0,0.0,0.0,0.0,0.0,0.0,0.0,0.0,-0.2826,0.0,0.0,0.0,0.0,-1.3318,-1.4847,-1.4276,-1.4457,0.0,0.0,0.0,0.0,0.0,0.0,0.0,-1.18,-1.36,-1.5037,-1.5278,-1.5226,-1.5485,-1.6354,-1.5533,-1.432,-1.2839,0.0,-1.1387,-1.3049,-0.985,-0.8222,-1.0879,-1.0462,-1.0331,-1.2323,-1.5109,-1.7506,-1.8373,-2.1095,-2.3082,-2.35,-2.3641,-2.379,-2.419,-2.4467,-2.4864,-2.5364,-2.5466,-2.5265,-2.4728,-2.4641,-2.4467,-0.3704,-0.3478,-0.315,-0.3216,-0.3489,-0.3495,-0.3545,-0.36,-0.3748,-0.3411,-0.283,-0.3375,-0.313,-0.234,-0.2425,0.0,-0.3069,-0.328,-0.3498,-0.3813,-0.3916,-0.4019,-0.4019,-0.4019,-0.4094,-0.4177,-0.4177,-0.4244,-0.4467,-0.4194,-0.4134,-0.4118,-0.3772,-0.3622,-0.3629,-0.4153,-0.4509,-0.4721,-0.5365,-0.5707,-0.5819,-0.577,-0.5505,-0.4972,-0.5189,-0.478,-0.3788,-0.4457,-0.4673,-0.411,-0.434,-0.4523,-0.4477,0.0,0.0,0.0,0.0,0.0,0.0,0.0,0.0,0.0,0.0,0.0,0.0,0.0,0.0,0.0,-1.3664,0.0,-1.3672,-1.2872,0.0,0.0,0.0,-1.1893,-1.3305,-1.2925,-1.2709,-1.3095,0.0,0.0,-1.402,0.0,-1.5181,-1.7867,-1.803,-1.6794,-1.3813,-1.2719,-1.1433,-0.9525,-0.7293,-0.5978,-0.7407,-0.9928,-1.3566,-1.7711,-1.9608,-1.9602,-2.0079,-2.0285,-2.0582,-2.1396,-2.1353,-2.1528,-2.2376,-2.2919,-2.3621,-2.4622,-2.5101,-2.5244,-2.5215,-2.5234,-2.5186,-0.4489,-0.4516,-0.4207,-0.3877,-0.3574,-0.3625,-0.3723,-0.3767,-0.3723,-0.3639,-0.3482,-0.3614,-0.3575,-0.3336,-0.3426,-0.3489,-0.362,-0.3752,-0.3883,-0.3966,-0.3969,-0.4019,-0.4019,-0.4019,-0.3989,-0.4073,-0.4023,-0.4094,-0.4128,-0.4153,-0.3978,-0.3625,-0.3601,-0.3651,-0.3672,-0.3743,-0.386,-0.4131,-0.4546,-0.506,-0.5775,-0.5553,-0.5473,-0.5596,-0.5292,-0.4942,-0.4453,-0.4725,-0.4842,-0.4728,-0.5197,-0.5288,-0.4902,-0.4194,0.0,0.0,0.0,0.0,0.0,0.0,0.0,0.0,0.0,-0.6234,-0.705,0.0,-0.8229,0.0,-1.2382,-1.4326,-1.476,-1.4151,0.0,0.0,-1.1744,-1.159,-1.1382,-1.2955,-1.3457,-1.1892,-1.3152,-1.4286,-1.4572,-1.4274,-1.4676,-1.6446,-1.4972,-1.316,-1.1737,-1.2455,-1.2838,-1.2184,-1.2743,-1.3731,-1.3458,-1.4302,-1.5379,-1.6979,-1.7303,-1.7698,-1.8789,-1.9531,-2.003,-2.0422,-2.0985,-2.1257,-2.112,-2.1228,-2.143,-2.199,-2.3544,-2.5053,-2.5201,-2.516,-2.5141,-0.476,-0.4761,-0.4571,-0.4305,-0.3978,-0.3978,-0.3911,-0.3798,-0.3856,-0.3737,-0.3574,-0.3627,-0.3677,-0.3677,-0.3767,-0.3813,-0.3813,-0.3916,-0.4019,-0.4019,-0.4019,-0.4019,-0.4019,-0.4019,-0.4006,-0.407,-0.407,-0.4103,-0.4219,-0.4304,-0.4194,-0.3906,-0.3975,-0.3921,-0.3739,-0.3369,-0.3198,-0.3368,-0.3752,-0.4296,-0.4954,-0.4869,-0.4782,-0.4753,-0.4746,-0.4463,-0.3847,-0.431,-0.4507,-0.4307,-0.4911,-0.5158,-0.4845,-0.4314,-0.3983,0.0,0.0,0.0,0.0,0.0,0.0,0.0,0.0,0.0,0.0,0.0,-0.8208,0.0,-1.1111,0.0,-1.2046,-1.2018,-1.1889,-1.1537,-1.1803,-1.2235,-1.2712,-1.4155,-1.459,-1.3361,-1.411,-1.4792,-1.4915,-1.4407,-1.4211,-1.4826,-1.3803,-1.2745,-1.2253,-1.2859,-1.3368,-1.3357,-1.4313,-1.5157,-1.5306,-1.5427,-1.5529,-1.5694,-1.5828,-1.6187,-1.7084,-1.7567,-1.7951,-1.8495,-1.89,-1.9258,-1.9487,-1.9763,-1.9988,-2.057,-2.1678,-2.2937,-2.3712,-2.4102,-2.4332,-0.4882,-0.4758,-0.4766,-0.4702,-0.4497,-0.4497,-0.4273,-0.3899,-0.4014,-0.3944,-0.3622,-0.3658,-0.37,-0.3754,-0.3831,-0.3919,-0.3868,-0.4026,-0.4077,-0.4077,-0.4077,-0.4077,-0.4077,-0.4077,-0.4093,-0.422,-0.4224,-0.4338,-0.446,-0.4536,-0.448,-0.4408,-0.4428,-0.4203,-0.3788,-0.3109,-0.2762,-0.2813,-0.3233,-0.3646,-0.4006,-0.404,-0.385,-0.3396,-0.382,-0.3665,-0.2831,-0.3663,-0.3947,-0.3615,-0.4224,-0.4675,-0.4848,-0.43,-0.4143,0.0,-0.3822,0.0,0.0,0.0,0.0,0.0,0.0,0.0,0.0,-0.7665,-0.827,-0.8911,-1.0174,-1.0326,-0.8847,-0.9488,-1.057,-1.2024,-1.2468,-1.3368,-1.5161,-1.5511,-1.5564,-1.5576,-1.5229,-1.4935,-1.4886,-1.4433,-1.3887,-1.3658,-1.3713,-1.3719,-1.3619,-1.3605,-1.3694,-1.3611,-1.3631,-1.4085,-1.4217,-1.46,-1.4905,-1.4863,-1.4848,-1.5057,-1.5599,-1.5524,-1.5542,-1.6281,-1.6518,-1.6718,-1.7584,-1.8079,-1.8541,-1.9021,-1.9321,-2.0034,-2.1643,-2.2417,-2.2908,-0.5493,-0.5534,-0.5297,-0.5152,-0.5116,-0.5045,-0.4693,-0.4285,-0.459,-0.4684,-0.4624,-0.4384,-0.4336,-0.4498,-0.4433,-0.4379,-0.4379,-0.4379,-0.4379,-0.4436,-0.4379,-0.4433,-0.4433,-0.4379,-0.445,-0.4474,-0.4423,-0.4488,-0.4519,-0.4589,-0.4412,-0.3913,-0.4014,-0.3789,-0.3244,0.0,0.0,0.0,-0.3719,-0.394,-0.399,-0.3485,-0.3182,-0.3008,-0.3108,0.0,-0.2971,-0.3494,-0.3835,-0.3907,-0.4408,0.0,0.0,0.0,0.0,0.0,0.0,0.0,0.0,0.0,0.0,0.0,-0.5995,-0.6283,-0.7022,-0.7434,-0.8423,-1.0285,-1.0864,-1.1541,-1.2607,-1.3149,-1.3579,-1.3902,-1.4204,-1.4564,-1.4971,-1.4929,-1.4888,-1.4877,-1.4494,-1.4239,-1.4234,-1.3987,-1.3895,-1.3899,-1.393,-1.396,-1.4094,-1.4218,-1.4529,-1.4911,-1.4917,-1.488,-1.4688,-1.4778,-1.488,-1.4686,-1.4158,-1.4255,-1.4957,-1.5057,-1.4938,-1.5356,-1.5664,-1.5757,-1.5372,-1.5271,-1.5738,-1.6143,-1.6081,-1.6864,-2.015,-2.0722,-2.0439,-0.5798,0.0,-0.5656,-0.5477,0.0,-0.5409,-0.5211,-0.4806,-0.4801,-0.4735,-0.4665,-0.4527,-0.4496,-0.4618,-0.4601,-0.4568,-0.4626,-0.4687,-0.4687,-0.4684,-0.4609,-0.4632,-0.4628,-0.4497,-0.4463,-0.4463,-0.4463,-0.4463,-0.4522,-0.4597,-0.4426,-0.4132,-0.4204,-0.4122,-0.3894,-0.3955,-0.39,-0.3727,-0.396,-0.4201,-0.4439,-0.4131,-0.3825,-0.3528,0.0,0.0,0.0,0.0,0.0,0.0,0.0,0.0,0.0,0.0,0.0,-0.6013,-0.5668,-0.5755,-0.6615,-0.673,-0.7028,-0.7532,-0.7889,-0.7908,-0.7565,-0.8259,-0.9197,-1.0314,-1.0731,-1.1286,-1.2143,-1.2618,-1.3016,-1.3437,-1.3569,-1.3874,-1.4494,-1.4384,-1.4323,-1.4461,-1.4121,-1.3863,-1.4123,-1.3854,-1.3749,-1.4026,-1.4231,-1.4453,-1.4752,-1.4589,-1.4597,-1.5142,-1.5691,-1.5797,-1.541,-1.546,-1.5422,-1.5116,-1.4672,-1.4675,-1.5161,-1.5185,-1.5118,-1.5097,-1.5314,-1.5279,-1.4777,-1.4595,-1.4732,-1.5073,-1.4937,-1.5145,-1.7284,-1.8162,-1.8597,-0.5996,-0.5884,-0.5884,-0.5798,-0.563,-0.5775,-0.5682,-0.5347,0.0,0.0,0.0,-0.4593,-0.4577,-0.4639,-0.4681,-0.4732,-0.4732,-0.4857,-0.4918,-0.4914,-0.4789,-0.4731,-0.4724,-0.4602,-0.4587,-0.4504,-0.4556,-0.4543,-0.4463,-0.4463,-0.4463,-0.4463,-0.4463,-0.4524,-0.4653,-0.4802,-0.4637,-0.4121,-0.4171,-0.4418,-0.4793,-0.477,-0.4513,-0.4082,-0.4058,-0.3883,-0.3515,-0.3453,-0.3467,-0.3541,-0.3666,-0.3824,-0.4019,-0.4087,-0.4412,-0.5238,-0.5339,-0.5966,-0.7375,-0.7708,-0.816,-0.9079,-0.9584,-0.9409,-0.8483,-0.9479,-1.0102,-1.011,-1.0506,-1.0761,-1.0769,-1.1116,-1.1651,-1.2355,-1.2291,-1.2712,-1.3742,-1.3654,-1.3504,-1.3871,-1.368,-1.3615,-1.3995,-1.3909,-1.3895,-1.4201,-1.4718,-1.5124,-1.538,-1.5128,-1.5039,-1.548,-1.6112,-1.6374,-1.5955,-1.602,-1.6106,-1.5743,-1.5447,-1.5416,-1.5603,-1.5539,-1.5335,-1.5088,-1.5027,-1.4904,-1.4653,-1.4475,-1.4554,-1.4753,-1.4455,-1.419,-1.4367,-1.5441,-1.6415,-0.6213,-0.6196,-0.6273,-0.6122,-0.5925,-0.5922,-0.5848,-0.5718,-0.525,-0.5097,-0.5294,-0.497,-0.4915,-0.5031,-0.4914,-0.4857,-0.4857,-0.4857,-0.4918,0.0,-0.4897,-0.4887,-0.4884,-0.4863,-0.4785,-0.4667,-0.466,-0.4589,-0.4473,-0.4519,-0.4463,-0.4463,-0.4463,-0.4529,-0.4504,-0.4646,-0.4653,-0.4578,-0.4351,-0.4293,-0.454,-0.413,-0.4001,-0.4073,-0.3968,-0.3831,-0.3795,-0.369,-0.3573,-0.3566,-0.3481,-0.3946,-0.4949,-0.5042,-0.5576,-0.6683,-0.7488,-0.8017,-0.824,-0.8682,-0.8978,-0.9022,-0.9113,-0.9436,-1.0081,-1.0305,-1.0419,-1.0419,-1.071,-1.0956,-1.0998,-1.1292,-1.1525,-1.1706,-1.1908,-1.2153,-1.2404,-1.2338,-1.2355,-1.25,-1.2802,-1.317,-1.3468,-1.4142,-1.4795,-1.5076,-1.5269,-1.569,-1.5699,-1.6199,-1.6557,-1.6698,-1.6716,-1.6623,-1.6262,-1.6244,-1.6279,-1.6458,-1.5784,-1.5556,-1.6095,-1.5669,-1.5206,-1.4946,-1.4873,-1.4655,-1.4294,-1.389,-1.3942,-1.4049,-1.3628,-1.3192,-1.3402,-1.3658,-1.3518,-0.6261,-0.6261,-0.6261,-0.6224,-0.6156,-0.6156,-0.6067,-0.5922,-0.5706,-0.555,-0.5488,-0.5346,-0.5269,-0.5254,-0.5189,-0.5159,-0.5159,-0.5159,-0.5159,-0.5152,-0.507,-0.5033,-0.503,-0.4955,-0.4884,-0.4816,-0.4816,-0.4735,-0.4652,-0.4585,-0.4597,-0.4522,-0.4463,-0.4463,-0.4467,-0.4531,-0.4568,-0.4572,-0.4555,-0.4639,-0.484,-0.459,-0.4623,-0.4758,-0.4756,-0.478,-0.4843,-0.4843,-0.4817,-0.4819,-0.4763,-0.5029,-0.5527,-0.551,-0.5903,-0.6847,-0.7545,-0.8128,-0.8487,-0.9195,-0.9588,-0.9563,-0.9653,-0.9873,-1.0367,-1.0249,-1.0146,-1.0138,-1.0352,-1.0454,-1.0454,-1.0643,-1.083,-1.1015,-1.1111,-1.1305,-1.1711,-1.1865,-1.2167,-1.2628,-1.3283,-1.388,-1.4386,-1.4776,-1.5059,-1.5266,-1.5273,-1.5157,-1.5093,-1.5359,-1.578,-1.6192,-1.6146,-1.612,-1.6161,-1.6066,-1.6009,-1.6124,-1.5723,-1.5649,-1.5976,-1.5649,-1.5355,-1.5141,-1.4982,-1.4764,-1.4336,-1.41,-1.3972,-1.3903,-1.3506,-1.3192,-1.3184,-1.284,-1.248,-0.6261,-0.6261,-0.6261,-0.6261,-0.6261,-0.6261,-0.619,-0.6084,-0.6081,-0.5935,-0.5705,-0.5654,-0.5572,-0.5467,-0.546,-0.546,-0.546,-0.546,-0.546,-0.5443,-0.5304,-0.5233,-0.522,-0.5087,-0.5003,-0.4972,-0.4965,-0.4891,-0.4758,-0.4741,-0.4667,-0.4524,-0.4536,-0.4463,-0.4463,-0.4463,-0.4463,-0.4477,-0.4694,-0.4884,-0.5088,-0.5154,-0.5253,-0.5429,-0.5599,-0.5683,-0.5617,-0.5822,-0.5892,-0.5822,-0.5892,-0.5892,-0.5885,-0.5769,-0.601,-0.6497,-0.7306,-0.81,-0.8883,-0.9532,-0.998,-1.002,-1.007,-1.0186,-1.0143,-0.9962,-0.9879,-0.994,-1.0143,-1.0189,-1.0196,-1.0189,-1.0264,-1.0533,-1.0498,-1.0702,-1.1285,-1.1593,-1.1954,-1.2702,-1.3377,-1.4057,-1.4691,-1.4713,-1.4623,-1.477,-1.4562,-1.4354,-1.4403,-1.4384,-1.4636,-1.5012,-1.5179,-1.5229,-1.5592,-1.5505,-1.5325,-1.5375,-1.5278,-1.5305,-1.5489,-1.5608,-1.5541,-1.5299,-1.5279,-1.5068,-1.4631,-1.44,-1.4297,-1.4086,-1.3681,-1.3394,-1.3365,-1.2966,-1.2435,-0.6342,-0.6261,-0.6264,-0.6261,-0.6261,-0.6261,-0.6247,-0.6237,-0.6237,-0.6149,-0.5976,-0.5844,-0.5776,-0.5762,-0.5749,-0.5745,-0.5745,-0.5759,-0.5752,-0.5732,-0.5613,-0.5549,-0.5528,-0.5389,-0.525,-0.5131,-0.5118,-0.5047,-0.4904,-0.4894,-0.4819,-0.4667,-0.4587,-0.4467,-0.4467,-0.4519,-0.4463,-0.4463,-0.4543,-0.4688,-0.5024,-0.5246,-0.5463,-0.5665,-0.581,-0.5756,-0.5606,-0.5822,-0.5822,-0.5686,-0.5822,-0.5892,-0.5888,-0.5873,-0.5932,-0.6056,-0.7335,-0.865,-0.9797,-1.002,-0.9967,-0.9771,-0.9829,-0.9829,-0.9822,-0.987,-1.0101,-1.0378,-1.0549,-1.0512,-1.0549,-1.0526,-1.049,-1.0572,-1.0558,-1.0632,-1.0778,-1.0959,-1.1087,-1.1166,-1.2108,-1.2483,-1.282,-1.3132,-1.3429,-1.3815,-1.3811,-1.3762,-1.3757,-1.3817,-1.3844,-1.4009,-1.4135,-1.4266,-1.4474,-1.4375,-1.4429,-1.4582,-1.4532,-1.4711,-1.5069,-1.5143,-1.5127,-1.5226,-1.5387,-1.5127,-1.5012,-1.4859,-1.4484,-1.4288,-1.3967,-1.3626,-1.3597,-1.3313,-1.28,-0.6335,-0.6349,-0.6349,-0.6335,-0.6264,-0.6261,-0.6261,-0.6261,-0.6261,-0.6224,-0.6162,-0.6101,-0.5973,-0.5803,-0.58,-0.58,-0.58,-0.58,-0.58,-0.5796,-0.5739,-0.5715,-0.5708,-0.5654,-0.5545,-0.5413,-0.5403,-0.5281,-0.5067,-0.49,-0.4887,-0.4816,-0.4674,-0.4599,-0.4589,-0.4507,-0.4463,-0.4463,-0.4463,-0.4549,-0.4738,-0.488,-0.5036,-0.5185,-0.5377,-0.5519,-0.5539,-0.5678,-0.5784,-0.5811,-0.5954,-0.6083,-0.6083,-0.6152,-0.6222,-0.6284,-0.7582,-0.896,-1.0325,-1.0374,-1.0327,-1.0207,-1.0323,-1.0377,-1.0323,-1.0499,-1.0681,-1.082,-1.0521,-1.0301,-1.0315,-1.0358,-1.0415,-1.0473,-1.053,-1.0587,-1.058,-1.088,-1.1164,-1.1431,-1.1919,-1.2355,-1.2595,-1.2528,-1.2466,-1.2486,-1.2483,-1.2428,-1.2456,-1.2397,-1.2397,-1.2456,-1.267,-1.3389,-1.4057,-1.4194,-1.4131,-1.4184,-1.4194,-1.4365,-1.4488,-1.4557,-1.4527,-1.4723,-1.4717,-1.4788,-1.4914,-1.4801,-1.46,-1.4506,-1.4194,-1.3848,-1.3551,-1.331,-1.3009,-0.6478,-0.6403,-0.6495,-0.6454,-0.6318,-0.6315,-0.6295,-0.6338,-0.6261,-0.6261,-0.6261,-0.6261,-0.6139,-0.5949,-0.5928,-0.5925,-0.5928,-0.5925,-0.5928,-0.5922,-0.5884,-0.5861,-0.5861,-0.5817,-0.5745,-0.5661,-0.5644,-0.5511,-0.5257,-0.506,-0.4979,-0.4952,-0.4826,-0.4731,-0.4684,-0.4575,-0.4556,-0.4522,-0.4519,-0.4574,-0.4591,-0.4681,-0.4817,-0.4903,-0.5072,-0.5211,-0.5384,-0.5513,-0.5627,-0.5811,-0.5986,-0.6144,-0.6209,-0.6322,-0.6548,-0.7003,-0.7907,-0.9134,-1.0491,-1.0618,-1.0618,-1.0624,-1.0681,-1.0751,-1.0744,-1.087,-1.094,-1.0954,-1.0532,-1.0283,-1.0446,-1.0498,-1.058,-1.0559,-1.0661,-1.0704,-1.0659,-1.0815,-1.1035,-1.1415,-1.1479,-1.1768,-1.1922,-1.1631,-1.1326,-1.1277,-1.1167,-1.1209,-1.1404,-1.1489,-1.154,-1.1601,-1.2034,-1.262,-1.3623,-1.373,-1.3737,-1.3789,-1.373,-1.376,-1.3863,-1.3902,-1.4029,-1.4233,-1.4053,-1.4048,-1.4292,-1.4388,-1.4495,-1.4706,-1.443,-1.3968,-1.381,-1.3561,-1.335,-0.6685,-0.6678,-0.6685,-0.6515,-0.6464,-0.6461,-0.6386,-0.6119,-0.619,-0.6264,-0.618,-0.618,-0.6251,-0.6224,-0.613,-0.623,-0.623,-0.6217,-0.6213,-0.6196,-0.6081,-0.602,-0.601,-0.5874,-0.5803,-0.5796,-0.5793,-0.5711,-0.5545,-0.527,-0.5121,-0.5118,-0.4982,-0.484,-0.4731,-0.4694,-0.4609,-0.4549,-0.465,-0.4691,-0.4688,-0.4802,-0.4889,-0.4933,-0.5009,-0.52,-0.535,-0.529,-0.5354,-0.5605,-0.5825,-0.5974,-0.6168,-0.6314,-0.6911,-0.8076,-0.8404,-0.9052,-1.0268,-1.0508,-1.0564,-1.0584,-1.0544,-1.0598,-1.0537,-1.0537,-1.06,-1.0598,-1.0483,-1.0636,-1.1008,-1.1012,-1.1009,-1.0952,-1.1011,-1.0872,-1.0624,-1.055,-1.0637,-1.0627,-1.0509,-1.0363,-0.9948,-0.9747,-1.0127,-1.0474,-1.0581,-1.0881,-1.1506,-1.1735,-1.1862,-1.2049,-1.2324,-1.2565,-1.2452,-1.2941,-1.3116,-1.3192,-1.337,-1.3239,-1.3348,-1.3471,-1.3681,-1.3854,-1.3888,-1.3882,-1.3784,-1.3862,-1.4053,-1.4166,-1.4105,-1.3859,-1.3861,-1.3753,-1.3606,-0.6848,-0.6753,-0.6062,-0.5744,-0.5706,-0.5706,-0.5306,-0.4723,-0.4718,-0.4678,-0.4698,-0.4691,-0.5004,-0.5473,-0.4927,-0.5318,-0.6257,-0.6261,-0.6261,-0.6254,-0.6203,-0.6176,-0.6173,-0.6118,-0.6037,-0.5959,-0.5949,-0.5867,-0.5722,-0.5518,-0.5426,-0.5379,-0.5172,-0.502,-0.4965,-0.488,-0.4762,-0.468,-0.4727,-0.4794,-0.4702,-0.4908,-0.5049,-0.505,-0.4989,-0.5013,-0.5236,-0.5177,-0.5229,-0.5457,-0.564,-0.5728,-0.5797,-0.5976,-0.6511,-0.7368,-0.7849,-0.8487,-0.9346,-0.9793,-1.0013,-1.003,-0.9999,-1.002,-1.0,-0.9993,-1.0,-1.0007,-1.0007,-1.018,-1.0387,-1.0579,-1.0579,-1.0432,-1.0479,-1.0494,-1.0358,-1.0137,-1.0057,-1.0063,-0.994,-0.9686,-0.9662,-0.9751,-1.0056,-1.0331,-1.0684,-1.1104,-1.146,-1.1603,-1.1626,-1.1817,-1.2001,-1.2158,-1.2199,-1.2714,-1.312,-1.3298,-1.3417,-1.3717,-1.3932,-1.3974,-1.4181,-1.3949,-1.3912,-1.3844,-1.3781,-1.3905,-1.395,-1.3607,-1.3564,-1.3497,-1.3708,-1.3475,-1.3576,-0.6034,-0.5933,-0.5248,-0.4937,-0.4907,-0.4907,-0.4513,-0.3854,-0.385,-0.38,-0.3808,-0.3795,-0.4097,-0.446,-0.4064,-0.4377,-0.5473,-0.5709,-0.6025,-0.6261,-0.6261,-0.6261,-0.6261,-0.6261,-0.621,-0.6108,-0.6047,-0.5973,-0.5871,-0.5728,-0.5661,-0.5637,-0.5396,-0.5254,-0.5192,-0.506,-0.4911,-0.4785,-0.4838,-0.4873,-0.4826,-0.499,-0.5073,-0.5073,-0.5069,-0.5064,-0.5182,-0.5072,-0.5121,-0.535,-0.547,-0.558,-0.5691,-0.5828,-0.6186,-0.6837,-0.725,-0.7914,-0.8681,-0.9181,-0.9502,-0.9702,-0.9697,-0.9686,-0.9686,-0.9686,-0.9686,-0.9686,-0.9686,-0.9737,-0.988,-1.0096,-1.0148,-0.9944,-1.0045,-1.0108,-0.996,-0.9847,-0.9957,-1.0154,-1.0195,-1.0079,-1.0017,-1.0341,-1.066,-1.0769,-1.1106,-1.1348,-1.1633,-1.165,-1.1581,-1.1796,-1.2049,-1.218,-1.2258,-1.2732,-1.3005,-1.3166,-1.3348,-1.3795,-1.4107,-1.4236,-1.4294,-1.4068,-1.3902,-1.3784,-1.3821,-1.3947,-1.3637,-1.3195,-1.2948,-1.2814,-1.2997,-1.313,-1.3089,-0.4374,-0.4459,-0.4285,-0.4228,-0.408,-0.4076,-0.3939,-0.3613,-0.3606,-0.356,-0.3491,-0.3647,-0.3609,-0.3781,-0.354,-0.3761,-0.4077,-0.4621,-0.5395,-0.6103,-0.6183,-0.6257,-0.6261,-0.6261,-0.6257,-0.6234,-0.6105,-0.6037,-0.6023,-0.5884,-0.5803,-0.5779,-0.565,-0.5501,-0.5435,-0.5243,-0.5091,-0.4969,-0.4973,-0.4928,-0.4922,-0.5121,-0.5166,-0.5131,-0.5246,-0.531,-0.529,-0.5037,-0.5041,-0.529,-0.5364,-0.5526,-0.5759,-0.5839,-0.616,-0.6666,-0.6864,-0.75,-0.8463,-0.8713,-0.9117,-0.9432,-0.9638,-0.9686,-0.9686,-0.9686,-0.9686,-0.9686,-0.9686,-0.9737,-0.9846,-0.9938,-0.99,-0.975,-0.9986,-0.994,-0.9717,-0.985,-1.0243,-1.058,-1.0814,-1.1041,-1.1121,-1.1253,-1.1458,-1.1545,-1.1648,-1.1816,-1.2131,-1.2079,-1.2108,-1.2212,-1.2322,-1.2331,-1.2487,-1.2642,-1.2766,-1.29,-1.3115,-1.3438,-1.3609,-1.3789,-1.3932,-1.3768,-1.357,-1.3447,-1.3255,-1.3303,-1.2814,-1.2416,-1.2257,-1.2122,-1.2263,-1.2405,-1.2343,-0.3757,-0.42,-0.3578,-0.3301,-0.3282,-0.3282,-0.2891,-0.215,-0.2148,-0.2122,-0.2086,-0.208,-0.2401,-0.2704,-0.2428,-0.2728,-0.376,-0.3553,-0.407,-0.5165,-0.5398,-0.5712,-0.6183,-0.6257,-0.6261,-0.6254,-0.6213,-0.6186,-0.6156,-0.6034,-0.5959,-0.5928,-0.581,-0.5718,-0.5661,-0.561,-0.5521,-0.5393,-0.5463,-0.5455,-0.5424,-0.5546,-0.5523,-0.5483,-0.5472,-0.5487,-0.5369,-0.5257,-0.525,-0.5309,-0.5349,-0.541,-0.5458,-0.5466,-0.5571,-0.5797,-0.6183,-0.651,-0.7022,-0.7948,-0.8583,-0.8886,-0.9308,-0.9659,-0.9686,-0.9686,-0.9686,-0.9686,-0.9686,-0.9744,-0.9737,-0.9853,-0.9978,-1.003,-1.0094,-1.0136,-1.0077,-1.0336,-1.0769,-1.1073,-1.1294,-1.1406,-1.141,-1.165,-1.1949,-1.2087,-1.232,-1.2636,-1.2844,-1.2719,-1.2692,-1.2842,-1.2746,-1.2487,-1.2528,-1.2549,-1.2607,-1.2802,-1.3021,-1.3107,-1.3286,-1.3412,-1.3505,-1.351,-1.3282,-1.3075,-1.2887,-1.2603,-1.2289,-1.1896,-1.1714,-1.1665,-1.1593,-1.167,-1.1732,-0.2686,-0.3132,-0.2597,-0.233,-0.233,-0.233,-0.1958,-0.1408,-0.1406,-0.1391,-0.1367,-0.1363,-0.161,-0.1931,-0.1493,-0.1895,-0.2789,-0.2269,-0.2816,-0.3997,-0.4477,-0.5004,-0.5789,-0.618,-0.6261,-0.6261,-0.6257,-0.6261,-0.6254,-0.6166,-0.6115,-0.6088,-0.5962,-0.5884,-0.5874,-0.5827,-0.5749,-0.5671,-0.5672,-0.5675,-0.5659,-0.5659,-0.5709,-0.5618,-0.5664,-0.5616,-0.5513,-0.5498,-0.5451,-0.5465,-0.5494,-0.5494,-0.5494,-0.5563,-0.5551,-0.5608,-0.5827,-0.6163,-0.6412,-0.7245,-0.7879,-0.8184,-0.8854,-0.9266,-0.933,-0.9447,-0.9686,-0.9686,-0.9793,-0.9946,-1.012,-1.0302,-1.049,-1.0785,-1.0526,-1.0432,-1.0621,-1.092,-1.124,-1.1518,-1.1775,-1.1811,-1.1897,-1.2105,-1.2362,-1.2529,-1.2841,-1.3071,-1.3295,-1.3164,-1.3112,-1.3039,-1.2712,-1.2551,-1.2432,-1.2445,-1.2372,-1.2635,-1.2913,-1.2963,-1.3069,-1.3279,-1.3422,-1.3454,-1.3337,-1.3076,-1.2889,-1.2467,-1.2132,-1.1699,-1.1318,-1.1129,-1.1115,-1.1303,-1.1303,-0.1436,-0.1436,-0.1436,-0.1435,-0.1524,-0.1525,-0.1434,-0.1434,-0.1433,-0.1417,-0.1396,-0.1393,-0.138,-0.1358,-0.1354,-0.1434,-0.1348,-0.1425,-0.1838,-0.2643,-0.3224,-0.4027,-0.4959,-0.5587,-0.5892,-0.6106,-0.6103,-0.6183,-0.6261,-0.6244,-0.6261,-0.6224,-0.6112,-0.6044,-0.6023,-0.5901,-0.5857,-0.584,-0.5725,-0.5671,-0.572,-0.5668,-0.5645,-0.5635,-0.5765,-0.5818,-0.5778,-0.5741,-0.5724,-0.564,-0.5735,-0.5775,-0.5868,-0.5884,-0.5852,-0.5839,-0.5872,-0.6109,-0.6488,-0.6835,-0.7125,-0.7603,-0.8291,-0.8616,-0.8783,-0.9209,-0.9594,-0.9747,-0.9964,-1.0279,-1.0721,-1.0975,-1.1311,-1.1699,-1.1178,-1.0989,-1.1458,-1.1556,-1.171,-1.1983,-1.2263,-1.2438,-1.2375,-1.262,-1.2753,-1.2889,-1.2983,-1.3084,-1.3098,-1.3039,-1.3032,-1.2886,-1.2592,-1.2519,-1.2378,-1.2378,-1.2305,-1.2445,-1.2666,-1.2746,-1.282,-1.2976,-1.3071,-1.314,-1.3145,-1.2989,-1.266,-1.2211,-1.1761,-1.133,-1.0968,-1.0692,-1.0681,-1.0933,-1.0863,-0.1436,-0.1436,-0.1436,-0.1436,-0.1436,-0.1436,-0.1436,-0.1436,-0.1436,-0.143,-0.1423,-0.1423,-0.1417,-0.141,-0.1388,-0.1379,-0.1375,-0.1358,-0.1348,-0.1681,-0.1832,-0.2775,-0.3865,-0.4332,-0.4849,-0.5257,-0.5407,-0.5709,-0.6257,-0.6257,-0.6261,-0.6261,-0.6217,-0.6193,-0.619,-0.6146,-0.6142,-0.6139,-0.6105,-0.6067,-0.6057,-0.6101,-0.604,-0.5937,-0.5916,-0.5933,-0.5842,-0.5969,-0.5898,-0.5605,-0.5636,-0.5642,-0.5628,-0.5815,-0.5892,-0.5766,-0.586,-0.5961,-0.6207,-0.6678,-0.7145,-0.7312,-0.8064,-0.8573,-0.8755,-0.8896,-0.9379,-0.9844,-1.0184,-1.0415,-1.1048,-1.1337,-1.1567,-1.1749,-1.1655,-1.1594,-1.2026,-1.2131,-1.2312,-1.2599,-1.2711,-1.2673,-1.2701,-1.2823,-1.29,-1.29,-1.29,-1.2973,-1.2973,-1.2893,-1.2813,-1.2666,-1.2519,-1.2372,-1.2305,-1.2305,-1.2305,-1.2298,-1.2372,-1.2452,-1.2452,-1.2505,-1.2558,-1.2556,-1.2628,-1.2466,-1.22,-1.1785,-1.1391,-1.1136,-1.0876,-1.0744,-1.0564,-1.0631,-1.0428,-0.1436,-0.1436,-0.1436,-0.1436,-0.1436,-0.1436,-0.1436,-0.1436,-0.1436,-0.1436,-0.1436,-0.1436,-0.1436,-0.1433,-0.1416,-0.1409,-0.1406,-0.1392,-0.1299,-0.1385,-0.1384,-0.2122,-0.3149,-0.3533,-0.4059,-0.4453,-0.4838,-0.5286,-0.5718,-0.6103,-0.6257,-0.6261,-0.6261,-0.6261,-0.6254,-0.6261,-0.6261,-0.6254,-0.6261,-0.6261,-0.6261,-0.6261,-0.622,-0.6139,-0.6125,-0.6078,-0.6,-0.6012,-0.6022,-0.594,-0.5858,-0.5871,-0.581,-0.5944,-0.6002,-0.5871,-0.6005,-0.6078,-0.6151,-0.6626,-0.6933,-0.7092,-0.7793,-0.8228,-0.8475,-0.8653,-0.9209,-0.9552,-0.9769,-1.0331,-1.1,-1.1506,-1.1864,-1.2069,-1.2063,-1.2128,-1.2332,-1.2326,-1.2408,-1.2618,-1.2673,-1.2673,-1.2673,-1.2673,-1.2673,-1.2673,-1.268,-1.2753,-1.2746,-1.2673,-1.2599,-1.2526,-1.2445,-1.2378,-1.2305,-1.2305,-1.2305,-1.2298,-1.2298,-1.2305,-1.2305,-1.2305,-1.2298,-1.2251,-1.2124,-1.2017,-1.1917,-1.174,-1.151,-1.1306,-1.1001,-1.0778,-1.0542,-1.0373,-1.0168,-0.1436,-0.1436,-0.1436,-0.1436,-0.1436,-0.1436,-0.1436,-0.1436,-0.1436,-0.1436,-0.1436,-0.1436,-0.1436,-0.1436,-0.1431,-0.1434,-0.1433,-0.1427,-0.143,-0.1428,-0.1424,-0.1838,-0.2466,-0.295,-0.3407,-0.3747,-0.4463,-0.4803,-0.5213,-0.5811,-0.618,-0.6257,-0.6261,-0.6261,-0.6261,-0.6261,-0.6261,-0.6261,-0.6261,-0.6261,-0.6261,-0.6261,-0.6247,-0.624,-0.623,-0.623,-0.6193,-0.6197,-0.612,-0.6288,-0.6251,-0.6168,-0.619,-0.6208,-0.6268,-0.6235,-0.6272,-0.6291,-0.6339,-0.651,-0.6631,-0.675,-0.7385,-0.7881,-0.7957,-0.8316,-0.87,-0.9066,-0.9253,-0.9785,-1.0556,-1.1474,-1.1924,-1.2024,-1.2117,-1.2291,-1.2305,-1.2305,-1.2305,-1.2305,-1.2298,-1.2305,-1.2305,-1.2305,-1.2305,-1.2452,-1.2526,-1.2526,-1.2526,-1.2526,-1.2526,-1.2526,-1.2378,-1.2305,-1.2305,-1.2305,-1.2305,-1.2305,-1.2305,-1.2305,-1.2231,-1.2231,-1.2231,-1.2258,-1.2191,-1.2111,-1.2051,-1.1854,-1.1631,-1.1378,-1.1138,-1.0744,-1.0447,-1.0347,-1.0147,-0.1436,-0.1436,-0.1436,-0.1436,-0.1436,-0.1436,-0.1436,-0.1436,-0.1436,-0.1436,-0.1436,-0.1436,-0.1436,-0.1436,-0.1436,-0.1436,-0.1436,-0.1436,-0.1436,-0.1436,-0.1436,-0.1431,-0.1672,-0.1998,-0.2298,-0.2752,-0.3024,-0.3798,-0.4728,-0.5134,-0.5631,-0.6183,-0.618,-0.6261,-0.6261,-0.6261,-0.6261,-0.6261,-0.6261,-0.6261,-0.6261,-0.6261,-0.6261,-0.6261,-0.6261,-0.6261,-0.6261,-0.623,-0.6273,-0.6266,-0.6177,-0.6133,-0.6053,-0.6187,-0.6266,-0.6273,-0.6406,-0.6542,-0.6535,-0.6558,-0.6606,-0.6705,-0.6861,-0.6933,-0.7147,-0.7453,-0.8038,-0.8519,-0.883,-0.92,-0.9952,-1.0834,-1.1254,-1.1477,-1.1855,-1.2231,-1.2305,-1.2305,-1.2305,-1.2305,-1.2305,-1.2305,-1.2305,-1.2305,-1.2305,-1.2298,-1.2298,-1.2378,-1.2378,-1.2372,-1.2378,-1.2452,-1.2378,-1.2305,-1.2305,-1.2305,-1.2305,-1.2305,-1.2231,-1.2231,-1.2157,-1.2083,-1.2157,-1.2157,-1.2218,-1.2157,-1.2003,-1.1909,-1.1747,-1.1501,-1.1179,-1.0861,-1.0553,-1.0365,-1.0161,-0.1256,-0.1256,-0.1346,-0.1436,-0.1436,-0.1436,-0.1436,-0.1436,-0.1436,-0.1436,-0.1436,-0.1436,-0.1436,-0.1436,-0.1436,-0.1436,-0.1436,-0.1436,-0.1436,-0.1436,-0.1436,-0.1436,-0.1433,-0.1418,-0.1656,-0.2048,-0.2446,-0.3152,-0.3734,-0.4323,-0.4826,-0.5634,-0.5705,-0.5944,-0.6257,-0.6257,-0.6261,-0.6261,-0.6261,-0.6261,-0.6261,-0.6261,-0.6261,-0.6261,-0.6261,-0.6261,-0.6261,-0.6257,-0.6257,-0.6297,-0.6184,-0.6165,-0.6091,-0.6162,-0.624,-0.6243,-0.6466,-0.6615,-0.6615,-0.6763,-0.6919,-0.6904,-0.6982,-0.71,-0.7167,-0.7271,-0.753,-0.7986,-0.8161,-0.8466,-0.9296,-1.0051,-1.0501,-1.0651,-1.1254,-1.1706,-1.1781,-1.2077,-1.2305,-1.2305,-1.2305,-1.2305,-1.2305,-1.2305,-1.2305,-1.2305,-1.2305,-1.2305,-1.2305,-1.2305,-1.2305,-1.2305,-1.2305,-1.2305,-1.2305,-1.2305,-1.2305,-1.2231,-1.215,-1.2157,-1.2077,-1.2009,-1.1935,-1.2009,-1.2009,-1.1935,-1.1781,-1.1768,-1.1681,-1.1474,-1.1147,-1.0864,-1.0684,-1.0454,-1.0202,-0.1076,-0.1076,-0.1256,-0.1346,-0.1436,-0.1436,-0.1436,-0.1436,-0.1436,-0.1436,-0.1436,-0.1436,-0.1436,-0.1436,-0.1436,-0.1436,-0.1436,-0.1436,-0.1436,-0.1436,-0.1436,-0.1436,-0.1434,-0.1429,-0.142,-0.1485,-0.199,-0.2457,-0.2898,-0.325,-0.4002,-0.4651,-0.4849,-0.5082,-0.5709,-0.6025,-0.5944,-0.5948,-0.618,-0.6261,-0.6261,-0.6261,-0.6261,-0.6261,-0.6261,-0.6261,-0.6261,-0.6261,-0.6261,-0.6261,-0.6261,-0.6261,-0.6261,-0.6261,-0.6257,-0.6325,-0.6524,-0.6587,-0.6729,-0.6908,-0.7073,-0.7184,-0.7322,-0.7391,-0.7391,-0.746,-0.754,-0.7544,-0.771,-0.7863,-0.8475,-0.9226,-0.9674,-0.9895,-1.0426,-1.0881,-1.1031,-1.1552,-1.1781,-1.2305,-1.2305,-1.2305,-1.2305,-1.2305,-1.2305,-1.2305,-1.2305,-1.2305,-1.2305,-1.2305,-1.2231,-1.2231,-1.2157,-1.2083,-1.2083,-1.2083,-1.2083,-1.2083,-1.2077,-1.1929,-1.1855,-1.1781,-1.1706,-1.1706,-1.1706,-1.1632,-1.1632,-1.1558,-1.1465,-1.1286,-1.1193,-1.0924,-1.0712,-1.0455,-1.0207,-0.0897,-0.1076,-0.1166,-0.1256,-0.1346,-0.1436,-0.1436,-0.1436,-0.1436,-0.1436,-0.1436,-0.1436,-0.1436,-0.1436,-0.1436,-0.1436,-0.1436,-0.1436,-0.1436,-0.1436,-0.1436,-0.1436,-0.1436,-0.1436,-0.1431,-0.1423,-0.167,-0.1988,-0.2462,-0.2815,-0.3251,-0.3854,-0.4032,-0.4153,-0.4535,-0.4846,-0.5237,-0.5318,-0.5789,-0.6103,-0.618,-0.6257,-0.6261,-0.6261,-0.6261,-0.6261,-0.6261,-0.6261,-0.6261,-0.6261,-0.6261,-0.6261,-0.6261,-0.6261,-0.6261,-0.6335,-0.6486,-0.6637,-0.6791,-0.6865,-0.7026,-0.7184,-0.7257,-0.7257,-0.7334,-0.7411,-0.7407,-0.7484,-0.7484,-0.7561,-0.7714,-0.847,-0.8851,-0.9074,-0.9599,-1.0051,-1.0121,-1.0421,-1.1025,-1.1929,-1.2157,-1.2305,-1.2305,-1.2305,-1.2305,-1.2305,-1.2305,-1.2231,-1.2231,-1.2231,-1.215,-1.2077,-1.2009,-1.1935,-1.1787,-1.1781,-1.1781,-1.1855,-1.1781,-1.1706,-1.1632,-1.1484,-1.1484,-1.1484,-1.1484,-1.1484,-1.1409,-1.1341,-1.1329,-1.1236,-1.1101,-1.0966,-1.0767,-1.0563,-1.0248,-0.0718,-0.0897,-0.1076,-0.1166,-0.1346,-0.1436,-0.1436,-0.1436,-0.1436,-0.1436,-0.1436,-0.1436,-0.1436,-0.1436,-0.1436,-0.1436,-0.1436,-0.1436,-0.1436,-0.1436,-0.1436,-0.1436,-0.1436,-0.1436,-0.1436,-0.1431,-0.1419,-0.1578,-0.1909,-0.1958,-0.249,-0.3,-0.32,-0.3407,-0.3763,-0.4219,-0.4377,-0.4535,-0.516,-0.5631,-0.5709,-0.6022,-0.6257,-0.6261,-0.6261,-0.6261,-0.6261,-0.6261,-0.6261,-0.6261,-0.6261,-0.6261,-0.6261,-0.6261,-0.6261,-0.6338,-0.649,-0.6641,-0.6791,-0.6865,-0.6945,-0.7022,-0.7026,-0.7103,-0.718,-0.7176,-0.7253,-0.7334,-0.7334,-0.7411,-0.7561,-0.794,-0.8016,-0.8246,-0.8775,-0.9226,-0.9372,-0.9669,-1.0421,-1.1329,-1.1484,-1.1706,-1.2305,-1.2305,-1.2305,-1.2305,-1.2305,-1.2231,-1.2157,-1.2077,-1.2077,-1.1929,-1.1855,-1.1706,-1.1632,-1.1632,-1.1558,-1.1632,-1.1558,-1.1484,-1.1409,-1.1335,-1.126,-1.126,-1.126,-1.1335,-1.126,-1.1192,-1.1186,-1.1111,-1.0995,-1.0804,-1.0751,-1.0595,-1.0266,-0.0448,-0.0628,-0.0897,-0.1166,-0.1346,-0.1346,-0.1436,-0.1436,-0.1436,-0.1436,-0.1436,-0.1436,-0.1436,-0.1436,-0.1436,-0.1436,-0.1436,-0.1436,-0.1436,-0.1436,-0.1436,-0.1436,-0.1436,-0.1436,-0.1436,-0.1435,-0.1433,-0.1423,-0.1493,-0.1474,-0.1783,-0.2159,-0.2375,-0.2575,-0.3091,-0.3377,-0.3448,-0.3752,-0.43,-0.4768,-0.5162,-0.5631,-0.618,-0.6257,-0.6261,-0.6261,-0.6261,-0.6261,-0.6261,-0.6261,-0.6261,-0.6261,-0.6261,-0.6261,-0.6261,-0.6335,-0.6486,-0.6563,-0.6637,-0.6714,-0.6868,-0.6942,-0.6942,-0.7022,-0.7103,-0.7099,-0.7103,-0.7184,-0.7257,-0.7334,-0.7411,-0.7484,-0.7561,-0.7633,-0.8093,-0.8475,-0.8623,-0.8922,-0.9367,-1.0045,-1.0432,-1.1105,-1.1855,-1.2305,-1.2305,-1.215,-1.215,-1.2077,-1.2003,-1.1935,-1.1861,-1.1713,-1.1639,-1.1564,-1.1484,-1.1477,-1.1403,-1.1403,-1.1409,-1.1335,-1.126,-1.126,-1.1186,-1.1111,-1.1037,-1.1037,-1.1037,-1.1037,-1.1037,-1.0962,-1.0812,-1.0714,-1.0668,-1.0456,-1.0211,-0.018,-0.0448,-0.0628,-0.0897,-0.1166,-0.1346,-0.1436,-0.1436,-0.1436,-0.1436,-0.1436,-0.1436,-0.1436,-0.1436,-0.1436,-0.1436,-0.1436,-0.1436,-0.1436,-0.1436,-0.1436,-0.1436,-0.1436,-0.1436,-0.1436,-0.1436,-0.1436,-0.1434,-0.1422,-0.1403,-0.1475,-0.1622,-0.1661,-0.1543,-0.1942,-0.2466,-0.2668,-0.2823,-0.3522,-0.43,-0.4846,-0.5082,-0.555,-0.6022,-0.618,-0.6257,-0.6257,-0.6261,-0.6261,-0.6261,-0.6261,-0.6261,-0.6261,-0.6261,-0.6261,-0.6338,-0.6338,-0.6412,-0.6563,-0.6641,-0.6718,-0.6791,-0.6868,-0.6942,-0.6945,-0.7026,-0.7103,-0.7184,-0.7334,-0.733,-0.7253,-0.7411,-0.7484,-0.748,-0.7557,-0.771,-0.7787,-0.8012,-0.8533,-0.8912,-0.9367,-1.0496,-1.1552,-1.1929,-1.2231,-1.215,-1.1996,-1.1774,-1.1781,-1.1632,-1.1639,-1.1484,-1.1416,-1.1341,-1.1341,-1.1335,-1.1254,-1.1254,-1.1186,-1.1186,-1.1192,-1.1117,-1.1037,-1.0962,-1.0887,-1.0582,-1.0432,-1.0507,-1.0732,-1.0657,-1.0357,-1.0363,-1.0507,-1.0358,-1.0092,-0.018,-0.0448,-0.0628,-0.0897,-0.1076,-0.1346,-0.1436,-0.1436,-0.1436,-0.1436,-0.1436,-0.1436,-0.1436,-0.1436,-0.1436,-0.1436,-0.1436,-0.1436,-0.1436,-0.1436,-0.1436,-0.1436,-0.1436,-0.1436,-0.1436,-0.1436,-0.1436,-0.1436,-0.1429,-0.1423,-0.141,-0.1388,-0.1365,-0.1344,-0.1327,-0.1622,-0.1768,-0.2075,-0.2609,-0.3446,-0.4066,-0.4377,-0.4691,-0.555,-0.5553,-0.5867,-0.618,-0.6261,-0.6261,-0.6261,-0.6261,-0.6261,-0.6261,-0.6261,-0.6261,-0.6261,-0.6261,-0.6335,-0.6412,-0.6412,-0.649,-0.6486,-0.6563,-0.6563,-0.6563,-0.6718,-0.6872,-0.6872,-0.6945,-0.7022,-0.7022,-0.7099,-0.7099,-0.7173,-0.7249,-0.7173,-0.7173,-0.7173,-0.7472,-0.7851,-0.8304,-0.9362,-1.019,-1.0346,-1.0571,-1.0726,-1.0651,-1.0576,-1.0881,-1.1186,-1.1186,-1.126,-1.1186,-1.1192,-1.1192,-1.1186,-1.1037,-1.1031,-1.1031,-1.1037,-1.1111,-1.1111,-1.0738,-1.0432,-1.0132,-0.9976,-0.982,-0.982,-0.99,-0.9825,-0.9755,-0.9965,-1.0088,-1.0018,-0.9789,-0.009,-0.0359,-0.0628,-0.0807,-0.0987,-0.1256,-0.1346,-0.1346,-0.1346,-0.1436,-0.1436,-0.1436,-0.1436,-0.1436,-0.1436,-0.1436,-0.1436,-0.1436,-0.1436,-0.1436,-0.1436,-0.1436,-0.1436,-0.1436,-0.1436,-0.1436,-0.1436,-0.1436,-0.1436,-0.1432,-0.1421,-0.1401,-0.1388,-0.1376,-0.1356,-0.1331,-0.1396,-0.1475,-0.1927,-0.2619,-0.3319,-0.3454,-0.3992,-0.4533,-0.4927,-0.5318,-0.5867,-0.6261,-0.6261,-0.6261,-0.6261,-0.6261,-0.6261,-0.6261,-0.6261,-0.6261,-0.6261,-0.6261,-0.6335,-0.6338,-0.6261,-0.6261,-0.6338,-0.6416,-0.6412,-0.6486,-0.6563,-0.6637,-0.6714,-0.6791,-0.6788,-0.6865,-0.6942,-0.6942,-0.6942,-0.6942,-0.6872,-0.6972,-0.6964,-0.7169,-0.7548,-0.7702,-0.8385,-0.8466,-0.877,-0.915,-0.9301,-0.9377,-0.983,-1.0357,-1.0357,-1.0357,-1.0288,-1.0212,-1.0288,-1.0438,-1.0513,-1.0663,-1.0657,-1.0507,-1.0357,-1.0207,-0.9906,-0.9679,-0.9372,-0.8832,-0.8371,-0.868,-0.8988,-0.9221,-0.9367,-0.9557,-0.9638,-0.9552,-0.9513,0.0,-0.009,-0.0538,-0.0628,-0.0538,-0.1166,-0.1256,-0.1166,-0.1346,-0.1346,-0.1436,-0.1436,-0.1436,-0.1436,-0.1436,-0.1436,-0.1436,-0.1436,-0.1436,-0.1436,-0.1436,-0.1436,-0.1436,-0.1436,-0.1436,-0.1436,-0.1436,-0.1436,-0.1436,-0.1436,-0.1433,-0.1429,-0.1408,-0.1394,-0.1379,-0.136,-0.1342,-0.1335,-0.1557,-0.1866,-0.2414,-0.2707,-0.3066,-0.3839,-0.4538,-0.5004,-0.516,-0.5786,-0.6022,-0.6022,-0.618,-0.6103,-0.6103,-0.6257,-0.6257,-0.6261,-0.6261,-0.6261,-0.6261,-0.6261,-0.6261,-0.6261,-0.6352,-0.6369,-0.6528,-0.6588,-0.6574,-0.6617,-0.6731,-0.6702,-0.6758,-0.6799,-0.6869,-0.6887,-0.6838,-0.6831,-0.6831,-0.6883,-0.6869,-0.6736,-0.6902,-0.711,-0.7153,-0.7398,-0.7727,-0.8178,-0.8618,-0.877,-0.8775,-0.9155,-0.9155,-0.9155,-0.9079,-0.9008,-0.9008,-0.9155,-0.9533,-0.9609,-0.9604,-0.9377,-0.9079,-0.9003,-0.9221,-0.8689,-0.8304,-0.7613,-0.7065,-0.7259,-0.7711,-0.8595,-0.8964,-0.8842,-0.89,-0.8852,-0.8862,0.0,0.0,-0.0359,-0.0448,-0.0448,-0.0807,-0.0987,-0.1076,-0.1166,-0.1256,-0.1436,-0.1436,-0.1436,-0.1436,-0.1436,-0.1436,-0.1436,-0.1436,-0.1436,-0.1436,-0.1436,-0.1436,-0.1436,-0.1436,-0.1436,-0.1436,-0.1436,-0.1436,-0.1436,-0.1436,-0.1436,-0.1429,-0.142,-0.142,-0.1408,-0.1387,-0.1369,-0.135,-0.1339,-0.1579,-0.1654,-0.1789,-0.2165,-0.3037,-0.3222,-0.3761,-0.43,-0.5082,-0.5082,-0.5162,-0.5786,-0.5786,-0.5786,-0.6022,-0.6257,-0.6264,-0.6264,-0.6274,-0.6271,-0.6268,-0.6261,-0.6281,-0.641,-0.6469,-0.6551,-0.6621,-0.6676,-0.6694,-0.675,-0.6725,-0.6764,-0.6771,-0.6789,-0.6771,-0.675,-0.6816,-0.6802,-0.678,-0.678,-0.6687,-0.6635,-0.676,-0.6697,-0.6555,-0.6876,-0.72,-0.7646,-0.8089,-0.8093,-0.8169,-0.8246,-0.8246,-0.8246,-0.8322,-0.8322,-0.8475,-0.8627,-0.8551,-0.8475,-0.8318,-0.8161,-0.8542,-0.8533,-0.7923,-0.7222,-0.667,-0.6259,-0.599,-0.6446,-0.7319,-0.7759,-0.7906,-0.795,-0.8115,-0.813,0.0,0.0,-0.018,-0.0269,-0.0359,-0.0538,-0.0718,-0.0897,-0.0987,-0.1076,-0.1346,-0.1346,-0.1436,-0.1436,-0.1436,-0.1436,-0.1436,-0.1436,-0.1436,-0.1436,-0.1436,-0.1436,-0.1436,-0.1436,-0.1436,-0.1436,-0.1436,-0.1436,-0.1436,-0.1436,-0.1436,-0.1436,-0.1436,-0.1433,-0.1429,-0.1415,-0.1393,-0.1378,-0.1364,-0.1361,-0.1356,-0.1416,-0.1481,-0.2288,-0.2489,-0.2939,-0.3555,-0.4171,-0.4377,-0.4455,-0.4768,-0.524,-0.5318,-0.5553,-0.5948,-0.6193,-0.6298,-0.6322,-0.6325,-0.6325,-0.6346,-0.643,-0.6488,-0.6532,-0.6569,-0.6641,-0.673,-0.6671,-0.6681,-0.6705,-0.6709,-0.6747,-0.6733,-0.6702,-0.6709,-0.6781,-0.6706,-0.6781,-0.6716,-0.6726,-0.6654,-0.6634,-0.6603,-0.6525,-0.6569,-0.6723,-0.6883,-0.7176,-0.7176,-0.733,-0.7557,-0.7633,-0.7633,-0.7787,-0.794,-0.7727,-0.759,-0.7484,-0.7403,-0.7472,-0.7468,-0.7698,-0.7536,-0.6692,-0.614,-0.5806,-0.5594,-0.537,-0.5698,-0.6135,-0.6585,-0.7174,-0.7272,-0.7404,-0.7199,0.0,0.0,0.0,0.0,0.0,-0.0538,-0.0628,-0.0538,-0.0718,-0.0897,-0.1077,-0.1256,-0.1346,-0.1346,-0.1346,-0.1436,-0.1436,-0.1436,-0.1436,-0.1436,-0.1436,-0.1436,-0.1436,-0.1436,-0.1436,-0.1436,-0.1436,-0.1436,-0.1436,-0.1436,-0.1436,-0.1436,-0.1436,-0.1436,-0.1436,-0.1435,-0.1433,-0.1428,-0.1401,-0.1392,-0.1384,-0.1362,-0.1432,-0.1673,-0.2054,-0.2433,-0.2749,-0.3438,-0.3576,-0.3493,-0.3882,-0.4358,-0.4668,-0.4823,-0.5373,-0.6081,-0.6255,-0.6384,-0.6474,-0.6474,-0.6539,-0.6617,-0.6651,-0.6695,-0.6695,-0.6722,-0.6759,-0.681,-0.6773,-0.6746,-0.6725,-0.6725,-0.6753,-0.6766,-0.678,-0.6787,-0.6797,-0.6803,-0.6824,-0.6837,-0.6766,-0.6709,-0.6702,-0.6654,-0.6515,-0.6486,-0.6379,-0.6355,-0.6546,-0.6787,-0.704,-0.7144,-0.7152,-0.7152,-0.7238,-0.6787,-0.6535,-0.6355,-0.6426,-0.6592,-0.6416,-0.6398,-0.6009,-0.5467,-0.5366,-0.5343,-0.5084,-0.4825,-0.5194,-0.5536,-0.6126,-0.6521,-0.6635,-0.6535,-0.6253,0.0,0.0,0.0,0.0,0.0,-0.018,-0.0269,-0.0448,-0.0628,-0.0718,-0.0897,-0.1076,-0.1166,-0.1256,-0.1346,-0.1436,-0.1436,-0.1436,-0.1436,-0.1436,-0.1436,-0.1436,-0.1436,-0.1436,-0.1436,-0.1436,-0.1436,-0.1436,-0.1436,-0.1436,-0.1436,-0.1436,-0.1436,-0.1436,-0.1436,-0.1436,-0.1435,-0.1433,-0.1424,-0.1419,-0.1416,-0.1392,-0.1376,-0.1374,-0.1683,-0.183,-0.1828,-0.2623,-0.2773,-0.2612,-0.2936,-0.3587,-0.3751,-0.3832,-0.4654,-0.5392,-0.5703,-0.6086,-0.6479,-0.6773,-0.6739,-0.6763,-0.68,-0.6848,-0.6851,-0.6949,-0.6976,-0.6973,-0.6953,-0.6956,-0.7,-0.6997,-0.701,-0.701,-0.7021,-0.7017,-0.7024,-0.7021,-0.7031,-0.7034,-0.6993,-0.6909,-0.6871,-0.682,-0.6695,-0.6644,-0.6569,-0.6522,-0.662,-0.6666,-0.6823,-0.6859,-0.6792,-0.6701,-0.6519,-0.6474,-0.6275,-0.6258,-0.6149,-0.6126,-0.5861,-0.5511,-0.5326,-0.5249,-0.5137,-0.5021,-0.4841,-0.4732,-0.4731,-0.4993,-0.5424,-0.5709,-0.578,-0.5504,-0.4993,0.0,0.0,0.0,0.0,0.0,0.0,-0.009,-0.0269,-0.0448,-0.0628,-0.0628,-0.0897,-0.0987,-0.1076,-0.1256,-0.1346,-0.1436,-0.1436,-0.1436,-0.1436,-0.1436,-0.1436,-0.1436,-0.1436,-0.1436,-0.1436,-0.1436,-0.1436,-0.1436,-0.1436,-0.1436,-0.1436,-0.1436,-0.1436,-0.1436,-0.1436,-0.1436,-0.1435,-0.1431,-0.1432,-0.1427,-0.1416,-0.1406,-0.1397,-0.1381,-0.1363,-0.1529,-0.1692,-0.1935,-0.1854,-0.2189,-0.2856,-0.2772,-0.3104,-0.3857,-0.4522,-0.4903,-0.5387,-0.6082,-0.6381,-0.6423,-0.6813,-0.6873,-0.6993,-0.7007,-0.7068,-0.7102,-0.7119,-0.7139,-0.7136,-0.7129,-0.7139,-0.7139,-0.7132,-0.7129,-0.7122,-0.7119,-0.7112,-0.7109,-0.7126,-0.7122,-0.7061,-0.7017,-0.6966,-0.6881,-0.6868,-0.6851,-0.68,-0.6739,-0.6774,-0.6737,-0.6678,-0.6685,-0.6575,-0.6565,-0.6476,-0.6355,-0.6156,-0.6044,-0.5854,-0.5618,-0.5424,-0.5224,-0.5015,-0.4958,-0.4898,-0.483,-0.4792,-0.4646,-0.4538,-0.4611,-0.4827,-0.4897,-0.4709,-0.4338,0.0,0.0,0.0,0.0,0.0,0.0,0.0,0.0,-0.0269,-0.0359,-0.0359,-0.0628,-0.0807,-0.1076,-0.1076,-0.1256,-0.1346,-0.1346,-0.1346,-0.1436,-0.1436,-0.1436,-0.1436,-0.1436,-0.1436,-0.1436,-0.1436,-0.1436,-0.1436,-0.1436,-0.1436,-0.1436,-0.1436,-0.1436,-0.1436,-0.1436,-0.1436,-0.1436,-0.1436,-0.1436,-0.1432,-0.1432,-0.1427,-0.1419,-0.1406,-0.1394,-0.1472,-0.1461,-0.1449,-0.1359,-0.1442,-0.1945,-0.2277,-0.2524,-0.3112,-0.3639,-0.3957,-0.4809,-0.5403,-0.5687,-0.6136,-0.6621,-0.7007,-0.7041,-0.7129,-0.7126,-0.7136,-0.7139,-0.7139,-0.7139,-0.7139,-0.7139,-0.7139,-0.7139,-0.7139,-0.7136,-0.7136,-0.7136,-0.7132,-0.7139,-0.7139,-0.7112,-0.7105,-0.7065,-0.6924,-0.6934,-0.6907,-0.686,-0.68,-0.6834,-0.6803,-0.6716,-0.6709,-0.6595,-0.6515,-0.647,-0.626,-0.6059,-0.5954,-0.5756,-0.5505,-0.5342,-0.5228,-0.5078,-0.4939,-0.4855,-0.4814,-0.4705,-0.4553,-0.4466,-0.4414,-0.4352,-0.4509,-0.4498,-0.4258,0.0,0.0,0.0,0.0,0.0,0.0,0.0,0.0,-0.009,0.0,-0.018,-0.0359,-0.0628,-0.0807,-0.0807,-0.1076,-0.1256,-0.1256,-0.1346,-0.1346,-0.1436,-0.1436,-0.1436,-0.1436,-0.1436,-0.1436,-0.1436,-0.1437,-0.1438,-0.1437,-0.144,-0.1436,-0.1444,-0.1442,-0.1441,-0.1437,-0.144,-0.1439,-0.144,-0.1436,-0.1436,-0.1436,-0.1436,-0.143,-0.1426,-0.1418,-0.1413,-0.141,-0.1403,-0.1406,-0.1408,-0.1584,-0.1673,-0.1761,-0.2113,-0.308,-0.3717,-0.4444,-0.4732,-0.5275,-0.5811,-0.6163,-0.6605,-0.7051,-0.7139,-0.7051,-0.7051,-0.7139,-0.7139,-0.7139,-0.7139,-0.7139,-0.7139,-0.7139,-0.7139,-0.7139,-0.7139,-0.7139,-0.7139,-0.7139,-0.7139,-0.7051,-0.7051,-0.7041,-0.6997,-0.7037,-0.7031,-0.689,-0.6763,-0.6794,-0.6767,-0.6678,-0.6685,-0.6576,-0.6455,-0.6409,-0.6171,-0.6034,-0.5843,-0.5715,-0.5535,-0.538,-0.5328,-0.5154,-0.5029,-0.4917,-0.4822,-0.4716,-0.4632,-0.445,-0.4386,-0.4251,-0.4128,-0.4115,-0.4036,0.0,0.0,0.0,0.0,0.0,0.0,0.0,0.0,0.0,0.0,0.0,-0.018,-0.0359,-0.0538,-0.0628,-0.0807,-0.1076,-0.1166,-0.1166,-0.1256,-0.1346,-0.1436,-0.1436,-0.1436,-0.1436,-0.1436,-0.1438,-0.1442,-0.1451,-0.1468,-0.1473,-0.1475,-0.1471,-0.147,-0.1474,-0.1478,-0.1476,-0.1466,-0.1453,-0.144,-0.1436,-0.1436,-0.1436,-0.1436,-0.1436,-0.1436,-0.1436,-0.1436,-0.1436,-0.1436,-0.1436,-0.1436,-0.1434,-0.1434,-0.1523,-0.2323,-0.2592,-0.3215,-0.3667,-0.4113,-0.465,-0.5275,-0.5988,-0.634,-0.6697,-0.6786,-0.6962,-0.7139,-0.7139,-0.7139,-0.7139,-0.7139,-0.7139,-0.7139,-0.7139,-0.7139,-0.7139,-0.7139,-0.7139,-0.7139,-0.7051,-0.7054,-0.7054,-0.6966,-0.6874,-0.6786,-0.6697,-0.6678,-0.6571,-0.664,-0.6624,-0.6533,-0.6555,-0.648,-0.6435,-0.6257,-0.611,-0.5886,-0.5804,-0.5662,-0.548,-0.5407,-0.5352,-0.5252,-0.5132,-0.5021,-0.4909,-0.4841,-0.4757,-0.4573,-0.4404,-0.4206,-0.4066,-0.3924,-0.3847,0.0,0.0,0.0,0.0,0.0,0.0,0.0,0.0,0.0,0.0,0.0,0.0,-0.018,-0.0359,-0.0448,-0.0538,-0.0807,-0.0897,-0.0987,-0.1076,-0.1256,-0.1346,-0.1256,-0.1346,-0.1351,-0.135,-0.1445,-0.146,-0.1485,-0.15,-0.151,-0.1526,-0.1519,-0.1513,-0.151,-0.1511,-0.1508,-0.1502,-0.1476,-0.1455,-0.1444,-0.1439,-0.1436,-0.1436,-0.1436,-0.1436,-0.1436,-0.1436,-0.1436,-0.1436,-0.1436,-0.1436,-0.1436,-0.1436,-0.1435,-0.1524,-0.1793,-0.2151,-0.2686,-0.3133,-0.3592,-0.4218,-0.5015,-0.5412,-0.5795,-0.6675,-0.7125,-0.7214,-0.7221,-0.7221,-0.7221,-0.7166,-0.7139,-0.7139,-0.7139,-0.7139,-0.7139,-0.7051,-0.7054,-0.7054,-0.6966,-0.6966,-0.6786,-0.6697,-0.6697,-0.6517,-0.6432,-0.6432,-0.6343,-0.6343,-0.6343,-0.6343,-0.6346,-0.6349,-0.6171,-0.5994,-0.5908,-0.5805,-0.5714,-0.5684,-0.5589,-0.5518,-0.5458,-0.533,-0.5197,-0.511,-0.5015,-0.4939,-0.4787,-0.4635,-0.4398,-0.4175,-0.4019,-0.3851,-0.3655,0.0,0.0,0.0,0.0,0.0,0.0,0.0,0.0,0.0,0.0,0.0,0.0,-0.018,-0.0359,-0.018,-0.0269,-0.0628,-0.0628,-0.0628,-0.0807,-0.1076,-0.1079,-0.0988,-0.1171,-0.1269,-0.1281,-0.1382,-0.1487,-0.1513,-0.1525,-0.1528,-0.1529,-0.1532,-0.1536,-0.1535,-0.1535,-0.1535,-0.1536,-0.1515,-0.1489,-0.1475,-0.1449,-0.1436,-0.1436,-0.1437,-0.1438,-0.1437,-0.1436,-0.1436,-0.1436,-0.1436,-0.1436,-0.1436,-0.1436,-0.1436,-0.1436,-0.1436,-0.1616,-0.1889,-0.2432,-0.2895,-0.3289,-0.4038,-0.4442,-0.5189,-0.6524,-0.7228,-0.7228,-0.7316,-0.7316,-0.7282,-0.7207,-0.7143,-0.7143,-0.7051,-0.7051,-0.7051,-0.7051,-0.6966,-0.6966,-0.6877,-0.6789,-0.6609,-0.652,-0.6428,-0.6343,-0.6257,-0.6169,-0.608,-0.6083,-0.6083,-0.608,-0.6171,-0.6083,-0.5908,-0.5819,-0.5822,-0.5733,-0.5725,-0.5706,-0.5681,-0.5613,-0.5529,-0.5385,-0.5257,-0.5173,-0.5091,-0.5018,-0.4868,-0.4649,-0.4448,-0.4146,-0.3884,-0.3642,-0.3505,0.0,0.0,0.0,0.0,0.0,0.0,0.0,0.0,0.0,0.0,0.0,0.0,0.0,0.0,-0.009,0.0,0.0,-0.0448,-0.0448,-0.0628,-0.081,-0.0814,-0.0905,-0.1,-0.1107,-0.1121,-0.1421,-0.1533,-0.1545,-0.1564,-0.1569,-0.1466,-0.1564,-0.1563,-0.1564,-0.1565,-0.1564,-0.1567,-0.1553,-0.1536,-0.1516,-0.1492,-0.1467,-0.1463,-0.1455,-0.1451,-0.1437,-0.1436,-0.1436,-0.1436,-0.1436,-0.1436,-0.1436,-0.1436,-0.1436,-0.1436,-0.1437,-0.1441,-0.1632,-0.1914,-0.2386,-0.2696,-0.3183,-0.3676,-0.3971,-0.5165,-0.6205,-0.6389,-0.729,-0.7472,-0.7366,-0.7285,-0.7204,-0.717,-0.6976,-0.6877,-0.6786,-0.6697,-0.6697,-0.6609,-0.6609,-0.6523,-0.6346,-0.626,-0.6257,-0.6083,-0.5908,-0.5905,-0.5908,-0.573,-0.573,-0.5819,-0.5816,-0.5908,-0.5822,-0.5733,-0.5733,-0.5733,-0.5733,-0.5722,-0.5703,-0.5667,-0.5594,-0.5291,-0.5173,-0.5238,-0.5159,-0.4686,-0.4784,-0.4719,-0.4373,-0.4107,-0.3834,-0.3499,-0.3436,0.0,0.0,0.0,0.0,0.0,0.0,0.0,0.0,0.0,0.0,0.0,0.0,0.0,0.0,0.0,0.0,0.0,0.0,-0.0359,-0.0359,-0.0541,-0.0546,-0.0552,-0.0649,-0.0847,-0.1053,-0.1266,-0.1372,-0.138,-0.1394,-0.1504,-0.1514,-0.1516,-0.1515,-0.1516,-0.1514,-0.1406,-0.14,-0.139,-0.148,-0.1465,-0.1544,-0.1512,-0.1493,-0.1484,-0.1472,-0.1455,-0.1448,-0.1448,-0.1451,-0.1457,-0.1459,-0.1459,-0.1461,-0.1459,-0.146,-0.1461,-0.1471,-0.1572,-0.158,-0.1692,-0.1807,-0.2481,-0.278,-0.3078,-0.3667,-0.4733,-0.5489,-0.6513,-0.702,-0.6926,-0.7021,-0.6944,-0.6844,-0.6646,-0.6615,-0.6432,-0.634,-0.634,-0.634,-0.6254,-0.6169,-0.6083,-0.5994,-0.5908,-0.5733,-0.5644,-0.5733,-0.5644,-0.5463,-0.5282,-0.5371,-0.546,-0.5463,-0.5644,-0.5733,-0.5733,-0.5733,-0.5733,-0.5733,-0.5727,-0.5697,-0.5468,-0.5033,-0.5012,-0.4753,-0.4412,-0.3857,-0.4049,-0.4171,-0.3964,-0.3615,-0.3533,-0.3287,-0.344,0.018,0.0,0.0,0.0,0.0,0.0,0.0,0.0,0.0,0.0,0.0,0.0,0.0,0.0,0.0,0.0,0.0,0.0,0.0,-0.009,-0.0364,-0.0276,-0.0279,-0.0568,-0.0768,-0.0879,-0.0993,-0.0902,-0.11,-0.1207,-0.1212,-0.101,-0.1212,-0.1212,-0.101,-0.101,-0.101,-0.1008,-0.1108,-0.1101,-0.1291,-0.1369,-0.153,-0.1518,-0.1517,-0.1513,-0.151,-0.1508,-0.1509,-0.1509,-0.1504,-0.1502,-0.1499,-0.1497,-0.1497,-0.14,-0.1401,-0.141,-0.1418,-0.1422,-0.1342,-0.146,-0.1857,-0.1767,-0.2072,-0.2382,-0.3174,-0.3563,-0.4324,-0.496,-0.5184,-0.569,-0.5808,-0.5772,-0.5708,-0.593,-0.6077,-0.6077,-0.6074,-0.5897,-0.5722,-0.5636,-0.546,-0.546,-0.546,-0.5285,-0.5282,-0.5285,-0.5104,-0.5015,-0.4837,-0.4837,-0.4837,-0.5282,-0.5552,-0.5644,-0.5644,-0.5733,-0.5555,-0.5285,-0.5285,-0.5644,-0.5409,-0.4463,-0.398,-0.3663,-0.3257,-0.3025,-0.2674,-0.2728,-0.2995,-0.2948,-0.2968,-0.3119,-0.3262]}]]